Today

Time Wind Dr Wind Spd
mph
Wind Gust
mph
Hum In
%
Humid
%
TempI
F
Temp
F
Raw Bar
in
Tot Rain
in
UV Solar
W/sqm
DailyRain
in
HourRain
in
24HrRain
in
RainRate
in
05/08/26 12:01:26 AM 35 0.0 0.0 55 76 71.9 62.0 30.002 7.26 0.0 0 0.00 0.00 0.00 0.00
05/08/26 12:02:18 AM 36 0.0 0.0 55 76 72.0 62.0 30.001 7.26 0.0 0 0.00 0.00 0.00 0.00
05/08/26 12:03:30 AM 35 0.0 0.0 55 76 71.9 62.0 30.002 7.26 0.0 0 0.00 0.00 0.00 0.00
05/08/26 12:04:18 AM 32 0.0 0.0 55 76 72.0 62.0 30.002 7.26 0.0 0 0.00 0.00 0.00 0.00
05/08/26 12:05:31 AM 36 0.0 0.0 55 76 72.0 61.9 30.002 7.26 0.0 0 0.00 0.00 0.00 0.00
05/08/26 12:06:22 AM 34 0.0 0.0 55 76 72.0 61.9 30.001 7.26 0.0 0 0.00 0.00 0.00 0.00
05/08/26 12:07:32 AM 34 0.0 0.0 55 76 72.0 61.9 30.003 7.26 0.0 0 0.00 0.00 0.00 0.00
05/08/26 12:08:23 AM 35 0.0 0.0 55 76 71.9 61.9 30.002 7.26 0.0 0 0.00 0.00 0.00 0.00
05/08/26 12:09:33 AM 35 0.0 0.0 55 77 71.9 61.8 30.001 7.26 0.0 0 0.00 0.00 0.00 0.00
05/08/26 12:10:24 AM 38 0.0 0.0 55 77 72.0 61.8 30.001 7.26 0.0 0 0.00 0.00 0.00 0.00
05/08/26 12:11:34 AM 38 0.0 0.0 55 77 72.0 61.8 30.001 7.26 0.0 0 0.00 0.00 0.00 0.00
05/08/26 12:12:26 AM 36 0.0 0.0 55 77 72.0 61.8 30.002 7.26 0.0 0 0.00 0.00 0.00 0.00
05/08/26 12:13:18 AM 35 0.0 0.0 55 77 72.0 61.8 30.003 7.26 0.0 0 0.00 0.00 0.00 0.00
05/08/26 12:14:28 AM 32 0.0 0.0 55 77 72.0 61.8 30.002 7.26 0.0 0 0.00 0.00 0.00 0.00
05/08/26 12:15:20 AM 31 0.0 0.0 55 77 72.0 61.7 30.004 7.26 0.0 0 0.00 0.00 0.00 0.00
05/08/26 12:16:33 AM 31 0.0 0.0 55 77 72.0 61.7 30.002 7.26 0.0 0 0.00 0.00 0.00 0.00
05/08/26 12:17:21 AM 35 0.0 0.0 55 77 72.0 61.8 30.001 7.26 0.0 0 0.00 0.00 0.00 0.00
05/08/26 12:18:34 AM 36 0.0 0.0 55 77 72.0 61.8 30.001 7.26 0.0 0 0.00 0.00 0.00 0.00
05/08/26 12:19:26 AM 35 0.0 0.0 55 77 72.0 61.8 30.004 7.26 0.0 0 0.00 0.00 0.00 0.00
05/08/26 12:20:36 AM 38 0.0 0.0 55 77 71.9 61.8 30.001 7.26 0.0 0 0.00 0.00 0.00 0.00
05/08/26 12:21:28 AM 38 0.0 0.0 55 77 72.0 61.8 30.000 7.26 0.0 0 0.00 0.00 0.00 0.00
05/08/26 12:22:19 AM 38 0.0 0.0 55 77 72.0 61.8 30.001 7.26 0.0 0 0.00 0.00 0.00 0.00
05/08/26 12:23:29 AM 38 0.0 0.0 55 77 71.9 61.8 30.002 7.26 0.0 0 0.00 0.00 0.00 0.00
05/08/26 12:24:24 AM 38 0.0 0.0 55 77 72.0 61.8 30.003 7.26 0.0 0 0.00 0.00 0.00 0.00
05/08/26 12:29:41 AM 38 0.0 0.0 55 77 72.4 61.8 30.003 7.26 0.0 0 0.00 0.00 0.00 0.00
05/08/26 12:30:54 AM 38 0.0 0.0 55 77 72.5 61.6 30.003 7.26 0.0 0 0.00 0.00 0.00 0.00
05/08/26 12:31:25 AM 38 0.0 0.0 55 77 72.4 61.6 30.001 7.26 0.0 0 0.00 0.00 0.00 0.00
05/08/26 12:32:17 AM 38 0.0 0.0 55 77 72.3 61.6 30.002 7.26 0.0 0 0.00 0.00 0.00 0.00
05/08/26 12:33:30 AM 38 0.0 0.0 55 77 72.2 61.6 30.003 7.26 0.0 0 0.00 0.00 0.00 0.00
05/08/26 12:34:19 AM 32 0.0 0.0 55 77 72.2 61.6 30.000 7.26 0.0 0 0.00 0.00 0.00 0.00
05/08/26 12:35:28 AM 38 0.0 0.0 55 77 72.1 61.5 30.000 7.26 0.0 0 0.00 0.00 0.00 0.00
05/08/26 12:36:23 AM 38 0.0 0.0 55 77 72.2 61.5 30.002 7.26 0.0 0 0.00 0.00 0.00 0.00
05/08/26 12:37:36 AM 36 0.0 0.0 55 77 72.1 61.4 30.003 7.26 0.0 0 0.00 0.00 0.00 0.00
05/08/26 12:38:28 AM 38 0.0 0.0 55 77 72.1 61.4 30.000 7.26 0.0 0 0.00 0.00 0.00 0.00
05/08/26 12:39:35 AM 39 0.0 0.0 55 77 72.1 61.4 30.001 7.26 0.0 0 0.00 0.00 0.00 0.00
05/08/26 12:40:27 AM 38 0.0 0.0 55 77 72.1 61.4 29.999 7.26 0.0 0 0.00 0.00 0.00 0.00
05/08/26 12:41:19 AM 36 0.0 0.0 55 77 72.0 61.3 30.000 7.26 0.0 0 0.00 0.00 0.00 0.00
05/08/26 12:42:29 AM 38 0.0 0.0 55 77 72.1 61.3 30.000 7.26 0.0 0 0.00 0.00 0.00 0.00
05/08/26 12:43:20 AM 35 0.0 0.0 55 77 72.0 61.3 30.002 7.26 0.0 0 0.00 0.00 0.00 0.00
05/08/26 12:44:30 AM 35 0.0 0.0 55 77 72.0 61.3 29.999 7.26 0.0 0 0.00 0.00 0.00 0.00
05/08/26 12:45:43 AM 36 0.0 0.0 55 77 72.0 61.2 29.998 7.26 0.0 0 0.00 0.00 0.00 0.00
05/08/26 12:46:35 AM 36 0.0 0.0 55 77 72.0 61.2 30.000 7.26 0.0 0 0.00 0.00 0.00 0.00
05/08/26 12:47:27 AM 38 0.0 0.0 55 77 72.0 61.1 29.999 7.26 0.0 0 0.00 0.00 0.00 0.00
05/08/26 12:48:19 AM 35 0.0 0.0 55 77 72.0 61.1 30.000 7.26 0.0 0 0.00 0.00 0.00 0.00
05/08/26 12:49:32 AM 32 0.0 0.0 55 77 72.0 61.1 30.000 7.26 0.0 0 0.00 0.00 0.00 0.00
05/08/26 12:50:21 AM 32 0.0 0.0 55 77 72.0 61.1 30.000 7.26 0.0 0 0.00 0.00 0.00 0.00
05/08/26 12:51:31 AM 38 0.0 0.0 55 78 71.9 61.0 29.999 7.26 0.0 0 0.00 0.00 0.00 0.00
05/08/26 12:52:22 AM 31 0.0 0.0 55 78 72.0 61.0 30.001 7.26 0.0 0 0.00 0.00 0.00 0.00
05/08/26 12:53:35 AM 31 0.0 0.0 55 78 71.9 61.0 29.999 7.26 0.0 0 0.00 0.00 0.00 0.00
05/08/26 12:54:27 AM 36 0.0 0.0 55 78 71.9 60.9 29.998 7.26 0.0 0 0.00 0.00 0.00 0.00
05/08/26 12:55:19 AM 36 0.0 0.0 55 78 71.9 60.9 29.998 7.26 0.0 0 0.00 0.00 0.00 0.00
05/08/26 12:56:26 AM 35 0.0 0.0 55 78 71.9 60.9 29.999 7.26 0.0 0 0.00 0.00 0.00 0.00
05/08/26 12:57:18 AM 36 0.0 0.0 55 78 71.9 60.8 29.998 7.26 0.0 0 0.00 0.00 0.00 0.00
05/08/26 12:58:31 AM 36 0.0 0.0 55 78 71.9 60.8 30.000 7.26 0.0 0 0.00 0.00 0.00 0.00
05/08/26 12:59:23 AM 38 0.0 0.0 55 78 71.9 60.8 29.997 7.26 0.0 0 0.00 0.00 0.00 0.00
05/08/26 1:00:36 AM 38 0.0 0.0 55 78 71.9 60.7 29.998 7.26 0.0 0 0.00 0.00 0.00 0.00
05/08/26 1:01:24 AM 35 0.0 0.0 55 78 71.9 60.7 29.998 7.26 0.0 0 0.00 0.00 0.00 0.00
05/08/26 1:02:37 AM 35 0.0 0.0 55 78 71.9 60.7 29.996 7.26 0.0 0 0.00 0.00 0.00 0.00
05/08/26 1:03:26 AM 38 0.0 0.0 55 78 71.9 60.7 29.995 7.26 0.0 0 0.00 0.00 0.00 0.00
05/08/26 1:04:21 AM 31 0.0 0.0 55 78 71.8 60.6 29.996 7.26 0.0 0 0.00 0.00 0.00 0.00
05/08/26 1:05:31 AM 31 0.0 0.0 55 78 71.9 60.6 29.996 7.26 0.0 0 0.00 0.00 0.00 0.00
05/08/26 1:06:20 AM 36 0.0 0.0 55 78 71.8 60.6 29.996 7.26 0.0 0 0.00 0.00 0.00 0.00
05/08/26 1:07:30 AM 35 0.0 0.0 55 78 71.8 60.5 29.995 7.26 0.0 0 0.00 0.00 0.00 0.00
05/08/26 1:08:21 AM 35 0.0 0.0 55 79 71.8 60.5 29.994 7.26 0.0 0 0.00 0.00 0.00 0.00
05/08/26 1:09:34 AM 36 0.0 0.0 55 79 71.9 60.5 29.993 7.26 0.0 0 0.00 0.00 0.00 0.00
05/08/26 1:10:26 AM 36 0.0 0.0 55 79 71.9 60.5 29.996 7.26 0.0 0 0.00 0.00 0.00 0.00
05/08/26 1:11:18 AM 34 0.0 0.0 55 79 71.9 60.4 29.995 7.26 0.0 0 0.00 0.00 0.00 0.00
05/08/26 1:12:28 AM 38 0.0 0.0 55 79 71.9 60.4 29.995 7.26 0.0 0 0.00 0.00 0.00 0.00
05/08/26 1:13:20 AM 36 0.0 0.0 55 79 71.9 60.4 29.994 7.26 0.0 0 0.00 0.00 0.00 0.00
05/08/26 1:14:30 AM 34 0.0 0.0 55 79 71.9 60.3 29.996 7.26 0.0 0 0.00 0.00 0.00 0.00
05/08/26 1:15:21 AM 36 0.0 0.0 55 79 71.9 60.3 29.993 7.26 0.0 0 0.00 0.00 0.00 0.00
05/08/26 1:16:34 AM 38 0.0 0.0 55 79 71.8 60.3 29.993 7.26 0.0 0 0.00 0.00 0.00 0.00
05/08/26 1:17:20 AM 38 0.0 0.0 55 79 71.9 60.2 29.996 7.26 0.0 0 0.00 0.00 0.00 0.00
05/08/26 1:18:33 AM 34 0.0 0.0 55 79 71.8 60.2 29.995 7.26 0.0 0 0.00 0.00 0.00 0.00
05/08/26 1:19:25 AM 35 0.0 0.0 55 79 71.8 60.2 29.993 7.26 0.0 0 0.00 0.00 0.00 0.00
05/08/26 1:20:17 AM 34 0.0 0.0 55 79 71.8 60.2 29.995 7.26 0.0 0 0.00 0.00 0.00 0.00
05/08/26 1:21:30 AM 38 0.0 0.0 55 79 71.8 60.1 29.995 7.26 0.0 0 0.00 0.00 0.00 0.00
05/08/26 1:22:19 AM 31 0.0 0.0 55 79 71.8 60.1 29.995 7.26 0.0 0 0.00 0.00 0.00 0.00
05/08/26 1:23:29 AM 38 0.0 0.0 55 79 71.9 60.1 29.996 7.26 0.0 0 0.00 0.00 0.00 0.00
05/08/26 1:24:17 AM 36 0.0 0.0 55 79 71.8 60.1 29.995 7.26 0.0 0 0.00 0.00 0.00 0.00
05/08/26 1:25:30 AM 36 0.0 0.0 55 79 71.8 60.1 29.993 7.26 0.0 0 0.00 0.00 0.00 0.00
05/08/26 1:26:19 AM 35 0.0 0.0 55 79 71.8 60.0 29.992 7.26 0.0 0 0.00 0.00 0.00 0.00
05/08/26 1:27:29 AM 38 0.0 0.0 55 79 71.8 60.0 29.994 7.26 0.0 0 0.00 0.00 0.00 0.00
05/08/26 1:28:21 AM 36 0.0 0.0 55 80 71.8 60.0 29.994 7.26 0.0 0 0.00 0.00 0.00 0.00
05/08/26 1:29:34 AM 34 0.0 0.0 55 80 71.8 60.0 29.991 7.26 0.0 0 0.00 0.00 0.00 0.00
05/08/26 1:30:26 AM 34 0.0 0.0 55 80 71.8 59.9 29.991 7.26 0.0 0 0.00 0.00 0.00 0.00
05/08/26 1:31:20 AM 38 0.0 0.0 55 80 71.8 59.9 29.990 7.26 0.0 0 0.00 0.00 0.00 0.00
05/08/26 1:32:30 AM 38 0.0 0.0 55 80 71.8 59.9 29.991 7.26 0.0 0 0.00 0.00 0.00 0.00
05/08/26 1:33:16 AM 38 0.0 0.0 55 80 71.7 59.9 29.995 7.26 0.0 0 0.00 0.00 0.00 0.00
05/08/26 1:34:29 AM 38 0.0 0.0 55 80 71.8 59.9 29.989 7.26 0.0 0 0.00 0.00 0.00 0.00
05/08/26 1:35:21 AM 38 0.0 0.0 55 80 71.8 59.8 29.989 7.26 0.0 0 0.00 0.00 0.00 0.00
05/08/26 1:36:34 AM 31 0.0 0.0 55 80 71.7 59.8 29.991 7.26 0.0 0 0.00 0.00 0.00 0.00
05/08/26 1:37:26 AM 36 0.0 0.0 55 80 71.7 59.8 29.988 7.26 0.0 0 0.00 0.00 0.00 0.00
05/08/26 1:38:33 AM 35 0.0 0.0 55 80 71.7 59.8 29.988 7.26 0.0 0 0.00 0.00 0.00 0.00
05/08/26 1:39:24 AM 34 0.0 0.0 55 80 71.7 59.7 29.988 7.26 0.0 0 0.00 0.00 0.00 0.00
05/08/26 1:40:16 AM 38 0.0 0.0 55 80 71.7 59.7 29.988 7.26 0.0 0 0.00 0.00 0.00 0.00
05/08/26 1:41:29 AM 35 0.0 0.0 55 80 71.7 59.6 29.988 7.26 0.0 0 0.00 0.00 0.00 0.00
05/08/26 1:42:21 AM 34 0.0 0.0 55 80 71.7 59.6 29.989 7.26 0.0 0 0.00 0.00 0.00 0.00
05/08/26 1:43:28 AM 36 0.0 0.0 55 80 71.7 59.6 29.988 7.26 0.0 0 0.00 0.00 0.00 0.00
05/08/26 1:44:20 AM 38 0.0 0.0 55 80 71.7 59.6 29.988 7.26 0.0 0 0.00 0.00 0.00 0.00
05/08/26 1:45:33 AM 32 0.0 0.0 55 80 71.7 59.5 29.988 7.26 0.0 0 0.00 0.00 0.00 0.00
05/08/26 1:46:25 AM 35 0.0 0.0 55 80 71.7 59.5 29.986 7.26 0.0 0 0.00 0.00 0.00 0.00
05/08/26 1:47:17 AM 38 0.0 0.0 55 80 71.7 59.5 29.988 7.26 0.0 0 0.00 0.00 0.00 0.00
05/08/26 1:48:30 AM 38 0.0 0.0 55 80 71.7 59.5 29.989 7.26 0.0 0 0.00 0.00 0.00 0.00
05/08/26 1:49:15 AM 38 0.0 0.0 55 80 71.7 59.5 29.988 7.26 0.0 0 0.00 0.00 0.00 0.00
05/08/26 1:50:28 AM 35 0.0 0.0 55 80 71.7 59.4 29.986 7.26 0.0 0 0.00 0.00 0.00 0.00
05/08/26 1:51:23 AM 35 0.0 0.0 55 80 71.7 59.4 29.985 7.26 0.0 0 0.00 0.00 0.00 0.00
05/08/26 1:52:33 AM 38 0.0 0.0 55 80 71.7 59.4 29.985 7.26 0.0 0 0.00 0.00 0.00 0.00
05/08/26 1:53:25 AM 35 0.0 0.0 55 80 71.7 59.4 29.984 7.26 0.0 0 0.00 0.00 0.00 0.00
05/08/26 1:54:35 AM 38 0.0 0.0 55 80 71.7 59.3 29.984 7.26 0.0 0 0.00 0.00 0.00 0.00
05/08/26 1:55:27 AM 36 0.0 0.0 55 81 71.6 59.3 29.987 7.26 0.0 0 0.00 0.00 0.00 0.00
05/08/26 1:56:19 AM 35 0.0 0.0 55 81 71.7 59.3 29.984 7.26 0.0 0 0.00 0.00 0.00 0.00
05/08/26 1:57:32 AM 34 0.0 0.0 55 81 71.6 59.3 29.984 7.26 0.0 0 0.00 0.00 0.00 0.00
05/08/26 1:58:23 AM 35 0.0 0.0 55 81 71.6 59.2 29.984 7.26 0.0 0 0.00 0.00 0.00 0.00
05/08/26 1:59:15 AM 38 0.0 0.0 55 81 71.6 59.2 29.985 7.26 0.0 0 0.00 0.00 0.00 0.00
05/08/26 2:00:46 AM 38 0.0 0.0 55 81 71.6 59.2 29.986 7.26 0.0 0 0.00 0.00 0.00 0.00
05/08/26 2:01:17 AM 32 0.0 2.0 55 81 71.6 59.1 29.984 7.26 0.0 0 0.00 0.00 0.00 0.00
05/08/26 2:02:30 AM 36 1.0 3.0 55 81 71.6 59.1 29.982 7.26 0.0 0 0.00 0.00 0.00 0.00
05/08/26 2:03:22 AM 37 0.0 3.0 55 81 71.6 59.1 29.983 7.26 0.0 0 0.00 0.00 0.00 0.00
05/08/26 2:04:35 AM 37 0.0 3.0 55 81 71.6 59.1 29.983 7.26 0.0 0 0.00 0.00 0.00 0.00
05/08/26 2:05:21 AM 36 0.0 3.0 55 81 71.6 59.1 29.982 7.26 0.0 0 0.00 0.00 0.00 0.00
05/08/26 2:06:34 AM 37 0.0 3.0 55 81 71.6 59.1 29.986 7.26 0.0 0 0.00 0.00 0.00 0.00
05/08/26 2:07:26 AM 36 0.0 3.0 55 81 71.5 59.1 29.984 7.26 0.0 0 0.00 0.00 0.00 0.00
05/08/26 2:08:17 AM 38 0.0 3.0 55 81 71.6 59.1 29.983 7.26 0.0 0 0.00 0.00 0.00 0.00
05/08/26 2:09:30 AM 35 0.0 3.0 55 82 71.6 59.1 29.983 7.26 0.0 0 0.00 0.00 0.00 0.00
05/08/26 2:10:22 AM 37 0.0 3.0 55 82 71.5 59.1 29.982 7.26 0.0 0 0.00 0.00 0.00 0.00
05/08/26 2:11:29 AM 38 0.0 3.0 55 82 71.5 59.0 29.981 7.26 0.0 0 0.00 0.00 0.00 0.00
05/08/26 2:12:21 AM 38 0.0 3.0 55 82 71.5 59.0 29.981 7.26 0.0 0 0.00 0.00 0.00 0.00
05/08/26 2:13:34 AM 36 0.0 3.0 55 82 71.5 59.0 29.981 7.26 0.0 0 0.00 0.00 0.00 0.00
05/08/26 2:14:29 AM 36 0.0 3.0 55 82 71.5 59.0 29.981 7.26 0.0 0 0.00 0.00 0.00 0.00
05/08/26 2:15:21 AM 38 0.0 3.0 55 82 71.5 59.0 29.981 7.26 0.0 0 0.00 0.00 0.00 0.00
05/08/26 2:16:28 AM 38 0.0 3.0 55 82 71.5 59.0 29.981 7.26 0.0 0 0.00 0.00 0.00 0.00
05/08/26 2:17:20 AM 36 0.0 3.0 55 82 71.5 59.0 29.982 7.26 0.0 0 0.00 0.00 0.00 0.00
05/08/26 2:18:33 AM 37 0.0 3.0 55 82 71.5 58.9 29.980 7.26 0.0 0 0.00 0.00 0.00 0.00
05/08/26 2:19:24 AM 32 0.0 3.0 55 82 71.5 58.9 29.980 7.26 0.0 0 0.00 0.00 0.00 0.00
05/08/26 2:20:16 AM 34 0.0 3.0 55 82 71.5 58.9 29.980 7.26 0.0 0 0.00 0.00 0.00 0.00
05/08/26 2:21:23 AM 38 0.0 3.0 55 82 71.5 58.9 29.982 7.26 0.0 0 0.00 0.00 0.00 0.00
05/08/26 2:22:33 AM 38 0.0 3.0 55 82 71.5 58.9 29.981 7.26 0.0 0 0.00 0.00 0.00 0.00
05/08/26 2:23:25 AM 35 0.0 3.0 55 82 71.5 58.8 29.982 7.26 0.0 0 0.00 0.00 0.00 0.00
05/08/26 2:24:17 AM 32 1.0 3.0 55 82 71.5 58.8 29.980 7.26 0.0 0 0.00 0.00 0.00 0.00
05/08/26 2:25:30 AM 38 0.0 3.0 55 82 71.4 58.8 29.980 7.26 0.0 0 0.00 0.00 0.00 0.00
05/08/26 2:26:22 AM 34 0.0 3.0 55 82 71.5 58.8 29.980 7.26 0.0 0 0.00 0.00 0.00 0.00
05/08/26 2:27:29 AM 38 0.0 3.0 55 82 71.5 58.8 29.979 7.26 0.0 0 0.00 0.00 0.00 0.00
05/08/26 2:28:21 AM 34 0.0 3.0 55 82 71.5 58.7 29.981 7.26 0.0 0 0.00 0.00 0.00 0.00
05/08/26 2:29:34 AM 38 0.0 3.0 55 82 71.5 58.7 29.980 7.26 0.0 0 0.00 0.00 0.00 0.00
05/08/26 2:30:29 AM 38 0.0 3.0 55 82 71.5 58.7 29.981 7.26 0.0 0 0.00 0.00 0.00 0.00
05/08/26 2:31:18 AM 34 0.0 3.0 55 82 71.5 58.7 29.979 7.26 0.0 0 0.00 0.00 0.00 0.00
05/08/26 2:32:28 AM 36 0.0 3.0 55 82 71.5 58.7 29.979 7.26 0.0 0 0.00 0.00 0.00 0.00
05/08/26 2:33:16 AM 38 0.0 3.0 55 82 71.5 58.7 29.980 7.26 0.0 0 0.00 0.00 0.00 0.00
05/08/26 2:34:32 AM 38 0.0 3.0 55 82 71.4 58.6 29.981 7.26 0.0 0 0.00 0.00 0.00 0.00
05/08/26 2:35:24 AM 36 0.0 3.0 55 82 71.5 58.6 29.979 7.26 0.0 0 0.00 0.00 0.00 0.00
05/08/26 2:36:34 AM 38 0.0 3.0 55 82 71.5 58.6 29.979 7.26 0.0 0 0.00 0.00 0.00 0.00
05/08/26 2:37:20 AM 38 1.0 3.0 55 82 71.5 58.6 29.980 7.26 0.0 0 0.00 0.00 0.00 0.00
05/08/26 2:38:33 AM 32 0.0 3.0 55 82 71.5 58.5 29.980 7.26 0.0 0 0.00 0.00 0.00 0.00
05/08/26 2:39:25 AM 36 1.0 3.0 55 82 71.5 58.5 29.981 7.26 0.0 0 0.00 0.00 0.00 0.00
05/08/26 2:40:17 AM 38 0.0 3.0 55 82 71.5 58.4 29.980 7.26 0.0 0 0.00 0.00 0.00 0.00
05/08/26 2:41:30 AM 37 0.0 3.0 55 82 71.4 58.4 29.980 7.26 0.0 0 0.00 0.00 0.00 0.00
05/08/26 2:42:19 AM 38 0.0 3.0 55 82 71.4 58.4 29.979 7.26 0.0 0 0.00 0.00 0.00 0.00
05/08/26 2:43:26 AM 38 0.0 3.0 55 82 71.4 58.3 29.980 7.26 0.0 0 0.00 0.00 0.00 0.00
05/08/26 2:44:21 AM 36 0.0 3.0 55 82 71.4 58.3 29.980 7.26 0.0 0 0.00 0.00 0.00 0.00
05/08/26 2:45:34 AM 36 0.0 3.0 55 83 71.4 58.2 29.978 7.26 0.0 0 0.00 0.00 0.00 0.00
05/08/26 2:46:23 AM 34 0.0 3.0 55 83 71.4 58.2 29.977 7.26 0.0 0 0.00 0.00 0.00 0.00
05/08/26 2:47:36 AM 36 0.0 3.0 55 83 71.4 58.2 29.979 7.26 0.0 0 0.00 0.00 0.00 0.00
05/08/26 2:48:24 AM 36 0.0 3.0 55 83 71.4 58.1 29.980 7.26 0.0 0 0.00 0.00 0.00 0.00
05/08/26 2:49:34 AM 38 0.0 3.0 55 83 71.4 58.1 29.977 7.26 0.0 0 0.00 0.00 0.00 0.00
05/08/26 2:50:26 AM 37 0.0 3.0 55 83 71.4 58.1 29.978 7.26 0.0 0 0.00 0.00 0.00 0.00
05/08/26 2:51:18 AM 38 0.0 3.0 55 83 71.4 58.1 29.979 7.26 0.0 0 0.00 0.00 0.00 0.00
05/08/26 2:52:31 AM 32 0.0 3.0 55 83 71.3 58.0 29.978 7.26 0.0 0 0.00 0.00 0.00 0.00
05/08/26 2:53:20 AM 35 0.0 3.0 55 83 71.3 58.0 29.979 7.26 0.0 0 0.00 0.00 0.00 0.00
05/08/26 2:54:30 AM 38 0.0 3.0 55 83 71.4 58.0 29.978 7.26 0.0 0 0.00 0.00 0.00 0.00
05/08/26 2:55:25 AM 38 0.0 3.0 55 83 71.3 58.0 29.978 7.26 0.0 0 0.00 0.00 0.00 0.00
05/08/26 2:56:35 AM 36 0.0 3.0 55 83 71.3 57.9 29.979 7.26 0.0 0 0.00 0.00 0.00 0.00
05/08/26 2:57:27 AM 35 0.0 3.0 55 83 71.3 57.9 29.979 7.26 0.0 0 0.00 0.00 0.00 0.00
05/08/26 2:58:19 AM 34 0.0 3.0 55 83 71.3 57.9 29.978 7.26 0.0 0 0.00 0.00 0.00 0.00
05/08/26 2:59:29 AM 32 0.0 3.0 55 83 71.3 57.8 29.979 7.26 0.0 0 0.00 0.00 0.00 0.00
05/08/26 3:00:21 AM 38 0.0 3.0 55 83 71.3 57.9 29.980 7.26 0.0 0 0.00 0.00 0.00 0.00
05/08/26 3:01:34 AM 38 0.0 3.0 55 83 71.3 57.8 29.978 7.26 0.0 0 0.00 0.00 0.00 0.00
05/08/26 3:02:25 AM 38 0.0 3.0 55 83 71.3 57.8 29.978 7.26 0.0 0 0.00 0.00 0.00 0.00
05/08/26 3:03:17 AM 38 0.0 3.0 55 83 71.3 57.8 29.980 7.26 0.0 0 0.00 0.00 0.00 0.00
05/08/26 3:04:24 AM 35 0.0 3.0 55 83 71.3 57.8 29.980 7.26 0.0 0 0.00 0.00 0.00 0.00
05/08/26 3:05:19 AM 35 0.0 3.0 55 83 71.3 57.8 29.977 7.26 0.0 0 0.00 0.00 0.00 0.00
05/08/26 3:06:29 AM 38 0.0 3.0 55 83 71.3 57.7 29.977 7.26 0.0 0 0.00 0.00 0.00 0.00
05/08/26 3:07:21 AM 38 0.0 3.0 55 83 71.3 57.7 29.978 7.26 0.0 0 0.00 0.00 0.00 0.00
05/08/26 3:08:34 AM 36 0.0 3.0 55 83 71.3 57.7 29.977 7.26 0.0 0 0.00 0.00 0.00 0.00
05/08/26 3:09:20 AM 35 0.0 3.0 55 83 71.3 57.7 29.977 7.26 0.0 0 0.00 0.00 0.00 0.00
05/08/26 3:10:33 AM 38 0.0 3.0 55 83 71.3 57.7 29.978 7.26 0.0 0 0.00 0.00 0.00 0.00
05/08/26 3:11:25 AM 32 0.0 3.0 55 84 71.3 57.6 29.978 7.26 0.0 0 0.00 0.00 0.00 0.00
05/08/26 3:12:35 AM 39 0.0 3.0 55 84 71.3 57.6 29.976 7.26 0.0 0 0.00 0.00 0.00 0.00
05/08/26 3:13:30 AM 38 0.0 3.0 55 84 71.3 57.6 29.979 7.26 0.0 0 0.00 0.00 0.00 0.00
05/08/26 3:14:22 AM 38 0.0 3.0 55 84 71.3 57.6 29.978 7.26 0.0 0 0.00 0.00 0.00 0.00
05/08/26 3:15:32 AM 36 0.0 3.0 55 84 71.3 57.6 29.978 7.26 0.0 0 0.00 0.00 0.00 0.00
05/08/26 3:16:23 AM 34 0.0 3.0 55 84 71.3 57.6 29.979 7.26 0.0 0 0.00 0.00 0.00 0.00
05/08/26 3:17:36 AM 35 0.0 3.0 55 84 71.3 57.5 29.980 7.26 0.0 0 0.00 0.00 0.00 0.00
05/08/26 3:18:25 AM 38 0.0 3.0 55 84 71.3 57.5 29.979 7.26 0.0 0 0.00 0.00 0.00 0.00
05/08/26 3:19:20 AM 38 0.0 3.0 55 84 71.3 57.5 29.978 7.26 0.0 0 0.00 0.00 0.00 0.00
05/08/26 3:20:27 AM 38 0.0 3.0 55 84 71.3 57.5 29.979 7.26 0.0 0 0.00 0.00 0.00 0.00
05/08/26 3:21:19 AM 35 0.0 3.0 55 84 71.3 57.5 29.978 7.26 0.0 0 0.00 0.00 0.00 0.00
05/08/26 3:22:29 AM 38 0.0 3.0 55 84 71.3 57.4 29.977 7.26 0.0 0 0.00 0.00 0.00 0.00
05/08/26 3:23:21 AM 38 0.0 3.0 55 84 71.3 57.4 29.978 7.26 0.0 0 0.00 0.00 0.00 0.00
05/08/26 3:24:34 AM 35 0.0 3.0 55 84 71.3 57.4 29.980 7.26 0.0 0 0.00 0.00 0.00 0.00
05/08/26 3:25:23 AM 38 0.0 3.0 55 84 71.3 57.4 29.979 7.26 0.0 0 0.00 0.00 0.00 0.00
05/08/26 3:26:36 AM 38 0.0 3.0 55 84 71.3 57.3 29.978 7.26 0.0 0 0.00 0.00 0.00 0.00
05/08/26 3:27:28 AM 36 0.0 3.0 55 84 71.3 57.3 29.979 7.26 0.0 0 0.00 0.00 0.00 0.00
05/08/26 3:28:20 AM 38 0.0 3.0 55 84 71.3 57.3 29.979 7.26 0.0 0 0.00 0.00 0.00 0.00
05/08/26 3:29:30 AM 38 0.0 3.0 55 84 71.3 57.3 29.975 7.26 0.0 0 0.00 0.00 0.00 0.00
05/08/26 3:30:22 AM 35 0.0 3.0 55 84 71.3 57.2 29.977 7.26 0.0 0 0.00 0.00 0.00 0.00
05/08/26 3:31:28 AM 36 0.0 3.0 55 84 71.2 57.2 29.975 7.26 0.0 0 0.00 0.00 0.00 0.00
05/08/26 3:32:23 AM 34 0.0 3.0 55 84 71.3 57.2 29.976 7.26 0.0 0 0.00 0.00 0.00 0.00
05/08/26 3:33:33 AM 38 0.0 3.0 55 84 71.2 57.2 29.977 7.26 0.0 0 0.00 0.00 0.00 0.00
05/08/26 3:34:25 AM 32 0.0 3.0 55 84 71.2 57.2 29.976 7.26 0.0 0 0.00 0.00 0.00 0.00
05/08/26 3:35:17 AM 32 0.0 3.0 55 84 71.2 57.2 29.976 7.26 0.0 0 0.00 0.00 0.00 0.00
05/08/26 3:36:24 AM 36 0.0 3.0 55 84 71.2 57.2 29.976 7.26 0.0 0 0.00 0.00 0.00 0.00
05/08/26 3:37:16 AM 38 0.0 3.0 55 84 71.2 57.2 29.977 7.26 0.0 0 0.00 0.00 0.00 0.00
05/08/26 3:38:26 AM 38 0.0 3.0 55 84 71.2 57.2 29.977 7.26 0.0 0 0.00 0.00 0.00 0.00
05/08/26 3:39:21 AM 36 0.0 3.0 55 84 71.2 57.1 29.977 7.26 0.0 0 0.00 0.00 0.00 0.00
05/08/26 3:40:31 AM 35 0.0 3.0 55 84 71.2 57.1 29.977 7.26 0.0 0 0.00 0.00 0.00 0.00
05/08/26 3:41:20 AM 34 0.0 3.0 55 84 71.2 57.1 29.976 7.26 0.0 0 0.00 0.00 0.00 0.00
05/08/26 3:42:33 AM 38 0.0 3.0 55 84 71.2 57.1 29.976 7.26 0.0 0 0.00 0.00 0.00 0.00
05/08/26 3:43:25 AM 35 0.0 3.0 55 84 71.2 57.0 29.977 7.26 0.0 0 0.00 0.00 0.00 0.00
05/08/26 3:44:35 AM 38 0.0 3.0 55 84 71.1 57.0 29.977 7.26 0.0 0 0.00 0.00 0.00 0.00
05/08/26 3:45:30 AM 32 0.0 3.0 55 84 71.2 57.0 29.976 7.26 0.0 0 0.00 0.00 0.00 0.00
05/08/26 3:46:22 AM 38 0.0 3.0 55 84 71.1 57.0 29.977 7.26 0.0 0 0.00 0.00 0.00 0.00
05/08/26 3:47:29 AM 34 0.0 3.0 55 85 71.1 57.0 29.978 7.26 0.0 0 0.00 0.00 0.00 0.00
05/08/26 3:48:21 AM 35 0.0 3.0 55 85 71.2 57.0 29.977 7.26 0.0 0 0.00 0.00 0.00 0.00
05/08/26 3:49:33 AM 38 0.0 3.0 55 85 71.1 57.0 29.977 7.26 0.0 0 0.00 0.00 0.00 0.00
05/08/26 3:50:25 AM 38 0.0 3.0 55 85 71.1 56.9 29.974 7.26 0.0 0 0.00 0.00 0.00 0.00
05/08/26 3:51:35 AM 36 0.0 3.0 55 85 71.1 56.9 29.976 7.26 0.0 0 0.00 0.00 0.00 0.00
05/08/26 3:52:24 AM 35 0.0 3.0 55 85 71.1 56.9 29.977 7.26 0.0 0 0.00 0.00 0.00 0.00
05/08/26 3:53:37 AM 32 0.0 3.0 55 84 71.1 56.9 29.974 7.26 0.0 0 0.00 0.00 0.00 0.00
05/08/26 3:54:29 AM 38 0.0 3.0 55 85 71.1 56.9 29.975 7.26 0.0 0 0.00 0.00 0.00 0.00
05/08/26 3:55:21 AM 36 0.0 3.0 55 84 71.1 56.8 29.976 7.26 0.0 0 0.00 0.00 0.00 0.00
05/08/26 3:56:31 AM 36 0.0 3.0 55 84 71.1 56.8 29.975 7.26 0.0 0 0.00 0.00 0.00 0.00
05/08/26 3:57:20 AM 38 0.0 3.0 55 84 71.1 56.8 29.976 7.26 0.0 0 0.00 0.00 0.00 0.00
05/08/26 3:58:30 AM 36 0.0 3.0 55 85 71.1 56.7 29.976 7.26 0.0 0 0.00 0.00 0.00 0.00
05/08/26 3:59:22 AM 35 0.0 3.0 55 85 71.1 56.7 29.977 7.26 0.0 0 0.00 0.00 0.00 0.00
05/08/26 4:00:38 AM 34 0.0 3.0 55 85 71.1 56.7 29.977 7.26 0.0 0 0.00 0.00 0.00 0.00
05/08/26 4:01:30 AM 38 0.0 3.0 55 85 71.1 56.6 29.976 7.26 0.0 0 0.00 0.00 0.00 0.00
05/08/26 4:02:22 AM 38 0.0 3.0 55 85 71.1 56.6 29.979 7.26 0.0 0 0.00 0.00 0.00 0.00
05/08/26 4:03:29 AM 38 0.0 3.0 55 85 71.1 56.6 29.975 7.26 0.0 0 0.00 0.00 0.00 0.00
05/08/26 4:04:21 AM 36 0.0 3.0 55 85 71.1 56.6 29.976 7.26 0.0 0 0.00 0.00 0.00 0.00
05/08/26 4:05:34 AM 32 0.0 3.0 55 85 71.0 56.6 29.975 7.26 0.0 0 0.00 0.00 0.00 0.00
05/08/26 4:06:26 AM 38 0.0 3.0 55 85 71.0 56.5 29.974 7.26 0.0 0 0.00 0.00 0.00 0.00
05/08/26 4:07:18 AM 35 0.0 3.0 55 85 71.1 56.6 29.974 7.26 0.0 0 0.00 0.00 0.00 0.00
05/08/26 4:08:28 AM 38 0.0 3.0 55 85 71.0 56.6 29.974 7.26 0.0 0 0.00 0.00 0.00 0.00
05/08/26 4:09:16 AM 35 0.0 3.0 55 85 71.0 56.6 29.978 7.26 0.0 0 0.00 0.00 0.00 0.00
05/08/26 4:10:30 AM 31 0.0 3.0 55 85 71.0 56.6 29.974 7.26 0.0 0 0.00 0.00 0.00 0.00
05/08/26 4:11:21 AM 38 0.0 3.0 55 85 71.0 56.5 29.974 7.26 0.0 0 0.00 0.00 0.00 0.00
05/08/26 4:12:32 AM 38 0.0 3.0 55 85 71.0 56.5 29.976 7.26 0.0 0 0.00 0.00 0.00 0.00
05/08/26 4:13:20 AM 36 0.0 3.0 55 85 71.0 56.5 29.975 7.26 0.0 0 0.00 0.00 0.00 0.00
05/08/26 4:14:33 AM 35 0.0 3.0 55 85 71.0 56.4 29.977 7.26 0.0 0 0.00 0.00 0.00 0.00
05/08/26 4:15:49 AM 38 0.0 3.0 55 85 71.0 56.4 29.975 7.26 0.0 0 0.00 0.00 0.00 0.00
05/08/26 4:16:20 AM 35 0.0 3.0 55 85 71.0 56.4 29.978 7.26 0.0 0 0.00 0.00 0.00 0.00
05/08/26 4:17:33 AM 36 0.0 3.0 55 85 71.0 56.4 29.978 7.26 0.0 0 0.00 0.00 0.00 0.00
05/08/26 4:18:25 AM 38 0.0 3.0 55 85 71.0 56.4 29.978 7.26 0.0 0 0.00 0.00 0.00 0.00
05/08/26 4:19:32 AM 36 0.0 3.0 55 85 71.0 56.3 29.977 7.26 0.0 0 0.00 0.00 0.00 0.00
05/08/26 4:20:24 AM 38 0.0 3.0 55 85 71.0 56.3 29.976 7.26 0.0 0 0.00 0.00 0.00 0.00
05/08/26 4:21:16 AM 35 0.0 3.0 55 85 71.0 56.3 29.977 7.26 0.0 0 0.00 0.00 0.00 0.00
05/08/26 4:22:26 AM 36 0.0 3.0 55 85 71.0 56.3 29.977 7.26 0.0 0 0.00 0.00 0.00 0.00
05/08/26 4:23:18 AM 38 0.0 3.0 55 85 71.0 56.3 29.978 7.26 0.0 0 0.00 0.00 0.00 0.00
05/08/26 4:24:28 AM 38 0.0 3.0 55 85 71.0 56.3 29.974 7.26 0.0 0 0.00 0.00 0.00 0.00
05/08/26 4:25:20 AM 35 0.0 3.0 55 85 71.0 56.3 29.978 7.26 0.0 0 0.00 0.00 0.00 0.00
05/08/26 4:26:33 AM 38 0.0 3.0 55 85 71.0 56.3 29.978 7.26 0.0 0 0.00 0.00 0.00 0.00
05/08/26 4:27:25 AM 36 0.0 3.0 55 85 70.9 56.3 29.975 7.26 0.0 0 0.00 0.00 0.00 0.00
05/08/26 4:28:17 AM 38 0.0 3.0 55 85 70.9 56.3 29.977 7.26 0.0 0 0.00 0.00 0.00 0.00
05/08/26 4:29:30 AM 36 0.0 3.0 55 85 71.0 56.2 29.978 7.26 0.0 0 0.00 0.00 0.00 0.00
05/08/26 4:30:19 AM 38 0.0 3.0 55 85 70.9 56.2 29.977 7.26 0.0 0 0.00 0.00 0.00 0.00
05/08/26 4:31:29 AM 39 0.0 3.0 55 85 70.9 56.2 29.977 7.26 0.0 0 0.00 0.00 0.00 0.00
05/08/26 4:32:21 AM 38 0.0 3.0 55 86 70.9 56.2 29.978 7.26 0.0 0 0.00 0.00 0.00 0.00
05/08/26 4:33:34 AM 36 0.0 3.0 55 86 70.9 56.2 29.979 7.26 0.0 0 0.00 0.00 0.00 0.00
05/08/26 4:34:26 AM 32 0.0 3.0 55 86 70.9 56.2 29.978 7.26 0.0 0 0.00 0.00 0.00 0.00
05/08/26 4:35:33 AM 34 0.0 3.0 55 86 70.9 56.2 29.977 7.26 0.0 0 0.00 0.00 0.00 0.00
05/08/26 4:36:27 AM 38 0.0 3.0 55 86 70.9 56.2 29.979 7.26 0.0 0 0.00 0.00 0.00 0.00
05/08/26 4:37:19 AM 36 0.0 3.0 55 86 70.9 56.2 29.979 7.26 0.0 0 0.00 0.00 0.00 0.00
05/08/26 4:38:30 AM 38 0.0 3.0 55 86 70.9 56.2 29.979 7.26 0.0 0 0.00 0.00 0.00 0.00
05/08/26 4:39:24 AM 36 0.0 3.0 55 86 70.8 56.2 29.976 7.26 0.0 0 0.00 0.00 0.00 0.00
05/08/26 4:40:31 AM 38 0.0 3.0 55 86 70.9 56.1 29.977 7.26 0.0 0 0.00 0.00 0.00 0.00
05/08/26 4:41:23 AM 38 0.0 3.0 55 86 70.8 56.2 29.979 7.26 0.0 0 0.00 0.00 0.00 0.00
05/08/26 4:42:36 AM 38 0.0 3.0 55 86 70.8 56.1 29.978 7.26 0.0 0 0.00 0.00 0.00 0.00
05/08/26 4:43:28 AM 35 0.0 3.0 55 86 70.8 56.1 29.979 7.26 0.0 0 0.00 0.00 0.00 0.00
05/08/26 4:44:20 AM 38 0.0 3.0 55 86 70.8 56.1 29.978 7.26 0.0 0 0.00 0.00 0.00 0.00
05/08/26 4:45:33 AM 35 0.0 3.0 55 86 70.8 56.1 29.979 7.26 0.0 0 0.00 0.00 0.00 0.00
05/08/26 4:46:19 AM 36 0.0 3.0 55 86 70.8 56.1 29.979 7.26 0.0 0 0.00 0.00 0.00 0.00
05/08/26 4:47:32 AM 34 0.0 3.0 55 86 70.8 56.1 29.979 7.26 0.0 0 0.00 0.00 0.00 0.00
05/08/26 4:48:24 AM 38 0.0 3.0 55 86 70.8 56.1 29.981 7.26 0.0 0 0.00 0.00 0.00 0.00
05/08/26 4:49:34 AM 35 0.0 3.0 55 86 70.8 56.1 29.981 7.26 0.0 0 0.00 0.00 0.00 0.00
05/08/26 4:50:26 AM 36 0.0 3.0 55 86 70.8 56.0 29.981 7.26 0.0 0 0.00 0.00 0.00 0.00
05/08/26 4:51:33 AM 36 0.0 3.0 55 86 70.8 56.0 29.981 7.26 0.0 0 0.00 0.00 0.00 0.00
05/08/26 4:52:28 AM 36 0.0 3.0 55 86 70.8 56.0 29.983 7.26 0.0 0 0.00 0.00 0.00 0.00
05/08/26 4:53:20 AM 34 0.0 3.0 55 86 70.8 56.0 29.984 7.26 0.0 0 0.00 0.00 0.00 0.00
05/08/26 4:54:30 AM 35 0.0 3.0 55 86 70.8 56.0 29.984 7.26 0.0 0 0.00 0.00 0.00 0.00
05/08/26 4:55:25 AM 38 0.0 3.0 55 86 70.8 56.0 29.983 7.26 0.0 0 0.00 0.00 0.00 0.00
05/08/26 4:56:32 AM 38 0.0 3.0 55 86 70.8 56.0 29.983 7.26 0.0 0 0.00 0.00 0.00 0.00
05/08/26 4:57:23 AM 32 0.0 3.0 55 86 70.8 55.9 29.983 7.26 0.0 0 0.00 0.00 0.00 0.00
05/08/26 4:58:34 AM 36 0.0 3.0 55 86 70.8 55.9 29.983 7.26 0.0 0 0.00 0.00 0.00 0.00
05/08/26 4:59:25 AM 36 0.0 3.0 55 86 70.8 55.9 29.985 7.26 0.0 0 0.00 0.00 0.00 0.00
05/08/26 5:00:20 AM 35 0.0 3.0 55 86 70.8 55.9 29.983 7.26 0.0 0 0.00 0.00 0.00 0.00
05/08/26 5:01:30 AM 36 0.0 3.0 55 86 70.8 55.8 29.983 7.26 0.0 0 0.00 0.00 0.00 0.00
05/08/26 5:02:16 AM 35 0.0 3.0 55 86 70.8 55.8 29.984 7.26 0.0 0 0.00 0.00 0.00 0.00
05/08/26 5:03:29 AM 36 0.0 3.0 55 86 70.8 55.8 29.984 7.26 0.0 0 0.00 0.00 0.00 0.00
05/08/26 5:04:21 AM 36 0.0 3.0 55 86 70.8 55.8 29.983 7.26 0.0 0 0.00 0.00 0.00 0.00
05/08/26 5:05:34 AM 38 0.0 3.0 55 86 70.7 55.8 29.982 7.26 0.0 0 0.00 0.00 0.00 0.00
05/08/26 5:06:26 AM 34 0.0 3.0 55 86 70.6 55.7 29.983 7.26 0.0 0 0.00 0.00 0.00 0.00
05/08/26 5:07:33 AM 34 0.0 3.0 55 86 70.6 55.7 29.985 7.26 0.0 0 0.00 0.00 0.00 0.00
05/08/26 5:08:25 AM 38 0.0 3.0 55 86 70.5 55.7 29.984 7.26 0.0 0 0.00 0.00 0.00 0.00
05/08/26 5:09:35 AM 38 0.0 3.0 55 86 70.3 55.7 29.982 7.26 0.0 0 0.00 0.00 0.00 0.00
05/08/26 5:10:27 AM 38 0.0 3.0 55 86 70.2 55.7 29.984 7.26 0.0 0 0.00 0.00 0.00 0.00
05/08/26 5:11:19 AM 36 0.0 3.0 55 86 70.1 55.7 29.984 7.26 0.0 0 0.00 0.00 0.00 0.00
05/08/26 5:12:29 AM 38 0.0 3.0 55 86 70.0 55.6 29.982 7.26 0.0 0 0.00 0.00 0.00 0.00
05/08/26 5:13:21 AM 38 0.0 3.0 55 86 69.9 55.6 29.982 7.26 0.0 0 0.00 0.00 0.00 0.00
05/08/26 5:14:31 AM 39 0.0 3.0 55 86 69.7 55.6 29.984 7.26 0.0 0 0.00 0.00 0.00 0.00
05/08/26 5:15:26 AM 36 0.0 3.0 55 86 69.7 55.5 29.982 7.26 0.0 0 0.00 0.00 0.00 0.00
05/08/26 5:16:18 AM 36 0.0 3.0 55 86 69.6 55.6 29.983 7.26 0.0 0 0.00 0.00 0.00 0.00
05/08/26 5:17:28 AM 32 0.0 3.0 55 86 69.4 55.5 29.985 7.26 0.0 0 0.00 0.00 0.00 0.00
05/08/26 5:18:17 AM 38 0.0 3.0 55 86 69.4 55.5 29.984 7.26 0.0 0 0.00 0.00 0.00 0.00
05/08/26 5:19:27 AM 38 0.0 3.0 55 86 69.2 55.5 29.984 7.26 0.0 0 0.00 0.00 0.00 0.00
05/08/26 5:20:19 AM 38 0.0 3.0 55 86 69.1 55.5 29.984 7.26 0.0 0 0.00 0.00 0.00 0.00
05/08/26 5:21:32 AM 35 0.0 3.0 55 86 69.0 55.5 29.983 7.26 0.0 0 0.00 0.00 0.00 0.00
05/08/26 5:22:24 AM 36 0.0 3.0 56 86 68.9 55.4 29.983 7.26 0.0 0 0.00 0.00 0.00 0.00
05/08/26 5:23:31 AM 32 0.0 3.0 56 86 68.9 55.4 29.982 7.26 0.0 0 0.00 0.00 0.00 0.00
05/08/26 5:24:23 AM 38 0.0 3.0 56 86 68.7 55.4 29.985 7.26 0.0 0 0.00 0.00 0.00 0.00
05/08/26 5:25:36 AM 35 0.0 3.0 56 86 68.7 55.4 29.987 7.26 0.0 0 0.00 0.00 0.00 0.00
05/08/26 5:26:28 AM 36 0.0 3.0 56 86 68.6 55.4 29.988 7.26 0.0 0 0.00 0.00 0.00 0.00
05/08/26 5:27:20 AM 38 0.0 3.0 56 86 68.5 55.4 29.987 7.26 0.0 0 0.00 0.00 0.00 0.00
05/08/26 5:28:27 AM 31 0.0 3.0 57 87 68.4 55.3 29.988 7.26 0.0 0 0.00 0.00 0.00 0.00
05/08/26 5:29:19 AM 36 0.0 3.0 57 87 68.3 55.3 29.988 7.26 0.0 0 0.00 0.00 0.00 0.00
05/08/26 5:30:32 AM 35 0.0 3.0 57 87 68.3 55.4 29.991 7.26 0.0 0 0.00 0.00 0.00 0.00
05/08/26 5:31:24 AM 38 0.0 3.0 57 87 68.2 55.4 29.989 7.26 0.0 0 0.00 0.00 0.00 0.00
05/08/26 5:32:16 AM 35 0.0 3.0 57 87 68.2 55.4 29.990 7.26 0.0 0 0.00 0.00 0.00 0.00
05/08/26 5:33:29 AM 38 0.0 3.0 57 87 68.1 55.3 29.990 7.26 0.0 0 0.00 0.00 0.00 0.00
05/08/26 5:34:36 AM 36 0.0 3.0 57 87 68.1 55.3 29.988 7.26 0.0 0 0.00 0.00 0.00 0.00
05/08/26 5:35:28 AM 38 0.0 3.0 58 87 68.0 55.3 29.991 7.26 0.0 0 0.00 0.00 0.00 0.00
05/08/26 5:36:20 AM 38 0.0 3.0 58 87 67.9 55.3 29.991 7.26 0.0 0 0.00 0.00 0.00 0.00
05/08/26 5:37:33 AM 35 0.0 3.0 58 87 67.8 55.3 29.990 7.26 0.0 0 0.00 0.00 0.00 0.00
05/08/26 5:38:22 AM 38 0.0 3.0 58 87 67.8 55.3 29.992 7.26 0.0 0 0.00 0.00 0.00 0.00
05/08/26 5:39:32 AM 38 0.0 3.0 58 87 67.7 55.3 29.991 7.26 0.0 0 0.00 0.00 0.00 0.00
05/08/26 5:40:25 AM 38 0.0 3.0 58 87 67.7 55.3 29.992 7.26 0.0 0 0.00 0.00 0.00 0.00
05/08/26 5:41:35 AM 36 0.0 3.0 58 87 67.6 55.3 29.994 7.26 0.0 0 0.00 0.00 0.00 0.00
05/08/26 5:42:30 AM 35 0.0 3.0 58 87 67.6 55.3 29.991 7.26 0.0 0 0.00 0.00 0.00 0.00
05/08/26 5:43:19 AM 36 0.0 3.0 58 87 67.6 55.3 29.991 7.26 0.0 0 0.00 0.00 0.00 0.00
05/08/26 5:44:29 AM 36 0.0 3.0 58 87 67.5 55.3 29.990 7.26 0.0 0 0.00 0.00 0.00 0.00
05/08/26 5:45:21 AM 35 0.0 3.0 58 87 67.5 55.3 29.992 7.26 0.0 0 0.00 0.00 0.00 0.00
05/08/26 5:46:34 AM 35 0.0 3.0 58 87 67.4 55.3 29.991 7.26 0.0 0 0.00 0.00 0.00 0.00
05/08/26 5:47:26 AM 32 0.0 3.0 58 87 67.4 55.3 29.991 7.26 0.0 0 0.00 0.00 0.00 0.00
05/08/26 5:48:18 AM 38 0.0 3.0 58 87 67.3 55.3 29.991 7.26 0.0 0 0.00 0.00 0.00 0.00
05/08/26 5:49:30 AM 36 0.0 3.0 58 87 67.2 55.3 29.992 7.26 0.0 0 0.00 0.00 0.00 0.00
05/08/26 5:50:20 AM 36 0.0 3.0 58 87 67.2 55.3 29.992 7.26 0.0 0 0.00 0.00 0.00 0.00
05/08/26 5:51:30 AM 31 0.0 3.0 58 87 67.2 55.3 29.990 7.26 0.0 0 0.00 0.00 0.00 0.00
05/08/26 5:52:21 AM 31 0.0 3.0 59 87 67.1 55.3 29.990 7.26 0.0 0 0.00 0.00 0.00 0.00
05/08/26 5:53:35 AM 31 0.0 3.0 59 87 67.1 55.2 29.990 7.26 0.0 0 0.00 0.00 0.00 0.00
05/08/26 5:54:26 AM 34 0.0 3.0 59 87 67.1 55.2 29.991 7.26 0.0 0 0.00 0.00 0.00 0.00
05/08/26 5:55:37 AM 36 0.0 3.0 59 87 66.9 55.2 29.990 7.26 0.0 0 0.00 0.00 0.00 0.00
05/08/26 5:56:28 AM 36 0.0 3.0 59 87 66.8 55.2 29.990 7.26 0.0 5 0.00 0.00 0.00 0.00
05/08/26 5:57:20 AM 36 0.0 3.0 59 87 66.8 55.2 29.991 7.26 0.0 5 0.00 0.00 0.00 0.00
05/08/26 5:58:33 AM 35 0.0 3.0 59 87 66.8 55.1 29.991 7.26 0.0 5 0.00 0.00 0.00 0.00
05/08/26 5:59:22 AM 32 0.0 3.0 59 87 66.8 55.1 29.993 7.26 0.0 5 0.00 0.00 0.00 0.00
05/08/26 6:00:33 AM 38 0.0 3.0 59 87 66.7 55.1 29.991 7.26 0.0 5 0.00 0.00 0.00 0.00
05/08/26 6:01:25 AM 35 0.0 3.0 59 87 66.7 55.1 29.996 7.26 0.0 5 0.00 0.00 0.00 0.00
05/08/26 6:02:16 AM 39 0.0 3.0 59 87 66.6 55.1 29.999 7.26 0.0 7 0.00 0.00 0.00 0.00
05/08/26 6:03:29 AM 31 0.0 3.0 59 87 66.6 55.1 29.998 7.26 0.0 7 0.00 0.00 0.00 0.00
05/08/26 6:04:21 AM 35 0.0 3.0 59 87 66.5 55.0 29.999 7.26 0.0 7 0.00 0.00 0.00 0.00
05/08/26 6:05:34 AM 31 0.0 3.0 59 87 66.5 55.0 30.000 7.26 0.0 7 0.00 0.00 0.00 0.00
05/08/26 6:06:23 AM 35 0.0 3.0 60 87 66.5 55.0 30.003 7.26 0.0 7 0.00 0.00 0.00 0.00
05/08/26 6:07:34 AM 36 0.0 3.0 60 87 66.5 55.0 30.003 7.26 0.0 9 0.00 0.00 0.00 0.00
05/08/26 6:08:25 AM 35 0.0 3.0 60 87 66.4 55.0 30.002 7.26 0.0 9 0.00 0.00 0.00 0.00
05/08/26 6:09:17 AM 36 0.0 3.0 60 87 66.3 54.9 30.005 7.26 0.0 9 0.00 0.00 0.00 0.00
05/08/26 6:10:30 AM 35 0.0 3.0 60 87 66.3 54.9 30.003 7.26 0.0 11 0.00 0.00 0.00 0.00
05/08/26 6:11:16 AM 38 0.0 3.0 60 87 66.3 54.9 30.004 7.26 0.0 11 0.00 0.00 0.00 0.00
05/08/26 6:12:29 AM 31 0.0 3.0 60 87 66.3 54.8 30.004 7.26 0.0 12 0.00 0.00 0.00 0.00
05/08/26 6:13:21 AM 32 0.0 3.0 60 87 66.3 54.8 30.005 7.26 0.0 12 0.00 0.00 0.00 0.00
05/08/26 6:14:35 AM 36 0.0 3.0 60 87 66.3 54.8 30.003 7.26 0.0 12 0.00 0.00 0.00 0.00
05/08/26 6:15:26 AM 38 0.0 3.0 60 87 66.2 54.8 30.005 7.26 0.0 14 0.00 0.00 0.00 0.00
05/08/26 6:16:18 AM 30 0.0 3.0 60 87 66.2 54.8 30.006 7.26 0.0 16 0.00 0.00 0.00 0.00
05/08/26 6:17:25 AM 36 0.0 3.0 60 87 66.2 54.7 30.004 7.26 0.0 16 0.00 0.00 0.00 0.00
05/08/26 6:18:17 AM 35 0.0 3.0 60 87 66.2 54.7 30.004 7.26 0.0 16 0.00 0.00 0.00 0.00
05/08/26 6:19:30 AM 36 0.0 3.0 60 87 66.2 54.7 30.004 7.26 0.0 19 0.00 0.00 0.00 0.00
05/08/26 6:20:19 AM 38 0.0 3.0 60 87 66.1 54.7 30.003 7.26 0.0 19 0.00 0.00 0.00 0.00
05/08/26 6:21:32 AM 34 0.0 3.0 60 87 66.1 54.7 30.004 7.26 0.0 21 0.00 0.00 0.00 0.00
05/08/26 6:22:21 AM 38 0.0 3.0 60 87 66.0 54.6 30.004 7.26 0.0 23 0.00 0.00 0.00 0.00
05/08/26 6:23:31 AM 36 0.0 3.0 60 87 66.0 54.6 30.004 7.26 0.0 23 0.00 0.00 0.00 0.00
05/08/26 6:24:23 AM 31 0.0 3.0 60 87 66.0 54.6 30.000 7.26 0.0 25 0.00 0.00 0.00 0.00
05/08/26 6:25:36 AM 35 0.0 3.0 60 87 65.9 54.6 30.004 7.26 0.0 32 0.00 0.00 0.00 0.00
05/08/26 6:26:28 AM 32 0.0 3.0 60 87 65.9 54.6 30.004 7.26 0.0 33 0.00 0.00 0.00 0.00
05/08/26 6:27:17 AM 35 0.0 3.0 60 87 65.9 54.6 30.004 7.26 0.0 33 0.00 0.00 0.00 0.00
05/08/26 6:28:27 AM 38 0.0 3.0 60 87 65.9 54.6 30.004 7.26 0.0 35 0.00 0.00 0.00 0.00
05/08/26 6:29:23 AM 38 0.0 3.0 60 87 65.8 54.5 30.004 7.26 0.0 35 0.00 0.00 0.00 0.00
05/08/26 6:30:36 AM 36 0.0 3.0 60 87 65.8 54.6 30.004 7.26 0.0 39 0.00 0.00 0.00 0.00
05/08/26 6:31:28 AM 36 0.0 3.0 61 87 65.8 54.5 30.004 7.26 0.0 39 0.00 0.00 0.00 0.00
05/08/26 6:32:17 AM 38 0.0 3.0 61 87 65.7 54.5 30.003 7.26 0.0 42 0.00 0.00 0.00 0.00
05/08/26 6:33:27 AM 35 0.0 3.0 61 88 65.7 54.5 30.001 7.26 0.0 44 0.00 0.00 0.00 0.00
05/08/26 6:34:19 AM 38 0.0 3.0 61 88 65.7 54.5 30.001 7.26 0.0 44 0.00 0.00 0.00 0.00
05/08/26 6:35:32 AM 36 0.0 3.0 61 88 65.7 54.5 30.001 7.26 0.0 46 0.00 0.00 0.00 0.00
05/08/26 6:36:24 AM 31 0.0 3.0 61 88 65.7 54.6 30.000 7.26 0.0 47 0.00 0.00 0.00 0.00
05/08/26 6:37:37 AM 32 0.0 3.0 61 88 65.7 54.6 30.001 7.26 0.0 49 0.00 0.00 0.00 0.00
05/08/26 6:38:26 AM 34 0.0 3.0 61 88 65.6 54.7 30.001 7.26 0.0 51 0.00 0.00 0.00 0.00
05/08/26 6:39:36 AM 38 0.0 3.0 61 88 65.6 54.8 30.002 7.26 0.0 54 0.00 0.00 0.00 0.00
05/08/26 6:40:28 AM 35 0.0 3.0 61 88 65.6 54.8 30.004 7.26 0.0 54 0.00 0.00 0.00 0.00
05/08/26 6:41:20 AM 36 0.0 3.0 61 88 65.5 54.8 30.000 7.26 0.0 56 0.00 0.00 0.00 0.00
05/08/26 6:42:33 AM 38 0.0 3.0 61 88 65.6 54.9 30.002 7.26 0.0 62 0.00 0.00 0.00 0.00
05/08/26 6:43:22 AM 32 0.0 3.0 61 88 65.5 54.9 30.004 7.26 0.0 65 0.00 0.00 0.00 0.00
05/08/26 6:44:32 AM 34 0.0 3.0 62 88 65.5 55.0 30.004 7.26 0.0 65 0.00 0.00 0.00 0.00
05/08/26 6:45:27 AM 39 0.0 3.0 62 88 65.5 55.0 30.003 7.26 0.0 70 0.00 0.00 0.00 0.00
05/08/26 6:46:19 AM 36 0.0 3.0 62 88 65.5 55.0 30.002 7.26 0.0 70 0.00 0.00 0.00 0.00
05/08/26 6:47:29 AM 34 0.0 3.0 62 88 65.5 55.1 30.005 7.26 0.0 76 0.00 0.00 0.00 0.00
05/08/26 6:48:24 AM 38 0.0 3.0 62 89 65.5 55.2 30.004 7.26 0.0 79 0.00 0.00 0.00 0.00
05/08/26 6:49:31 AM 36 0.0 3.0 62 89 65.5 55.3 30.004 7.26 0.0 81 0.00 0.00 0.00 0.00
05/08/26 6:50:23 AM 34 0.0 3.0 62 89 65.5 55.4 30.005 7.26 0.0 83 0.00 0.00 0.00 0.00
05/08/26 6:51:36 AM 32 0.0 3.0 62 89 65.5 55.5 30.007 7.26 0.0 86 0.00 0.00 0.00 0.00
05/08/26 6:52:28 AM 35 0.0 3.0 62 89 65.5 55.5 30.010 7.26 0.0 88 0.00 0.00 0.00 0.00
05/08/26 6:53:20 AM 36 0.0 3.0 62 89 65.5 55.6 30.006 7.26 0.0 91 0.00 0.00 0.00 0.00
05/08/26 6:54:30 AM 36 0.0 3.0 62 89 65.5 55.7 30.005 7.26 0.0 91 0.00 0.00 0.00 0.00
05/08/26 6:55:19 AM 32 0.0 3.0 62 89 65.4 55.7 30.009 7.26 0.0 95 0.00 0.00 0.00 0.00
05/08/26 6:56:35 AM 35 0.0 3.0 62 89 65.4 55.7 30.007 7.26 0.0 98 0.00 0.00 0.00 0.00
05/08/26 6:57:27 AM 32 0.0 3.0 62 89 65.4 55.8 30.008 7.26 0.0 102 0.00 0.00 0.00 0.00
05/08/26 6:58:16 AM 35 0.0 3.0 62 89 65.4 55.9 30.007 7.26 0.0 102 0.00 0.00 0.00 0.00
05/08/26 6:59:26 AM 35 0.0 3.0 63 89 65.4 55.9 30.007 7.26 0.0 107 0.00 0.00 0.00 0.00
05/08/26 7:00:18 AM 38 0.0 3.0 63 89 65.4 56.0 30.007 7.26 0.0 109 0.00 0.00 0.00 0.00
05/08/26 7:01:31 AM 36 0.0 3.0 63 89 65.4 56.0 30.006 7.26 0.0 113 0.00 0.00 0.00 0.00
05/08/26 7:02:20 AM 35 0.0 3.0 63 89 65.4 56.2 30.007 7.26 0.0 116 0.00 0.00 0.00 0.00
05/08/26 7:03:33 AM 32 0.0 3.0 63 89 65.4 56.3 30.007 7.26 0.0 120 0.00 0.00 0.00 0.00
05/08/26 7:04:28 AM 35 0.0 3.0 63 89 65.4 56.4 30.009 7.26 0.0 123 0.00 0.00 0.00 0.00
05/08/26 7:05:35 AM 38 0.0 3.0 63 89 65.4 56.5 30.007 7.26 0.0 125 0.00 0.00 0.00 0.00
05/08/26 7:06:24 AM 38 0.0 3.0 63 89 65.4 56.6 30.010 7.26 0.0 127 0.00 0.00 0.00 0.00
05/08/26 7:07:19 AM 36 0.0 3.0 63 89 65.4 56.7 30.008 7.26 0.0 128 0.00 0.00 0.00 0.00
05/08/26 7:08:29 AM 34 0.0 3.0 63 89 65.4 56.8 30.008 7.26 0.0 132 0.00 0.00 0.00 0.00
05/08/26 7:09:18 AM 34 0.0 3.0 63 89 65.4 56.9 30.009 7.26 0.0 134 0.00 0.00 0.00 0.00
05/08/26 7:10:29 AM 32 0.0 3.0 63 89 65.4 57.0 30.011 7.26 0.0 135 0.00 0.00 0.00 0.00
05/08/26 7:11:21 AM 36 0.0 3.0 64 89 65.4 57.1 30.012 7.26 0.0 139 0.00 0.00 0.00 0.00
05/08/26 7:12:31 AM 38 0.0 3.0 64 89 65.4 57.2 30.011 7.26 0.0 146 0.00 0.00 0.00 0.00
05/08/26 7:13:23 AM 35 0.0 3.0 64 89 65.4 57.2 30.011 7.26 0.0 146 0.00 0.00 0.00 0.00
05/08/26 7:14:36 AM 31 0.0 3.0 64 89 65.5 57.3 30.010 7.26 0.0 149 0.00 0.00 0.00 0.00
05/08/26 7:15:28 AM 36 0.0 3.0 64 89 65.4 57.4 30.010 7.26 0.0 149 0.00 0.00 0.00 0.00
05/08/26 7:16:35 AM 36 0.0 3.0 64 89 65.4 57.5 30.009 7.26 0.0 149 0.00 0.00 0.00 0.00
05/08/26 7:17:27 AM 36 0.0 3.0 64 89 65.5 57.5 30.008 7.26 0.0 155 0.00 0.00 0.00 0.00
05/08/26 7:18:19 AM 38 0.0 3.0 64 89 65.4 57.6 30.006 7.26 0.0 158 0.00 0.00 0.00 0.00
05/08/26 7:19:29 AM 34 0.0 3.0 64 89 65.4 57.6 30.007 7.26 0.0 156 0.00 0.00 0.00 0.00
05/08/26 7:20:21 AM 38 0.0 3.0 64 89 65.5 57.7 30.009 7.26 0.0 146 0.00 0.00 0.00 0.00
05/08/26 7:21:31 AM 36 0.0 3.0 64 89 65.4 57.8 30.008 7.26 0.0 156 0.00 0.00 0.00 0.00
05/08/26 7:22:20 AM 31 0.0 3.0 64 89 65.4 57.8 30.009 7.26 0.0 162 0.00 0.00 0.00 0.00
05/08/26 7:23:33 AM 38 0.0 3.0 64 88 65.4 57.9 30.007 7.26 0.0 169 0.00 0.00 0.00 0.00
05/08/26 7:24:25 AM 36 0.0 3.0 64 88 65.4 57.9 30.007 7.26 0.0 172 0.00 0.00 0.00 0.00
05/08/26 7:25:17 AM 36 0.0 3.0 64 88 65.5 58.0 30.005 7.26 0.0 169 0.00 0.00 0.00 0.00
05/08/26 7:26:24 AM 36 0.0 3.0 64 88 65.5 58.0 30.004 7.26 0.0 183 0.00 0.00 0.00 0.00
05/08/26 7:27:16 AM 36 0.0 3.0 64 88 65.5 58.1 30.007 7.26 0.0 183 0.00 0.00 0.00 0.00
05/08/26 7:28:30 AM 36 0.0 3.0 64 88 65.5 58.1 30.005 7.26 0.0 190 0.00 0.00 0.00 0.00
05/08/26 7:29:22 AM 35 0.0 3.0 64 88 65.5 58.2 30.007 7.26 0.0 188 0.00 0.00 0.00 0.00
05/08/26 7:30:35 AM 35 0.0 3.0 65 88 65.5 58.2 30.007 7.26 0.0 192 0.00 0.00 0.00 0.00
05/08/26 7:31:21 AM 38 0.0 3.0 65 88 65.5 58.3 30.005 7.26 0.0 197 0.00 0.00 0.00 0.00
05/08/26 7:32:31 AM 36 0.0 3.0 65 88 65.5 58.4 30.007 7.26 0.0 202 0.00 0.00 0.00 0.00
05/08/26 7:33:23 AM 34 0.0 3.0 65 88 65.5 58.4 30.007 7.26 0.0 207 0.00 0.00 0.00 0.00
05/08/26 7:34:18 AM 37 2.0 3.0 65 88 65.5 58.5 30.008 7.26 0.0 207 0.00 0.00 0.00 0.00
05/08/26 7:35:28 AM 37 3.0 3.0 65 88 65.5 58.7 30.007 7.26 0.0 214 0.00 0.00 0.00 0.00
05/08/26 7:36:20 AM 36 2.0 3.0 65 88 65.6 58.7 30.008 7.26 0.0 218 0.00 0.00 0.00 0.00
05/08/26 7:37:27 AM 38 1.0 3.0 65 88 65.6 58.8 30.007 7.26 0.0 218 0.00 0.00 0.00 0.00
05/08/26 7:38:22 AM 36 1.0 3.0 65 88 65.6 58.8 30.009 7.26 0.0 225 0.00 0.00 0.00 0.00
05/08/26 7:39:32 AM 35 0.0 3.0 65 88 65.6 58.9 30.008 7.26 0.0 230 0.00 0.00 0.00 0.00
05/08/26 7:40:24 AM 34 2.0 3.0 65 88 65.5 58.9 30.010 7.26 0.5 230 0.00 0.00 0.00 0.00
05/08/26 7:41:16 AM 37 2.0 3.0 65 88 65.6 59.0 30.007 7.26 0.5 234 0.00 0.00 0.00 0.00
05/08/26 7:42:23 AM 35 0.0 3.0 65 88 65.6 59.1 30.009 7.26 0.5 244 0.00 0.00 0.00 0.00
05/08/26 7:43:15 AM 31 0.0 3.0 65 87 65.6 59.1 30.010 7.26 0.5 244 0.00 0.00 0.00 0.00
05/08/26 7:44:29 AM 38 0.0 3.0 65 87 65.6 59.2 30.009 7.26 0.5 251 0.00 0.00 0.00 0.00
05/08/26 7:45:21 AM 34 1.0 3.0 65 87 65.6 59.3 30.010 7.26 0.5 251 0.00 0.00 0.00 0.00
05/08/26 7:46:34 AM 32 2.0 3.0 65 87 65.6 59.3 30.009 7.26 0.5 258 0.00 0.00 0.00 0.00
05/08/26 7:47:20 AM 38 2.0 3.0 65 87 65.6 59.4 30.010 7.26 0.5 262 0.00 0.00 0.00 0.00
05/08/26 7:48:36 AM 37 0.0 3.0 65 87 65.7 59.4 30.010 7.26 0.5 267 0.00 0.00 0.00 0.00
05/08/26 7:49:25 AM 37 0.0 3.0 65 87 65.6 59.4 30.010 7.26 0.6 272 0.00 0.00 0.00 0.00
05/08/26 7:50:17 AM 32 0.0 3.0 65 87 65.7 59.5 30.008 7.26 0.6 274 0.00 0.00 0.00 0.00
05/08/26 7:51:30 AM 34 1.0 3.0 65 87 65.7 59.5 30.010 7.26 0.6 278 0.00 0.00 0.00 0.00
05/08/26 7:52:22 AM 34 2.0 3.0 65 87 65.7 59.6 30.010 7.26 0.6 278 0.00 0.00 0.00 0.00
05/08/26 7:53:29 AM 32 2.0 3.0 65 87 65.7 59.8 30.009 7.26 0.6 281 0.00 0.00 0.00 0.00
05/08/26 7:54:21 AM 34 1.0 3.0 65 87 65.7 59.8 30.008 7.26 0.6 287 0.00 0.00 0.00 0.00
05/08/26 7:55:34 AM 38 1.0 3.0 65 86 65.7 60.0 30.009 7.26 0.6 294 0.00 0.00 0.00 0.00
05/08/26 7:56:23 AM 36 1.0 3.0 65 86 65.7 60.0 30.008 7.26 0.6 294 0.00 0.00 0.00 0.00
05/08/26 7:57:15 AM 37 3.0 4.0 65 86 65.7 60.2 30.008 7.26 0.7 299 0.00 0.00 0.00 0.00
05/08/26 7:58:25 AM 34 2.0 4.0 65 86 65.7 60.2 30.007 7.26 0.7 306 0.00 0.00 0.00 0.00
05/08/26 7:59:17 AM 36 2.0 4.0 65 86 65.7 60.3 30.008 7.26 0.7 309 0.00 0.00 0.00 0.00
05/08/26 8:00:30 AM 35 1.0 4.0 65 86 65.7 60.4 30.008 7.26 0.7 315 0.00 0.00 0.00 0.00
05/08/26 8:01:22 AM 36 2.0 4.0 65 85 65.7 60.4 30.008 7.26 0.7 318 0.00 0.00 0.00 0.00
05/08/26 8:02:35 AM 37 2.0 4.0 65 85 65.7 60.5 30.008 7.26 0.7 322 0.00 0.00 0.00 0.00
05/08/26 8:03:21 AM 36 0.0 4.0 65 85 65.7 60.6 30.007 7.26 0.7 323 0.00 0.00 0.00 0.00
05/08/26 8:04:34 AM 38 0.0 4.0 65 85 65.8 60.7 30.007 7.26 0.8 327 0.00 0.00 0.00 0.00
05/08/26 8:05:26 AM 32 4.0 4.0 65 85 65.8 60.7 30.009 7.26 0.8 330 0.00 0.00 0.00 0.00
05/08/26 8:06:18 AM 35 1.0 4.0 65 85 65.8 60.8 30.009 7.26 0.8 336 0.00 0.00 0.00 0.00
05/08/26 8:07:32 AM 38 2.0 4.0 65 85 65.8 60.9 30.009 7.26 0.8 341 0.00 0.00 0.00 0.00
05/08/26 8:08:24 AM 36 0.0 4.0 65 84 65.8 61.0 30.010 7.26 0.8 339 0.00 0.00 0.00 0.00
05/08/26 8:09:31 AM 35 1.0 4.0 65 84 65.8 61.1 30.008 7.26 0.8 343 0.00 0.00 0.00 0.00
05/08/26 8:10:23 AM 34 0.0 4.0 65 84 65.8 61.1 30.009 7.26 0.8 346 0.00 0.00 0.00 0.00
05/08/26 8:11:36 AM 36 0.0 4.0 65 84 65.9 61.2 30.008 7.26 0.9 353 0.00 0.00 0.00 0.00
05/08/26 8:12:28 AM 35 1.0 4.0 65 84 65.8 61.3 30.006 7.26 0.9 357 0.00 0.00 0.00 0.00
05/08/26 8:13:17 AM 38 0.0 4.0 65 84 65.8 61.3 30.007 7.26 0.9 357 0.00 0.00 0.00 0.00
05/08/26 8:14:27 AM 32 1.0 4.0 65 84 65.9 61.4 30.005 7.26 0.9 362 0.00 0.00 0.00 0.00
05/08/26 8:15:41 AM 35 1.0 4.0 65 83 65.9 61.5 30.007 7.26 0.9 364 0.00 0.00 0.00 0.00
05/08/26 8:16:33 AM 36 1.0 4.0 65 83 65.9 61.6 30.006 7.26 0.9 369 0.00 0.00 0.00 0.00
05/08/26 8:17:24 AM 32 1.0 4.0 65 83 65.9 61.7 30.005 7.26 1.0 373 0.00 0.00 0.00 0.00
05/08/26 8:18:35 AM 38 0.0 4.0 65 83 65.9 61.8 30.005 7.26 1.0 376 0.00 0.00 0.00 0.00
05/08/26 8:19:27 AM 36 4.0 4.0 65 83 65.9 61.9 30.006 7.26 1.0 380 0.00 0.00 0.00 0.00
05/08/26 8:20:34 AM 38 2.0 4.0 65 82 66.0 62.0 30.005 7.26 1.0 385 0.00 0.00 0.00 0.00
05/08/26 8:21:26 AM 36 2.0 4.0 65 82 66.0 62.0 30.005 7.26 1.0 390 0.00 0.00 0.00 0.00
05/08/26 8:22:18 AM 38 1.0 4.0 65 82 66.0 62.1 30.005 7.26 1.0 390 0.00 0.00 0.00 0.00
05/08/26 8:23:31 AM 37 0.0 4.0 65 81 66.0 62.1 30.005 7.26 1.0 396 0.00 0.00 0.00 0.00
05/08/26 8:24:23 AM 36 2.0 4.0 65 81 66.0 62.2 30.006 7.26 1.1 397 0.00 0.00 0.00 0.00
05/08/26 8:25:30 AM 34 2.0 4.0 65 81 66.0 62.3 30.005 7.26 1.1 404 0.00 0.00 0.00 0.00
05/08/26 8:26:22 AM 38 2.0 4.0 65 81 66.0 62.4 30.006 7.26 1.1 404 0.00 0.00 0.00 0.00
05/08/26 8:27:35 AM 32 0.0 5.0 65 81 66.0 62.5 30.005 7.26 1.1 411 0.00 0.00 0.00 0.00
05/08/26 8:28:27 AM 38 2.0 5.0 65 81 66.0 62.6 30.005 7.26 1.1 413 0.00 0.00 0.00 0.00
05/08/26 8:29:19 AM 32 2.0 5.0 65 80 66.1 62.7 30.004 7.26 1.1 418 0.00 0.00 0.00 0.00
05/08/26 8:30:54 AM 38 1.0 5.0 65 80 66.1 62.7 30.005 7.26 1.2 425 0.00 0.00 0.00 0.00
05/08/26 8:31:24 AM 31 0.0 5.0 65 80 66.1 62.8 30.003 7.26 1.2 431 0.00 0.00 0.00 0.00
05/08/26 8:32:35 AM 35 0.0 5.0 65 80 66.1 62.9 30.003 7.26 1.2 431 0.00 0.00 0.00 0.00
05/08/26 8:33:30 AM 35 0.0 5.0 65 80 66.1 63.0 30.001 7.26 1.2 431 0.00 0.00 0.00 0.00
05/08/26 8:34:19 AM 38 0.0 5.0 65 80 66.1 63.1 30.002 7.26 1.2 434 0.00 0.00 0.00 0.00
05/08/26 8:35:32 AM 34 1.0 5.0 65 79 66.1 63.2 30.000 7.26 1.3 438 0.00 0.00 0.00 0.00
05/08/26 8:36:21 AM 35 1.0 5.0 65 79 66.2 63.2 30.000 7.26 1.3 445 0.00 0.00 0.00 0.00
05/08/26 8:37:31 AM 36 1.0 5.0 65 79 66.2 63.3 30.002 7.26 1.3 448 0.00 0.00 0.00 0.00
05/08/26 8:38:26 AM 36 1.0 5.0 65 79 66.2 63.4 30.001 7.26 1.3 450 0.00 0.00 0.00 0.00
05/08/26 8:39:18 AM 34 0.0 5.0 65 79 66.2 63.4 30.002 7.26 1.3 454 0.00 0.00 0.00 0.00
05/08/26 8:40:31 AM 35 2.0 5.0 65 78 66.2 63.5 30.004 7.26 1.3 457 0.00 0.00 0.00 0.00
05/08/26 8:41:23 AM 37 1.0 5.0 65 79 66.3 63.6 30.001 7.26 1.3 457 0.00 0.00 0.00 0.00
05/08/26 8:42:30 AM 39 1.0 5.0 65 78 66.3 63.7 30.000 7.26 1.3 464 0.00 0.00 0.00 0.00
05/08/26 8:43:23 AM 37 2.0 5.0 65 78 66.3 63.8 30.001 7.26 1.3 471 0.00 0.00 0.00 0.00
05/08/26 8:44:36 AM 35 4.0 5.0 65 78 66.3 63.9 30.000 7.26 1.4 475 0.00 0.00 0.00 0.00
05/08/26 8:45:28 AM 36 2.0 5.0 65 77 66.3 64.0 30.002 7.26 1.4 475 0.00 0.00 0.00 0.00
05/08/26 8:46:17 AM 37 2.0 5.0 65 77 66.4 64.0 30.003 7.26 1.4 483 0.00 0.00 0.00 0.00
05/08/26 8:47:27 AM 36 1.0 5.0 65 77 66.3 64.1 30.002 7.26 1.5 485 0.00 0.00 0.00 0.00
05/08/26 8:48:16 AM 36 2.0 5.0 65 77 66.3 64.2 30.001 7.26 1.5 485 0.00 0.00 0.00 0.00
05/08/26 8:49:29 AM 35 1.0 5.0 65 77 66.4 64.3 29.999 7.26 1.5 490 0.00 0.00 0.00 0.00
05/08/26 8:50:21 AM 36 0.0 5.0 65 77 66.4 64.4 30.001 7.26 1.5 496 0.00 0.00 0.00 0.00
05/08/26 8:51:35 AM 38 2.0 5.0 65 76 66.4 64.5 30.001 7.26 1.6 499 0.00 0.00 0.00 0.00
05/08/26 8:52:24 AM 37 3.0 5.0 65 76 66.4 64.7 29.999 7.26 1.6 501 0.00 0.00 0.00 0.00
05/08/26 8:53:34 AM 34 2.0 5.0 65 76 66.5 64.7 29.999 7.26 1.6 503 0.00 0.00 0.00 0.00
05/08/26 8:54:29 AM 38 3.0 5.0 65 75 66.5 64.8 29.999 7.26 1.6 504 0.00 0.00 0.00 0.00
05/08/26 8:55:18 AM 30 2.0 5.0 65 75 66.5 64.9 30.000 7.26 1.6 504 0.00 0.00 0.00 0.00
05/08/26 8:56:31 AM 34 4.0 5.0 65 76 66.5 65.0 29.998 7.26 1.6 510 0.00 0.00 0.00 0.00
05/08/26 8:57:23 AM 36 3.0 5.0 65 76 66.5 65.1 29.997 7.26 1.6 510 0.00 0.00 0.00 0.00
05/08/26 8:58:30 AM 34 3.0 5.0 65 75 66.5 65.3 30.001 7.26 1.7 519 0.00 0.00 0.00 0.00
05/08/26 8:59:22 AM 34 3.0 5.0 65 75 66.5 65.4 29.999 7.26 1.7 520 0.00 0.00 0.00 0.00
05/08/26 9:00:57 AM 34 3.0 5.0 65 75 66.5 65.5 29.999 7.26 1.7 520 0.00 0.00 0.00 0.00
05/08/26 9:01:27 AM 38 2.0 5.0 65 74 66.6 65.5 29.999 7.26 1.7 520 0.00 0.00 0.00 0.00
05/08/26 9:02:19 AM 38 1.0 5.0 65 74 66.6 65.5 29.998 7.26 1.8 520 0.00 0.00 0.00 0.00
05/08/26 9:03:27 AM 32 3.0 5.0 65 74 66.6 65.6 29.999 7.26 1.8 520 0.00 0.00 0.00 0.00
05/08/26 9:04:19 AM 37 2.0 5.0 65 74 66.7 65.6 29.999 7.26 1.8 522 0.00 0.00 0.00 0.00
05/08/26 9:05:32 AM 35 2.0 5.0 65 74 66.7 65.8 29.999 7.26 1.8 524 0.00 0.00 0.00 0.00
05/08/26 9:06:24 AM 38 3.0 5.0 65 73 66.7 65.8 30.000 7.26 1.8 519 0.00 0.00 0.00 0.00
05/08/26 9:07:16 AM 37 2.0 5.0 65 73 66.8 65.9 29.999 7.26 1.8 515 0.00 0.00 0.00 0.00
05/08/26 9:08:29 AM 32 2.0 5.0 65 73 66.8 65.9 29.997 7.26 1.9 520 0.00 0.00 0.00 0.00
05/08/26 9:09:36 AM 35 1.0 5.0 65 72 66.8 65.9 29.997 7.26 1.9 522 0.00 0.00 0.00 0.00
05/08/26 9:10:28 AM 35 2.0 5.0 65 72 66.9 66.0 29.994 7.26 1.9 522 0.00 0.00 0.00 0.00
05/08/26 9:11:20 AM 37 2.0 5.0 65 72 66.9 66.0 29.993 7.26 1.9 524 0.00 0.00 0.00 0.00
05/08/26 9:12:34 AM 35 3.0 5.0 65 72 67.0 66.1 29.991 7.26 2.0 524 0.00 0.00 0.00 0.00
05/08/26 9:13:26 AM 38 2.0 5.0 65 72 67.0 66.1 29.991 7.26 2.0 520 0.00 0.00 0.00 0.00
05/08/26 9:14:33 AM 36 0.0 5.0 65 71 67.0 66.2 29.994 7.26 2.0 522 0.00 0.00 0.00 0.00
05/08/26 9:15:28 AM 37 3.0 5.0 65 71 67.1 66.2 29.992 7.26 2.0 519 0.00 0.00 0.00 0.00
05/08/26 9:16:20 AM 32 2.0 5.0 65 71 67.1 66.2 29.988 7.26 2.1 519 0.00 0.00 0.00 0.00
05/08/26 9:17:30 AM 36 3.0 5.0 65 71 67.2 66.3 29.992 7.26 2.1 519 0.00 0.00 0.00 0.00
05/08/26 9:18:22 AM 34 2.0 5.0 65 71 67.2 66.4 29.994 7.26 2.1 519 0.00 0.00 0.00 0.00
05/08/26 9:19:29 AM 35 2.0 5.0 65 71 67.3 66.5 29.989 7.26 2.1 517 0.00 0.00 0.00 0.00
05/08/26 9:20:24 AM 35 1.0 5.0 65 71 67.3 66.5 29.991 7.26 2.1 517 0.00 0.00 0.00 0.00
05/08/26 9:21:34 AM 36 4.0 5.0 65 70 67.3 66.6 29.992 7.26 2.2 517 0.00 0.00 0.00 0.00
05/08/26 9:22:26 AM 36 3.0 5.0 65 70 67.3 66.7 29.992 7.26 2.2 513 0.00 0.00 0.00 0.00
05/08/26 9:23:18 AM 38 3.0 5.0 65 70 67.4 66.8 29.989 7.26 2.2 512 0.00 0.00 0.00 0.00
05/08/26 9:24:28 AM 38 2.0 5.0 65 70 67.4 66.8 29.991 7.26 2.2 512 0.00 0.00 0.00 0.00
05/08/26 9:25:18 AM 34 1.0 5.0 65 70 67.5 66.9 29.989 7.26 2.2 512 0.00 0.00 0.00 0.00
05/08/26 9:26:31 AM 35 2.0 5.0 65 70 67.5 67.0 29.989 7.26 2.2 515 0.00 0.00 0.00 0.00
05/08/26 9:27:23 AM 38 0.0 5.0 65 70 67.5 67.0 29.991 7.26 2.2 520 0.00 0.00 0.00 0.00
05/08/26 9:28:36 AM 32 3.0 5.0 65 70 67.5 67.1 29.991 7.26 2.3 520 0.00 0.00 0.00 0.00
05/08/26 9:29:28 AM 32 0.0 5.0 65 70 67.6 67.2 29.992 7.26 2.3 520 0.00 0.00 0.00 0.00
05/08/26 9:30:38 AM 38 0.0 5.0 65 70 67.6 67.3 29.990 7.26 2.3 519 0.00 0.00 0.00 0.00
05/08/26 9:31:30 AM 32 2.0 5.0 65 70 67.6 67.5 29.991 7.26 2.4 519 0.00 0.00 0.00 0.00
05/08/26 9:32:25 AM 34 2.0 5.0 65 70 67.7 67.6 29.993 7.26 2.4 520 0.00 0.00 0.00 0.00
05/08/26 9:33:18 AM 38 3.0 5.0 65 70 67.7 67.8 29.991 7.26 2.4 517 0.00 0.00 0.00 0.00
05/08/26 9:34:31 AM 36 3.0 5.0 65 70 67.7 68.0 29.991 7.26 2.4 517 0.00 0.00 0.00 0.00
05/08/26 9:35:20 AM 36 4.0 6.0 65 69 67.8 68.1 29.991 7.26 2.5 517 0.00 0.00 0.00 0.00
05/08/26 9:36:30 AM 38 3.0 6.0 65 69 67.8 68.2 29.996 7.26 2.5 515 0.00 0.00 0.00 0.00
05/08/26 9:37:22 AM 35 3.0 6.0 65 68 67.8 68.3 29.993 7.26 2.5 515 0.00 0.00 0.00 0.00
05/08/26 9:38:35 AM 35 3.0 6.0 65 68 67.8 68.3 29.993 7.26 2.5 515 0.00 0.00 0.00 0.00
05/08/26 9:39:27 AM 31 4.0 6.0 65 68 67.9 68.4 29.992 7.26 2.5 519 0.00 0.00 0.00 0.00
05/08/26 9:40:19 AM 36 3.0 6.0 65 68 67.9 68.4 29.991 7.26 2.6 519 0.00 0.00 0.00 0.00
05/08/26 9:41:26 AM 35 3.0 6.0 65 68 67.9 68.5 29.991 7.26 2.6 522 0.00 0.00 0.00 0.00
05/08/26 9:42:22 AM 34 2.0 6.0 65 68 67.9 68.5 29.992 7.26 2.6 522 0.00 0.00 0.00 0.00
05/08/26 9:43:32 AM 35 1.0 6.0 65 68 67.9 68.5 29.991 7.26 2.6 526 0.00 0.00 0.00 0.00
05/08/26 9:44:24 AM 34 1.0 6.0 65 67 68.0 68.5 29.991 7.26 2.6 527 0.00 0.00 0.00 0.00
05/08/26 9:45:19 AM 34 2.0 6.0 65 68 68.0 68.6 29.990 7.26 2.7 529 0.00 0.00 0.00 0.00
05/08/26 9:46:29 AM 36 2.0 6.0 65 68 68.1 68.8 29.992 7.26 2.7 533 0.00 0.00 0.00 0.00
05/08/26 9:47:18 AM 36 1.0 6.0 65 68 68.1 68.9 29.992 7.26 2.8 534 0.00 0.00 0.00 0.00
05/08/26 9:48:31 AM 34 1.0 6.0 65 68 68.1 69.0 29.991 7.26 2.8 536 0.00 0.00 0.00 0.00
05/08/26 9:49:20 AM 37 3.0 6.0 65 67 68.1 69.2 29.989 7.26 2.8 543 0.00 0.00 0.00 0.00
05/08/26 9:50:34 AM 34 2.0 6.0 65 66 68.2 69.2 29.991 7.26 2.8 547 0.00 0.00 0.00 0.00
05/08/26 9:51:23 AM 36 0.0 6.0 65 66 68.2 69.2 29.991 7.26 2.9 550 0.00 0.00 0.00 0.00
05/08/26 9:52:33 AM 36 1.0 6.0 65 66 68.2 69.3 29.990 7.26 2.9 557 0.00 0.00 0.00 0.00
05/08/26 9:53:25 AM 32 1.0 6.0 65 66 68.2 69.3 29.990 7.26 2.9 561 0.00 0.00 0.00 0.00
05/08/26 9:54:35 AM 36 4.0 6.0 65 66 68.3 69.4 29.988 7.26 2.9 571 0.00 0.00 0.00 0.00
05/08/26 9:55:27 AM 37 3.0 6.0 65 66 68.3 69.5 29.989 7.26 2.9 571 0.00 0.00 0.00 0.00
05/08/26 9:56:19 AM 34 2.0 6.0 65 66 68.3 69.5 29.988 7.26 3.0 578 0.00 0.00 0.00 0.00
05/08/26 9:57:29 AM 38 3.0 6.0 65 66 68.4 69.6 29.989 7.26 3.0 591 0.00 0.00 0.00 0.00
05/08/26 9:58:22 AM 36 2.0 6.0 65 65 68.4 69.7 29.988 7.26 3.0 598 0.00 0.00 0.00 0.00
05/08/26 9:59:32 AM 32 1.0 6.0 65 65 68.4 69.8 29.989 7.26 3.1 598 0.00 0.00 0.00 0.00
05/08/26 10:00:48 AM 37 2.0 6.0 65 65 68.4 70.0 29.989 7.26 3.1 601 0.00 0.00 0.00 0.00
05/08/26 10:01:16 AM 35 4.0 6.0 65 66 68.4 70.2 29.988 7.26 3.1 606 0.00 0.00 0.00 0.00
05/08/26 10:02:32 AM 35 4.0 6.0 65 66 68.4 70.4 29.987 7.26 3.1 612 0.00 0.00 0.00 0.00
05/08/26 10:03:18 AM 37 3.0 6.0 65 65 68.4 70.6 29.988 7.26 3.1 617 0.00 0.00 0.00 0.00
05/08/26 10:04:31 AM 37 3.0 6.0 65 65 68.5 70.7 29.986 7.26 3.2 622 0.00 0.00 0.00 0.00
05/08/26 10:05:23 AM 32 2.0 6.0 65 65 68.5 70.8 29.987 7.26 3.2 626 0.00 0.00 0.00 0.00
05/08/26 10:06:34 AM 35 3.0 6.0 65 64 68.5 70.9 29.987 7.26 3.2 636 0.00 0.00 0.00 0.00
05/08/26 10:07:26 AM 38 5.0 6.0 65 64 68.6 71.0 29.985 7.26 3.2 636 0.00 0.00 0.00 0.00
05/08/26 10:08:18 AM 34 3.0 6.0 65 63 68.5 71.1 29.987 7.26 3.3 649 0.00 0.00 0.00 0.00
05/08/26 10:09:28 AM 37 3.0 6.0 65 63 68.6 71.0 29.985 7.26 3.3 649 0.00 0.00 0.00 0.00
05/08/26 10:10:17 AM 36 2.0 6.0 65 63 68.6 71.0 29.986 7.26 3.3 675 0.00 0.00 0.00 0.00
05/08/26 10:11:30 AM 31 1.0 6.0 65 63 68.6 70.9 29.987 7.26 3.3 696 0.00 0.00 0.00 0.00
05/08/26 10:12:22 AM 36 3.0 6.0 65 63 68.6 70.9 29.988 7.26 3.4 696 0.00 0.00 0.00 0.00
05/08/26 10:13:36 AM 34 2.0 6.0 65 63 68.7 70.8 29.988 7.26 3.4 717 0.00 0.00 0.00 0.00
05/08/26 10:14:22 AM 35 3.0 6.0 65 64 68.7 70.8 29.987 7.26 3.4 717 0.00 0.00 0.00 0.00
05/08/26 10:15:35 AM 37 3.0 6.0 65 64 68.7 71.0 29.985 7.26 3.5 724 0.00 0.00 0.00 0.00
05/08/26 10:16:27 AM 36 3.0 6.0 65 64 68.7 71.1 29.988 7.26 3.5 735 0.00 0.00 0.00 0.00
05/08/26 10:17:19 AM 32 1.0 6.0 65 63 68.8 71.0 29.986 7.26 3.5 745 0.00 0.00 0.00 0.00
05/08/26 10:18:29 AM 38 0.0 6.0 65 64 68.8 71.0 29.984 7.26 3.5 751 0.00 0.00 0.00 0.00
05/08/26 10:19:18 AM 32 1.0 6.0 65 64 68.8 71.0 29.986 7.26 3.6 752 0.00 0.00 0.00 0.00
05/08/26 10:20:28 AM 38 4.0 6.0 65 63 68.9 71.2 29.985 7.26 3.6 756 0.00 0.00 0.00 0.00
05/08/26 10:21:20 AM 31 2.0 6.0 65 63 68.9 71.3 29.984 7.26 3.6 758 0.00 0.00 0.00 0.00
05/08/26 10:22:34 AM 35 2.0 6.0 65 63 68.9 71.5 29.984 7.26 3.6 759 0.00 0.00 0.00 0.00
05/08/26 10:23:26 AM 36 5.0 8.0 65 63 68.9 71.6 29.986 7.26 3.7 763 0.00 0.00 0.00 0.00
05/08/26 10:24:18 AM 35 3.0 8.0 65 63 69.0 71.8 29.984 7.26 3.7 768 0.00 0.00 0.00 0.00
05/08/26 10:25:25 AM 36 4.0 8.0 65 63 69.0 72.0 29.985 7.26 3.7 775 0.00 0.00 0.00 0.00
05/08/26 10:26:17 AM 35 2.0 8.0 65 62 69.0 72.1 29.986 7.26 3.7 780 0.00 0.00 0.00 0.00
05/08/26 10:27:30 AM 35 3.0 8.0 65 62 69.0 72.1 29.984 7.26 3.8 788 0.00 0.00 0.00 0.00
05/08/26 10:28:19 AM 32 2.0 8.0 65 61 69.1 72.1 29.986 7.26 3.8 786 0.00 0.00 0.00 0.00
05/08/26 10:29:33 AM 37 5.0 8.0 65 62 69.0 72.1 29.984 7.26 3.8 788 0.00 0.00 0.00 0.00
05/08/26 10:30:22 AM 36 4.0 8.0 65 62 69.1 72.1 29.983 7.26 3.8 789 0.00 0.00 0.00 0.00
05/08/26 10:31:32 AM 34 4.0 8.0 65 62 69.1 72.1 29.985 7.26 3.8 791 0.00 0.00 0.00 0.00
05/08/26 10:32:24 AM 36 5.0 8.0 65 61 69.1 72.1 29.986 7.26 3.9 795 0.00 0.00 0.00 0.00
05/08/26 10:33:16 AM 35 3.0 8.0 65 61 69.1 72.1 29.987 7.26 3.9 796 0.00 0.00 0.00 0.00
05/08/26 10:34:30 AM 29 2.0 8.0 65 61 69.2 72.0 29.987 7.26 3.9 796 0.00 0.00 0.00 0.00
05/08/26 10:35:37 AM 36 3.0 8.0 65 62 69.2 72.0 29.986 7.26 3.9 800 0.00 0.00 0.00 0.00
05/08/26 10:36:29 AM 36 3.0 8.0 65 62 69.2 72.1 29.986 7.26 4.0 803 0.00 0.00 0.00 0.00
05/08/26 10:37:21 AM 35 6.0 9.0 65 62 69.3 72.3 29.987 7.26 4.0 807 0.00 0.00 0.00 0.00
05/08/26 10:38:34 AM 35 2.0 9.0 65 61 69.3 72.4 29.985 7.26 4.0 809 0.00 0.00 0.00 0.00
05/08/26 10:39:23 AM 34 2.0 9.0 65 61 69.3 72.4 29.988 7.26 4.0 812 0.00 0.00 0.00 0.00
05/08/26 10:40:15 AM 32 3.0 9.0 65 61 69.3 72.5 29.988 7.26 4.0 812 0.00 0.00 0.00 0.00
05/08/26 10:41:26 AM 34 3.0 9.0 65 60 69.4 72.6 29.991 7.26 4.1 817 0.00 0.00 0.00 0.00
05/08/26 10:42:18 AM 35 1.0 9.0 65 61 69.4 72.5 29.989 7.26 4.1 819 0.00 0.00 0.00 0.00
05/08/26 10:43:31 AM 35 0.0 9.0 65 61 69.4 72.7 29.987 7.26 4.1 819 0.00 0.00 0.00 0.00
05/08/26 10:44:23 AM 36 2.0 9.0 65 60 69.4 72.8 29.987 7.26 4.1 823 0.00 0.00 0.00 0.00
05/08/26 10:45:57 AM 34 3.0 9.0 65 60 69.5 72.8 29.987 7.26 4.1 826 0.00 0.00 0.00 0.00
05/08/26 10:46:25 AM 35 2.0 9.0 65 60 69.5 72.8 29.989 7.26 4.2 828 0.00 0.00 0.00 0.00
05/08/26 10:47:36 AM 35 2.0 9.0 65 60 69.5 72.9 29.991 7.26 4.2 830 0.00 0.00 0.00 0.00
05/08/26 10:48:28 AM 35 1.0 9.0 65 60 69.5 72.9 29.993 7.26 4.2 831 0.00 0.00 0.00 0.00
05/08/26 10:49:20 AM 34 3.0 9.0 65 60 69.6 73.0 29.994 7.26 4.3 835 0.00 0.00 0.00 0.00
05/08/26 10:50:30 AM 36 4.0 9.0 65 60 69.6 73.1 29.991 7.26 4.3 835 0.00 0.00 0.00 0.00
05/08/26 10:51:22 AM 34 4.0 9.0 65 60 69.6 73.2 29.991 7.26 4.3 837 0.00 0.00 0.00 0.00
05/08/26 10:52:29 AM 38 2.0 9.0 65 59 69.7 73.3 29.992 7.26 4.3 840 0.00 0.00 0.00 0.00
05/08/26 10:53:22 AM 36 5.0 9.0 65 59 69.7 73.5 29.993 7.26 4.3 842 0.00 0.00 0.00 0.00
05/08/26 10:54:35 AM 32 2.0 9.0 65 58 69.7 73.7 29.994 7.26 4.4 846 0.00 0.00 0.00 0.00
05/08/26 10:55:27 AM 34 4.0 9.0 65 58 69.7 73.8 29.993 7.26 4.4 846 0.00 0.00 0.00 0.00
05/08/26 10:56:19 AM 36 3.0 9.0 65 57 69.7 73.8 29.992 7.26 4.4 846 0.00 0.00 0.00 0.00
05/08/26 10:57:29 AM 38 4.0 9.0 65 57 69.8 73.9 29.994 7.26 4.4 849 0.00 0.00 0.00 0.00
05/08/26 10:58:18 AM 35 4.0 9.0 65 58 69.8 74.0 29.995 7.26 4.4 849 0.00 0.00 0.00 0.00
05/08/26 10:59:31 AM 36 4.0 9.0 65 58 69.9 74.1 29.993 7.26 4.4 851 0.00 0.00 0.00 0.00
05/08/26 11:00:24 AM 32 3.0 9.0 65 58 69.9 74.2 29.996 7.26 4.4 853 0.00 0.00 0.00 0.00
05/08/26 11:01:34 AM 35 0.0 9.0 65 58 69.8 74.4 29.996 7.26 4.5 860 0.00 0.00 0.00 0.00
05/08/26 11:02:23 AM 32 3.0 9.0 65 57 69.9 74.5 29.997 7.26 4.5 863 0.00 0.00 0.00 0.00
05/08/26 11:03:36 AM 35 3.0 9.0 65 56 69.9 74.6 29.997 7.26 4.5 861 0.00 0.00 0.00 0.00
05/08/26 11:04:28 AM 37 2.0 9.0 65 56 70.0 74.6 29.996 7.26 4.6 863 0.00 0.00 0.00 0.00
05/08/26 11:05:21 AM 32 2.0 9.0 65 56 70.0 74.6 29.994 7.26 4.6 863 0.00 0.00 0.00 0.00
05/08/26 11:06:34 AM 38 2.0 9.0 65 56 70.0 74.6 29.995 7.26 4.6 867 0.00 0.00 0.00 0.00
05/08/26 11:07:23 AM 32 1.0 9.0 65 57 70.1 74.6 29.995 7.26 4.6 870 0.00 0.00 0.00 0.00
05/08/26 11:08:33 AM 37 1.0 9.0 65 58 70.1 74.8 29.994 7.26 4.7 868 0.00 0.00 0.00 0.00
05/08/26 11:09:25 AM 36 0.0 9.0 65 57 70.1 74.8 29.993 7.26 4.7 870 0.00 0.00 0.00 0.00
05/08/26 11:10:17 AM 35 3.0 9.0 65 57 70.1 75.0 29.995 7.26 4.7 870 0.00 0.00 0.00 0.00
05/08/26 11:11:28 AM 36 2.0 9.0 65 57 70.2 75.2 29.993 7.26 4.7 874 0.00 0.00 0.00 0.00
05/08/26 11:12:20 AM 36 4.0 9.0 65 56 70.2 75.5 29.993 7.26 4.7 874 0.00 0.00 0.00 0.00
05/08/26 11:13:27 AM 38 3.0 9.0 65 56 70.2 75.8 29.991 7.26 4.8 881 0.00 0.00 0.00 0.00
05/08/26 11:14:19 AM 32 2.0 9.0 65 56 70.2 75.9 29.992 7.26 4.8 886 0.00 0.00 0.00 0.00
05/08/26 11:15:32 AM 35 4.0 9.0 65 55 70.2 75.9 29.992 7.26 4.8 888 0.00 0.00 0.00 0.00
05/08/26 11:16:21 AM 36 5.0 9.0 65 55 70.2 76.0 29.991 7.26 4.8 888 0.00 0.00 0.00 0.00
05/08/26 11:17:35 AM 35 3.0 9.0 65 54 70.3 76.0 29.989 7.26 4.8 891 0.00 0.00 0.00 0.00
05/08/26 11:18:21 AM 36 1.0 9.0 65 54 70.2 76.0 29.989 7.26 4.8 889 0.00 0.00 0.00 0.00
05/08/26 11:19:34 AM 36 2.0 9.0 65 54 70.3 76.0 29.990 7.26 4.9 888 0.00 0.00 0.00 0.00
05/08/26 11:20:26 AM 36 1.0 9.0 65 54 70.3 76.1 29.988 7.26 4.9 891 0.00 0.00 0.00 0.00
05/08/26 11:21:18 AM 35 2.0 9.0 65 54 70.4 76.3 29.988 7.26 4.9 895 0.00 0.00 0.00 0.00
05/08/26 11:22:29 AM 36 1.0 9.0 65 54 70.4 76.4 29.988 7.26 4.9 893 0.00 0.00 0.00 0.00
05/08/26 11:23:21 AM 36 2.0 9.0 65 55 70.4 76.5 29.988 7.26 5.0 896 0.00 0.00 0.00 0.00
05/08/26 11:24:28 AM 35 2.0 9.0 65 55 70.4 76.6 29.987 7.26 5.0 900 0.00 0.00 0.00 0.00
05/08/26 11:25:20 AM 35 1.0 9.0 65 55 70.4 76.7 29.988 7.26 5.0 902 0.00 0.00 0.00 0.00
05/08/26 11:26:30 AM 35 4.0 9.0 65 54 70.5 76.9 29.984 7.26 5.1 905 0.00 0.00 0.00 0.00
05/08/26 11:27:25 AM 35 4.0 9.0 65 53 70.5 76.9 29.987 7.26 5.1 909 0.00 0.00 0.00 0.00
05/08/26 11:28:36 AM 35 4.0 9.0 65 54 70.5 77.1 29.984 7.26 5.1 907 0.00 0.00 0.00 0.00
05/08/26 11:29:25 AM 36 3.0 9.0 65 54 70.5 77.2 29.984 7.26 5.1 907 0.00 0.00 0.00 0.00
05/08/26 11:30:38 AM 36 5.0 9.0 65 53 70.5 77.4 29.987 7.26 5.1 907 0.00 0.00 0.00 0.00
05/08/26 11:31:30 AM 34 3.0 9.0 65 52 70.6 77.4 29.983 7.26 5.1 907 0.00 0.00 0.00 0.00
05/08/26 11:32:22 AM 36 2.0 9.0 65 52 70.6 77.4 29.982 7.26 5.1 911 0.00 0.00 0.00 0.00
05/08/26 11:33:33 AM 34 4.0 9.0 65 52 70.6 77.5 29.983 7.26 5.1 907 0.00 0.00 0.00 0.00
05/08/26 11:34:22 AM 32 1.0 9.0 65 52 70.6 77.5 29.983 7.26 5.2 914 0.00 0.00 0.00 0.00
05/08/26 11:35:35 AM 35 1.0 9.0 65 51 70.7 77.4 29.983 7.26 5.2 918 0.00 0.00 0.00 0.00
05/08/26 11:36:24 AM 32 3.0 9.0 65 51 70.7 77.4 29.979 7.26 5.3 923 0.00 0.00 0.00 0.00
05/08/26 11:37:16 AM 36 1.0 9.0 65 51 70.7 77.4 29.979 7.26 5.3 925 0.00 0.00 0.00 0.00
05/08/26 11:38:29 AM 34 2.0 9.0 65 51 70.7 77.3 29.979 7.26 5.3 926 0.00 0.00 0.00 0.00
05/08/26 11:39:21 AM 36 2.0 9.0 65 51 70.8 77.3 29.978 7.26 5.3 921 0.00 0.00 0.00 0.00
05/08/26 11:40:28 AM 38 1.0 9.0 65 53 70.8 77.4 29.980 7.26 5.3 921 0.00 0.00 0.00 0.00
05/08/26 11:41:21 AM 36 3.0 9.0 65 52 70.9 77.5 29.976 7.26 5.3 923 0.00 0.00 0.00 0.00
05/08/26 11:42:34 AM 36 3.0 9.0 65 51 70.9 77.5 29.979 7.26 5.3 914 0.00 0.00 0.00 0.00
05/08/26 11:43:26 AM 35 2.0 9.0 65 51 70.9 77.6 29.977 7.26 5.3 914 0.00 0.00 0.00 0.00
05/08/26 11:44:18 AM 34 5.0 9.0 65 51 70.9 77.6 29.975 7.26 5.3 921 0.00 0.00 0.00 0.00
05/08/26 11:45:28 AM 37 7.0 9.0 65 51 71.0 77.6 29.975 7.26 5.4 926 0.00 0.00 0.00 0.00
05/08/26 11:46:17 AM 34 5.0 9.0 65 52 71.0 77.7 29.974 7.26 5.4 930 0.00 0.00 0.00 0.00
05/08/26 11:47:31 AM 35 1.0 9.0 65 51 71.0 77.7 29.974 7.26 5.5 935 0.00 0.00 0.00 0.00
05/08/26 11:48:26 AM 32 3.0 9.0 65 51 71.0 77.8 29.975 7.26 5.5 942 0.00 0.00 0.00 0.00
05/08/26 11:49:18 AM 38 3.0 9.0 65 51 71.1 77.9 29.972 7.26 5.5 942 0.00 0.00 0.00 0.00
05/08/26 11:50:25 AM 32 1.0 9.0 65 50 71.2 78.0 29.973 7.26 5.5 946 0.00 0.00 0.00 0.00
05/08/26 11:51:17 AM 36 2.0 9.0 65 50 71.1 78.2 29.973 7.26 5.5 940 0.00 0.00 0.00 0.00
05/08/26 11:52:28 AM 35 1.0 9.0 65 50 71.2 78.3 29.975 7.26 5.5 939 0.00 0.00 0.00 0.00
05/08/26 11:53:23 AM 31 5.0 9.0 65 51 71.3 78.4 29.973 7.26 5.5 937 0.00 0.00 0.00 0.00
05/08/26 11:54:36 AM 29 3.0 9.0 65 50 71.2 78.5 29.973 7.26 5.5 937 0.00 0.00 0.00 0.00
05/08/26 11:55:25 AM 32 1.0 9.0 65 50 71.3 78.5 29.972 7.26 5.5 937 0.00 0.00 0.00 0.00
05/08/26 11:56:36 AM 36 5.0 9.0 65 50 71.3 78.6 29.972 7.26 5.5 935 0.00 0.00 0.00 0.00
05/08/26 11:57:28 AM 35 4.0 9.0 65 49 71.3 78.7 29.974 7.26 5.6 940 0.00 0.00 0.00 0.00
05/08/26 11:58:20 AM 35 6.0 9.0 65 49 71.3 78.8 29.972 7.26 5.6 942 0.00 0.00 0.00 0.00
05/08/26 11:59:30 AM 35 3.0 9.0 65 48 71.4 78.9 29.972 7.26 5.6 944 0.00 0.00 0.00 0.00
05/08/26 12:00:25 PM 37 1.0 9.0 65 48 71.5 78.9 29.970 7.26 5.6 944 0.00 0.00 0.00 0.00
05/08/26 12:01:30 PM 38 2.0 9.0 65 49 71.5 79.0 29.973 7.26 5.6 942 0.00 0.00 0.00 0.00
05/08/26 12:02:25 PM 35 3.0 9.0 65 48 71.5 79.1 29.970 7.26 5.6 939 0.00 0.00 0.00 0.00
05/08/26 12:03:35 PM 35 2.0 9.0 65 47 71.5 79.2 29.972 7.26 5.6 942 0.00 0.00 0.00 0.00
05/08/26 12:04:30 PM 31 2.0 9.0 65 47 71.5 79.2 29.969 7.26 5.6 942 0.00 0.00 0.00 0.00
05/08/26 12:05:19 PM 30 2.0 9.0 65 47 71.5 79.2 29.970 7.26 5.6 944 0.00 0.00 0.00 0.00
05/08/26 12:06:30 PM 35 1.0 9.0 65 49 71.6 79.1 29.972 7.26 5.6 944 0.00 0.00 0.00 0.00
05/08/26 12:07:22 PM 34 5.0 9.0 65 49 71.6 79.4 29.971 7.26 5.6 944 0.00 0.00 0.00 0.00
05/08/26 12:08:32 PM 38 5.0 10.0 65 48 71.7 79.6 29.968 7.26 5.7 949 0.00 0.00 0.00 0.00
05/08/26 12:09:24 PM 34 8.0 10.0 65 47 71.7 79.8 29.968 7.26 5.7 949 0.00 0.00 0.00 0.00
05/08/26 12:10:16 PM 35 5.0 10.0 65 48 71.7 79.8 29.969 7.26 5.6 951 0.00 0.00 0.00 0.00
05/08/26 12:11:30 PM 35 5.0 10.0 65 47 71.8 80.0 29.970 7.26 5.6 954 0.00 0.00 0.00 0.00
05/08/26 12:12:19 PM 32 3.0 10.0 65 47 71.8 80.0 29.966 7.26 5.6 954 0.00 0.00 0.00 0.00
05/08/26 12:13:29 PM 32 1.0 10.0 65 47 71.8 80.0 29.966 7.26 5.7 960 0.00 0.00 0.00 0.00
05/08/26 12:14:21 PM 35 4.0 10.0 65 46 71.8 80.0 29.969 7.26 5.7 962 0.00 0.00 0.00 0.00
05/08/26 12:15:56 PM 36 2.0 10.0 65 46 71.9 79.9 29.968 7.26 5.6 960 0.00 0.00 0.00 0.00
05/08/26 12:16:27 PM 32 2.0 10.0 65 46 71.9 79.9 29.966 7.26 5.7 960 0.00 0.00 0.00 0.00
05/08/26 12:17:22 PM 35 1.0 10.0 65 46 71.9 80.0 29.966 7.26 5.7 954 0.00 0.00 0.00 0.00
05/08/26 12:18:29 PM 35 2.0 10.0 65 46 72.0 80.1 29.965 7.26 5.7 954 0.00 0.00 0.00 0.00
05/08/26 12:19:21 PM 35 4.0 10.0 65 47 72.0 80.3 29.964 7.26 5.7 949 0.00 0.00 0.00 0.00
05/08/26 12:20:35 PM 32 5.0 10.0 65 47 72.0 80.4 29.966 7.26 5.7 954 0.00 0.00 0.00 0.00
05/08/26 12:21:27 PM 38 4.0 10.0 65 46 72.1 80.5 29.967 7.26 5.7 954 0.00 0.00 0.00 0.00
05/08/26 12:22:19 PM 34 2.0 10.0 65 45 72.1 80.6 29.964 7.26 5.7 954 0.00 0.00 0.00 0.00
05/08/26 12:23:26 PM 35 2.0 10.0 65 45 72.1 80.5 29.963 7.26 5.7 958 0.00 0.00 0.00 0.00
05/08/26 12:24:18 PM 36 4.0 10.0 65 46 72.1 80.6 29.965 7.26 5.8 958 0.00 0.00 0.00 0.00
05/08/26 12:25:32 PM 36 5.0 10.0 65 47 72.2 80.6 29.964 7.26 5.7 970 0.00 0.00 0.00 0.00
05/08/26 12:26:24 PM 34 5.0 10.0 65 46 72.2 80.7 29.961 7.26 5.7 970 0.00 0.00 0.00 0.00
05/08/26 12:27:34 PM 36 4.0 10.0 65 47 72.2 80.8 29.964 7.26 5.7 984 0.00 0.00 0.00 0.00
05/08/26 12:28:20 PM 35 5.0 10.0 65 46 72.3 80.8 29.962 7.26 5.7 983 0.00 0.00 0.00 0.00
05/08/26 12:29:33 PM 36 4.0 10.0 65 46 72.3 80.7 29.963 7.26 5.8 970 0.00 0.00 0.00 0.00
05/08/26 12:30:26 PM 35 1.0 10.0 65 45 72.3 80.7 29.962 7.26 5.8 967 0.00 0.00 0.00 0.00
05/08/26 12:31:18 PM 34 5.0 10.0 65 46 72.3 80.7 29.962 7.26 5.8 967 0.00 0.00 0.00 0.00
05/08/26 12:32:31 PM 36 6.0 10.0 65 46 72.4 80.7 29.963 7.26 5.8 962 0.00 0.00 0.00 0.00
05/08/26 12:33:23 PM 37 7.0 10.0 65 46 72.4 80.7 29.961 7.26 5.8 962 0.00 0.00 0.00 0.00
05/08/26 12:34:30 PM 35 5.0 10.0 65 46 72.4 80.6 29.963 7.26 5.8 963 0.00 0.00 0.00 0.00
05/08/26 12:35:22 PM 35 3.0 10.0 65 46 72.5 80.6 29.961 7.26 5.8 960 0.00 0.00 0.00 0.00
05/08/26 12:36:15 PM 38 3.0 10.0 65 46 72.4 80.6 29.962 7.26 5.8 962 0.00 0.00 0.00 0.00
05/08/26 12:37:28 PM 36 1.0 10.0 65 49 72.5 80.6 29.960 7.26 5.8 960 0.00 0.00 0.00 0.00
05/08/26 12:38:20 PM 35 3.0 10.0 65 48 72.5 80.7 29.960 7.26 5.8 958 0.00 0.00 0.00 0.00
05/08/26 12:39:30 PM 36 1.0 10.0 65 47 72.6 80.9 29.960 7.26 5.8 960 0.00 0.00 0.00 0.00
05/08/26 12:40:19 PM 32 3.0 10.0 65 47 72.6 81.1 29.959 7.26 5.8 960 0.00 0.00 0.00 0.00
05/08/26 12:41:33 PM 37 5.0 10.0 65 48 72.6 81.3 29.958 7.26 5.8 962 0.00 0.00 0.00 0.00
05/08/26 12:42:25 PM 35 7.0 10.0 65 46 72.6 81.4 29.956 7.26 5.8 962 0.00 0.00 0.00 0.00
05/08/26 12:43:17 PM 34 5.0 10.0 65 46 72.7 81.6 29.958 7.26 5.8 962 0.00 0.00 0.00 0.00
05/08/26 12:44:24 PM 37 5.0 10.0 65 45 72.7 81.6 29.956 7.26 5.8 958 0.00 0.00 0.00 0.00
05/08/26 12:45:20 PM 35 3.0 10.0 65 45 72.7 81.7 29.956 7.26 5.8 962 0.00 0.00 0.00 0.00
05/08/26 12:46:30 PM 35 6.0 10.0 65 45 72.8 81.8 29.955 7.26 5.8 963 0.00 0.00 0.00 0.00
05/08/26 12:47:22 PM 35 3.0 10.0 65 45 72.8 81.8 29.954 7.26 5.8 963 0.00 0.00 0.00 0.00
05/08/26 12:48:35 PM 35 3.0 10.0 65 45 72.8 81.9 29.954 7.26 5.8 963 0.00 0.00 0.00 0.00
05/08/26 12:49:27 PM 38 3.0 10.0 65 46 72.8 81.8 29.955 7.26 5.8 963 0.00 0.00 0.00 0.00
05/08/26 12:50:35 PM 32 5.0 10.0 65 46 72.9 81.8 29.953 7.26 5.8 963 0.00 0.00 0.00 0.00
05/08/26 12:51:27 PM 36 3.0 10.0 65 45 72.9 81.9 29.954 7.26 5.8 960 0.00 0.00 0.00 0.00
05/08/26 12:52:19 PM 32 4.0 10.0 65 45 72.9 82.0 29.953 7.26 5.8 960 0.00 0.00 0.00 0.00
05/08/26 12:53:32 PM 38 4.0 10.0 65 46 73.0 82.1 29.952 7.26 5.8 962 0.00 0.00 0.00 0.00
05/08/26 12:54:24 PM 29 1.0 10.0 65 44 73.0 82.2 29.952 7.26 5.8 963 0.00 0.00 0.00 0.00
05/08/26 12:55:32 PM 30 4.0 10.0 65 45 73.0 82.4 29.950 7.26 5.9 970 0.00 0.00 0.00 0.00
05/08/26 12:56:24 PM 36 4.0 10.0 65 44 73.0 82.4 29.950 7.26 5.9 970 0.00 0.00 0.00 0.00
05/08/26 12:57:37 PM 34 2.0 10.0 65 44 73.1 82.4 29.951 7.26 5.9 969 0.00 0.00 0.00 0.00
05/08/26 12:58:30 PM 37 2.0 10.0 65 44 73.1 82.5 29.951 7.26 5.9 969 0.00 0.00 0.00 0.00
05/08/26 12:59:19 PM 38 2.0 10.0 65 44 73.2 82.6 29.950 7.26 5.9 967 0.00 0.00 0.00 0.00
05/08/26 1:00:29 PM 35 4.0 10.0 65 44 73.1 82.7 29.949 7.26 5.8 962 0.00 0.00 0.00 0.00
05/08/26 1:01:21 PM 36 5.0 10.0 65 43 73.2 82.8 29.949 7.26 5.8 958 0.00 0.00 0.00 0.00
05/08/26 1:02:31 PM 32 2.0 10.0 65 45 73.2 82.9 29.949 7.26 5.8 960 0.00 0.00 0.00 0.00
05/08/26 1:03:24 PM 35 4.0 10.0 65 44 73.2 82.9 29.948 7.26 5.8 962 0.00 0.00 0.00 0.00
05/08/26 1:04:16 PM 32 6.0 10.0 65 44 73.3 82.9 29.950 7.26 5.8 963 0.00 0.00 0.00 0.00
05/08/26 1:05:29 PM 38 5.0 10.0 65 43 73.3 82.9 29.950 7.26 5.8 963 0.00 0.00 0.00 0.00
05/08/26 1:06:36 PM 35 3.0 10.0 65 43 73.3 82.7 29.948 7.26 5.8 963 0.00 0.00 0.00 0.00
05/08/26 1:07:29 PM 35 2.0 10.0 65 43 73.3 82.6 29.948 7.26 5.8 960 0.00 0.00 0.00 0.00
05/08/26 1:08:21 PM 36 1.0 10.0 65 43 73.4 82.6 29.945 7.26 5.8 958 0.00 0.00 0.00 0.00
05/08/26 1:09:31 PM 35 2.0 10.0 65 45 73.4 82.7 29.945 7.26 5.7 956 0.00 0.00 0.00 0.00
05/08/26 1:10:23 PM 38 3.0 10.0 65 44 73.5 82.8 29.948 7.26 5.7 958 0.00 0.00 0.00 0.00
05/08/26 1:11:30 PM 36 1.0 10.0 65 44 73.5 83.0 29.948 7.26 5.8 965 0.00 0.00 0.00 0.00
05/08/26 1:12:23 PM 36 1.0 10.0 65 44 73.5 83.0 29.946 7.26 5.8 965 0.00 0.00 0.00 0.00
05/08/26 1:13:36 PM 36 1.0 10.0 65 44 73.5 83.0 29.944 7.26 5.8 965 0.00 0.00 0.00 0.00
05/08/26 1:14:28 PM 36 1.0 10.0 65 44 73.6 83.0 29.948 7.26 5.8 965 0.00 0.00 0.00 0.00
05/08/26 1:15:20 PM 36 1.0 10.0 65 44 73.6 83.0 29.945 7.26 5.8 965 0.00 0.00 0.00 0.00
05/08/26 1:17:58 PM 35 3.0 10.0 65 44 73.8 83.0 29.944 7.26 5.8 965 0.00 0.00 0.00 0.00
05/08/26 1:18:29 PM 36 4.0 10.0 65 44 73.9 83.6 29.944 7.26 5.8 962 0.00 0.00 0.00 0.00
05/08/26 1:19:18 PM 37 6.0 10.0 65 42 73.9 83.5 29.944 7.26 5.8 962 0.00 0.00 0.00 0.00
05/08/26 1:20:32 PM 35 3.0 10.0 65 41 73.9 83.4 29.943 7.26 5.7 962 0.00 0.00 0.00 0.00
05/08/26 1:21:24 PM 32 3.0 10.0 65 42 73.9 83.3 29.943 7.26 5.7 956 0.00 0.00 0.00 0.00
05/08/26 1:22:16 PM 35 0.0 10.0 65 42 73.9 83.1 29.943 7.26 5.7 953 0.00 0.00 0.00 0.00
05/08/26 1:23:23 PM 32 1.0 10.0 65 42 74.0 83.1 29.942 7.26 5.8 956 0.00 0.00 0.00 0.00
05/08/26 1:24:16 PM 35 5.0 10.0 65 42 74.0 83.1 29.942 7.26 5.8 954 0.00 0.00 0.00 0.00
05/08/26 1:25:29 PM 38 3.0 10.0 65 43 73.9 83.1 29.942 7.26 5.8 960 0.00 0.00 0.00 0.00
05/08/26 1:26:21 PM 34 5.0 10.0 65 43 74.0 83.1 29.941 7.26 5.7 962 0.00 0.00 0.00 0.00
05/08/26 1:27:31 PM 32 2.0 10.0 65 42 74.0 83.2 29.942 7.26 5.7 958 0.00 0.00 0.00 0.00
05/08/26 1:28:21 PM 36 6.0 10.0 65 42 74.0 83.3 29.942 7.26 5.7 954 0.00 0.00 0.00 0.00
05/08/26 1:29:31 PM 36 6.0 10.0 65 42 74.0 83.2 29.939 7.26 5.7 951 0.00 0.00 0.00 0.00
05/08/26 1:30:26 PM 36 6.0 10.0 65 43 74.1 83.2 29.941 7.26 5.7 951 0.00 0.00 0.00 0.00
05/08/26 1:31:18 PM 38 5.0 10.0 65 42 74.1 83.2 29.940 7.26 5.7 954 0.00 0.00 0.00 0.00
05/08/26 1:32:29 PM 35 5.0 10.0 65 42 74.1 83.0 29.937 7.26 5.6 949 0.00 0.00 0.00 0.00
05/08/26 1:33:21 PM 32 5.0 10.0 65 42 74.1 83.0 29.939 7.26 5.6 949 0.00 0.00 0.00 0.00
05/08/26 1:34:31 PM 36 2.0 10.0 65 42 74.2 82.9 29.940 7.26 5.6 949 0.00 0.00 0.00 0.00
05/08/26 1:35:23 PM 32 1.0 10.0 65 42 74.2 82.9 29.942 7.26 5.6 949 0.00 0.00 0.00 0.00
05/08/26 1:36:34 PM 38 3.0 10.0 65 42 74.2 82.9 29.938 7.26 5.6 947 0.00 0.00 0.00 0.00
05/08/26 1:37:26 PM 37 5.0 10.0 65 43 74.2 83.0 29.939 7.26 5.6 946 0.00 0.00 0.00 0.00
05/08/26 1:38:18 PM 34 5.0 10.0 65 45 74.3 83.0 29.940 7.26 5.6 949 0.00 0.00 0.00 0.00
05/08/26 1:39:28 PM 36 6.0 10.0 65 43 74.3 83.0 29.938 7.26 5.6 946 0.00 0.00 0.00 0.00
05/08/26 1:40:20 PM 32 5.0 10.0 65 43 74.3 83.1 29.938 7.26 5.6 951 0.00 0.00 0.00 0.00
05/08/26 1:41:31 PM 38 5.0 10.0 65 42 74.3 83.2 29.936 7.26 5.6 946 0.00 0.00 0.00 0.00
05/08/26 1:42:23 PM 36 3.0 10.0 65 42 74.3 83.3 29.936 7.26 5.6 946 0.00 0.00 0.00 0.00
05/08/26 1:43:36 PM 38 2.0 10.0 65 42 74.4 83.5 29.937 7.26 5.5 940 0.00 0.00 0.00 0.00
05/08/26 1:44:23 PM 32 2.0 10.0 65 42 74.4 83.6 29.934 7.26 5.5 935 0.00 0.00 0.00 0.00
05/08/26 1:45:39 PM 36 4.0 10.0 65 42 74.4 83.8 29.935 7.26 5.5 935 0.00 0.00 0.00 0.00
05/08/26 1:46:28 PM 32 3.0 10.0 65 43 74.5 84.0 29.933 7.26 5.5 939 0.00 0.00 0.00 0.00
05/08/26 1:47:20 PM 32 2.0 10.0 65 42 74.5 84.2 29.936 7.26 5.5 942 0.00 0.00 0.00 0.00
05/08/26 1:48:33 PM 35 6.0 10.0 65 41 74.6 84.4 29.932 7.26 5.5 940 0.00 0.00 0.00 0.00
05/08/26 1:49:26 PM 35 5.0 10.0 65 42 74.6 84.5 29.931 7.26 5.5 940 0.00 0.00 0.00 0.00
05/08/26 1:50:33 PM 35 7.0 13.0 65 41 74.6 84.5 29.932 7.26 5.5 940 0.00 0.00 0.00 0.00
05/08/26 1:51:25 PM 35 10.0 14.0 65 40 74.6 84.6 29.931 7.26 5.5 940 0.00 0.00 0.00 0.00
05/08/26 1:52:17 PM 32 9.0 14.0 65 40 74.6 84.6 29.931 7.26 5.4 940 0.00 0.00 0.00 0.00
05/08/26 1:53:28 PM 38 3.0 14.0 65 39 74.6 84.5 29.932 7.26 5.4 937 0.00 0.00 0.00 0.00
05/08/26 1:54:20 PM 35 3.0 14.0 65 39 74.6 84.5 29.931 7.26 5.4 940 0.00 0.00 0.00 0.00
05/08/26 1:55:27 PM 35 4.0 14.0 65 40 74.7 84.5 29.930 7.26 5.4 937 0.00 0.00 0.00 0.00
05/08/26 1:56:19 PM 34 3.0 14.0 65 40 74.7 84.5 29.932 7.26 5.4 933 0.00 0.00 0.00 0.00
05/08/26 1:57:33 PM 36 9.0 14.0 65 40 74.7 84.6 29.931 7.26 5.3 932 0.00 0.00 0.00 0.00
05/08/26 1:58:25 PM 36 6.0 14.0 65 39 74.8 84.6 29.931 7.26 5.3 930 0.00 0.00 0.00 0.00
05/08/26 1:59:35 PM 35 5.0 14.0 65 39 74.8 84.6 29.930 7.26 5.3 926 0.00 0.00 0.00 0.00
05/08/26 2:00:24 PM 36 7.0 14.0 65 39 74.9 84.5 29.931 7.26 5.2 925 0.00 0.00 0.00 0.00
05/08/26 2:01:17 PM 35 2.0 14.0 65 39 74.9 84.4 29.931 7.26 5.2 921 0.00 0.00 0.00 0.00
05/08/26 2:02:27 PM 31 5.0 14.0 65 39 74.9 84.3 29.930 7.26 5.1 916 0.00 0.00 0.00 0.00
05/08/26 2:03:19 PM 36 4.0 14.0 65 39 74.9 84.3 29.930 7.26 5.1 914 0.00 0.00 0.00 0.00
05/08/26 2:04:32 PM 32 0.0 14.0 65 39 75.0 84.2 29.930 7.26 5.1 914 0.00 0.00 0.00 0.00
05/08/26 2:05:25 PM 36 2.0 14.0 65 39 74.9 84.2 29.926 7.26 5.2 918 0.00 0.00 0.00 0.00
05/08/26 2:06:32 PM 35 1.0 14.0 65 40 75.0 84.3 29.928 7.26 5.2 921 0.00 0.00 0.00 0.00
05/08/26 2:07:24 PM 34 2.0 14.0 65 39 75.0 84.3 29.930 7.26 5.2 918 0.00 0.00 0.00 0.00
05/08/26 2:08:37 PM 35 6.0 14.0 65 40 75.1 84.3 29.928 7.26 5.2 918 0.00 0.00 0.00 0.00
05/08/26 2:09:30 PM 36 4.0 14.0 65 40 75.1 84.4 29.925 7.26 5.1 912 0.00 0.00 0.00 0.00
05/08/26 2:10:22 PM 36 6.0 14.0 65 40 75.1 84.5 29.927 7.26 5.1 911 0.00 0.00 0.00 0.00
05/08/26 2:11:29 PM 35 9.0 14.0 65 39 75.1 84.7 29.928 7.26 5.0 907 0.00 0.00 0.00 0.00
05/08/26 2:12:21 PM 35 4.0 14.0 65 38 75.2 84.8 29.924 7.26 5.1 907 0.00 0.00 0.00 0.00
05/08/26 2:13:35 PM 31 5.0 14.0 65 38 75.2 84.7 29.925 7.26 5.0 909 0.00 0.00 0.00 0.00
05/08/26 2:14:27 PM 32 6.0 14.0 65 38 75.2 84.8 29.926 7.26 5.0 909 0.00 0.00 0.00 0.00
05/08/26 2:15:19 PM 35 6.0 14.0 65 38 75.3 84.8 29.925 7.26 5.0 909 0.00 0.00 0.00 0.00
05/08/26 2:16:26 PM 35 5.0 14.0 65 37 75.3 84.9 29.926 7.26 5.0 907 0.00 0.00 0.00 0.00
05/08/26 2:17:19 PM 35 4.0 14.0 65 38 75.3 84.9 29.924 7.26 4.9 900 0.00 0.00 0.00 0.00
05/08/26 2:18:32 PM 35 4.0 14.0 65 37 75.4 85.0 29.925 7.26 5.0 900 0.00 0.00 0.00 0.00
05/08/26 2:19:24 PM 35 5.0 14.0 65 38 75.4 85.1 29.925 7.26 4.9 902 0.00 0.00 0.00 0.00
05/08/26 2:20:34 PM 36 10.0 14.0 65 38 75.4 85.3 29.923 7.26 4.9 900 0.00 0.00 0.00 0.00
05/08/26 2:21:27 PM 36 7.0 14.0 65 38 75.4 85.4 29.923 7.26 4.9 896 0.00 0.00 0.00 0.00
05/08/26 2:22:34 PM 38 4.0 14.0 65 37 75.5 85.4 29.925 7.26 4.9 895 0.00 0.00 0.00 0.00
05/08/26 2:23:29 PM 34 4.0 14.0 65 37 75.4 85.4 29.925 7.26 4.8 891 0.00 0.00 0.00 0.00
05/08/26 2:24:18 PM 38 2.0 14.0 65 37 75.5 85.4 29.926 7.26 4.8 888 0.00 0.00 0.00 0.00
05/08/26 2:25:32 PM 32 6.0 14.0 65 38 75.5 85.4 29.924 7.26 4.8 888 0.00 0.00 0.00 0.00
05/08/26 2:26:27 PM 34 2.0 14.0 65 39 75.6 85.5 29.925 7.26 4.8 888 0.00 0.00 0.00 0.00
05/08/26 2:27:34 PM 34 4.0 14.0 65 38 75.6 85.6 29.923 7.26 4.8 888 0.00 0.00 0.00 0.00
05/08/26 2:28:23 PM 34 6.0 14.0 65 39 75.6 85.8 29.924 7.26 4.8 886 0.00 0.00 0.00 0.00
05/08/26 2:29:19 PM 36 5.0 14.0 65 37 75.6 85.9 29.926 7.26 4.8 884 0.00 0.00 0.00 0.00
05/08/26 2:30:53 PM 32 5.0 14.0 65 36 75.6 85.8 29.923 7.26 4.7 884 0.00 0.00 0.00 0.00
05/08/26 2:31:21 PM 36 3.0 14.0 65 36 75.7 85.6 29.922 7.26 4.7 881 0.00 0.00 0.00 0.00
05/08/26 2:32:35 PM 35 5.0 14.0 65 36 75.7 85.4 29.923 7.26 4.7 879 0.00 0.00 0.00 0.00
05/08/26 2:33:21 PM 36 5.0 14.0 65 35 75.7 85.1 29.923 7.26 4.7 879 0.00 0.00 0.00 0.00
05/08/26 2:34:34 PM 32 4.0 14.0 65 36 75.8 84.7 29.923 7.26 4.6 877 0.00 0.00 0.00 0.00
05/08/26 2:35:27 PM 32 6.0 14.0 65 36 75.8 84.4 29.923 7.26 4.6 877 0.00 0.00 0.00 0.00
05/08/26 2:36:19 PM 38 3.0 14.0 65 37 75.8 84.3 29.922 7.26 4.6 877 0.00 0.00 0.00 0.00
05/08/26 2:37:32 PM 32 3.0 14.0 65 38 75.8 84.4 29.922 7.26 4.5 874 0.00 0.00 0.00 0.00
05/08/26 2:38:18 PM 35 2.0 14.0 65 39 75.9 84.5 29.921 7.26 4.5 868 0.00 0.00 0.00 0.00
05/08/26 2:39:32 PM 35 4.0 14.0 65 38 75.8 84.7 29.920 7.26 4.5 865 0.00 0.00 0.00 0.00
05/08/26 2:40:24 PM 32 6.0 14.0 65 37 75.9 84.8 29.921 7.26 4.5 863 0.00 0.00 0.00 0.00
05/08/26 2:41:34 PM 36 1.0 14.0 65 36 75.9 84.8 29.920 7.26 4.5 865 0.00 0.00 0.00 0.00
05/08/26 2:42:26 PM 34 2.0 14.0 65 36 75.9 84.9 29.922 7.26 4.5 865 0.00 0.00 0.00 0.00
05/08/26 2:43:19 PM 32 8.0 14.0 65 36 76.0 85.0 29.921 7.26 4.5 865 0.00 0.00 0.00 0.00
05/08/26 2:44:26 PM 35 6.0 14.0 65 36 75.9 85.1 29.920 7.26 4.4 860 0.00 0.00 0.00 0.00
05/08/26 2:45:18 PM 34 8.0 14.0 65 36 76.0 85.3 29.920 7.26 4.4 861 0.00 0.00 0.00 0.00
05/08/26 2:46:31 PM 32 6.0 14.0 65 36 76.0 85.4 29.920 7.26 4.4 860 0.00 0.00 0.00 0.00
05/08/26 2:47:24 PM 32 5.0 14.0 65 36 76.0 85.4 29.920 7.26 4.4 853 0.00 0.00 0.00 0.00
05/08/26 2:48:34 PM 36 4.0 14.0 65 35 76.1 85.5 29.921 7.26 4.3 851 0.00 0.00 0.00 0.00
05/08/26 2:49:23 PM 35 5.0 14.0 65 35 76.1 85.5 29.920 7.26 4.3 847 0.00 0.00 0.00 0.00
05/08/26 2:50:34 PM 36 6.0 14.0 65 36 76.1 85.5 29.920 7.26 4.2 846 0.00 0.00 0.00 0.00
05/08/26 2:51:26 PM 35 2.0 14.0 65 37 76.1 85.6 29.919 7.26 4.2 846 0.00 0.00 0.00 0.00
05/08/26 2:52:18 PM 36 2.0 14.0 65 37 76.1 85.7 29.919 7.26 4.2 840 0.00 0.00 0.00 0.00
05/08/26 2:53:32 PM 36 4.0 14.0 65 36 76.2 86.0 29.919 7.26 4.2 844 0.00 0.00 0.00 0.00
05/08/26 2:54:21 PM 35 5.0 14.0 65 35 76.2 86.1 29.921 7.26 4.2 837 0.00 0.00 0.00 0.00
05/08/26 2:55:32 PM 32 6.0 14.0 65 35 76.2 86.3 29.919 7.26 4.2 837 0.00 0.00 0.00 0.00
05/08/26 2:56:24 PM 35 4.0 14.0 65 35 76.2 86.4 29.920 7.26 4.1 837 0.00 0.00 0.00 0.00
05/08/26 2:57:35 PM 35 3.0 14.0 65 35 76.2 86.5 29.921 7.26 4.2 838 0.00 0.00 0.00 0.00
05/08/26 2:58:27 PM 32 5.0 14.0 65 34 76.2 86.5 29.918 7.26 4.2 831 0.00 0.00 0.00 0.00
05/08/26 2:59:19 PM 34 4.0 14.0 65 34 76.3 86.5 29.918 7.26 4.1 831 0.00 0.00 0.00 0.00
05/08/26 3:00:48 PM 35 6.0 14.0 65 34 76.3 86.5 29.918 7.26 4.0 830 0.00 0.00 0.00 0.00
05/08/26 3:01:19 PM 34 5.0 14.0 65 35 76.3 86.5 29.917 7.26 4.0 826 0.00 0.00 0.00 0.00
05/08/26 3:02:30 PM 36 2.0 14.0 65 34 76.3 86.5 29.919 7.26 4.0 826 0.00 0.00 0.00 0.00
05/08/26 3:03:22 PM 34 6.0 14.0 65 35 76.3 86.6 29.916 7.26 4.0 819 0.00 0.00 0.00 0.00
05/08/26 3:04:36 PM 34 5.0 14.0 65 34 76.4 86.5 29.916 7.26 4.0 823 0.00 0.00 0.00 0.00
05/08/26 3:05:25 PM 35 3.0 14.0 65 34 76.4 86.5 29.917 7.26 4.0 819 0.00 0.00 0.00 0.00
05/08/26 3:06:18 PM 35 5.0 14.0 65 33 76.4 86.4 29.916 7.26 4.0 819 0.00 0.00 0.00 0.00
05/08/26 3:07:28 PM 34 10.0 14.0 65 35 76.4 86.4 29.912 7.26 4.0 821 0.00 0.00 0.00 0.00
05/08/26 3:08:21 PM 35 5.0 14.0 65 34 76.4 86.4 29.914 7.26 3.9 817 0.00 0.00 0.00 0.00
05/08/26 3:09:34 PM 35 2.0 14.0 65 34 76.4 86.4 29.915 7.26 3.9 814 0.00 0.00 0.00 0.00
05/08/26 3:10:24 PM 32 9.0 14.0 65 34 76.4 86.4 29.913 7.26 3.8 814 0.00 0.00 0.00 0.00
05/08/26 3:11:34 PM 35 4.0 14.0 65 34 76.5 86.5 29.914 7.26 3.8 803 0.00 0.00 0.00 0.00
05/08/26 3:12:23 PM 34 5.0 14.0 65 34 76.5 86.6 29.913 7.26 3.7 796 0.00 0.00 0.00 0.00
05/08/26 3:13:16 PM 35 4.0 14.0 65 34 76.5 86.7 29.913 7.26 3.7 796 0.00 0.00 0.00 0.00
05/08/26 3:14:29 PM 35 3.0 14.0 65 33 76.5 86.8 29.914 7.26 3.6 784 0.00 0.00 0.00 0.00
05/08/26 3:15:22 PM 35 5.0 14.0 65 35 76.5 86.8 29.912 7.26 3.6 786 0.00 0.00 0.00 0.00
05/08/26 3:16:29 PM 34 9.0 14.0 65 35 76.5 86.8 29.910 7.26 3.6 786 0.00 0.00 0.00 0.00
05/08/26 3:17:22 PM 35 4.0 14.0 65 34 76.5 86.7 29.908 7.26 3.5 775 0.00 0.00 0.00 0.00
05/08/26 3:18:32 PM 35 3.0 14.0 65 35 76.5 86.7 29.909 7.26 3.6 784 0.00 0.00 0.00 0.00
05/08/26 3:19:25 PM 32 3.0 14.0 65 35 76.6 86.6 29.912 7.26 3.6 784 0.00 0.00 0.00 0.00
05/08/26 3:20:17 PM 36 11.0 14.0 65 36 76.5 86.7 29.910 7.26 3.6 784 0.00 0.00 0.00 0.00
05/08/26 3:21:28 PM 35 12.0 14.0 65 35 76.5 86.7 29.910 7.26 3.5 777 0.00 0.00 0.00 0.00
05/08/26 3:22:20 PM 38 6.0 14.0 65 35 76.5 86.7 29.910 7.26 3.5 775 0.00 0.00 0.00 0.00
05/08/26 3:23:31 PM 34 4.0 14.0 65 35 76.6 86.6 29.910 7.26 3.4 770 0.00 0.00 0.00 0.00
05/08/26 3:24:23 PM 34 9.0 14.0 65 35 76.6 86.6 29.911 7.26 3.4 766 0.00 0.00 0.00 0.00
05/08/26 3:25:34 PM 34 6.0 14.0 65 36 76.6 86.5 29.913 7.26 3.4 765 0.00 0.00 0.00 0.00
05/08/26 3:26:26 PM 35 4.0 14.0 65 35 76.7 86.4 29.910 7.26 3.4 765 0.00 0.00 0.00 0.00
05/08/26 3:27:34 PM 35 7.0 14.0 65 35 76.6 86.3 29.910 7.26 3.3 759 0.00 0.00 0.00 0.00
05/08/26 3:28:26 PM 36 6.0 14.0 65 35 76.7 86.2 29.909 7.26 3.3 756 0.00 0.00 0.00 0.00
05/08/26 3:29:19 PM 32 4.0 14.0 65 35 76.6 86.0 29.910 7.26 3.3 758 0.00 0.00 0.00 0.00
05/08/26 3:30:53 PM 32 2.0 14.0 65 35 76.6 85.9 29.907 7.26 3.3 752 0.00 0.00 0.00 0.00
05/08/26 3:31:25 PM 35 2.0 14.0 65 35 76.6 85.9 29.908 7.26 3.3 752 0.00 0.00 0.00 0.00
05/08/26 3:32:32 PM 32 8.0 14.0 65 36 76.6 86.0 29.906 7.26 3.3 751 0.00 0.00 0.00 0.00
05/08/26 3:33:22 PM 35 7.0 14.0 65 35 76.7 86.1 29.910 7.26 3.2 751 0.00 0.00 0.00 0.00
05/08/26 3:34:35 PM 35 6.0 14.0 65 35 76.6 86.1 29.909 7.26 3.2 742 0.00 0.00 0.00 0.00
05/08/26 3:35:28 PM 34 6.0 14.0 65 34 76.7 86.1 29.907 7.26 3.1 738 0.00 0.00 0.00 0.00
05/08/26 3:36:17 PM 37 5.0 14.0 65 34 76.7 86.1 29.910 7.26 3.1 735 0.00 0.00 0.00 0.00
05/08/26 3:37:31 PM 34 3.0 14.0 65 35 76.7 86.1 29.908 7.26 3.1 737 0.00 0.00 0.00 0.00
05/08/26 3:38:17 PM 36 9.0 14.0 65 35 76.7 86.1 29.908 7.26 3.1 744 0.00 0.00 0.00 0.00
05/08/26 3:39:31 PM 36 9.0 14.0 65 35 76.7 86.1 29.909 7.26 3.1 738 0.00 0.00 0.00 0.00
05/08/26 3:40:23 PM 36 9.0 14.0 65 35 76.7 86.1 29.907 7.26 3.1 731 0.00 0.00 0.00 0.00
05/08/26 3:41:34 PM 36 5.0 14.0 65 35 76.8 86.1 29.908 7.26 3.0 726 0.00 0.00 0.00 0.00
05/08/26 3:42:26 PM 32 4.0 14.0 65 34 76.8 86.1 29.910 7.26 3.0 726 0.00 0.00 0.00 0.00
05/08/26 3:43:34 PM 36 6.0 14.0 65 35 76.8 86.2 29.907 7.26 3.0 726 0.00 0.00 0.00 0.00
05/08/26 3:44:26 PM 32 4.0 14.0 65 36 76.8 86.3 29.907 7.26 3.0 721 0.00 0.00 0.00 0.00
05/08/26 3:45:19 PM 31 1.0 14.0 65 34 76.8 86.4 29.907 7.26 3.0 715 0.00 0.00 0.00 0.00
05/08/26 3:46:29 PM 31 4.0 14.0 65 33 76.8 86.5 29.907 7.26 2.9 715 0.00 0.00 0.00 0.00
05/08/26 3:47:22 PM 32 9.0 14.0 65 34 76.8 86.7 29.909 7.26 2.9 715 0.00 0.00 0.00 0.00
05/08/26 3:48:29 PM 38 10.0 14.0 65 34 76.8 86.8 29.905 7.26 2.9 712 0.00 0.00 0.00 0.00
05/08/26 3:49:19 PM 36 5.0 14.0 65 33 76.8 86.8 29.905 7.26 2.8 705 0.00 0.00 0.00 0.00
05/08/26 3:50:32 PM 34 9.0 14.0 65 33 76.8 86.8 29.905 7.26 2.8 701 0.00 0.00 0.00 0.00
05/08/26 3:51:25 PM 35 5.0 14.0 65 34 76.9 86.8 29.908 7.26 2.8 700 0.00 0.00 0.00 0.00
05/08/26 3:52:35 PM 35 5.0 14.0 65 34 76.9 86.8 29.906 7.26 2.8 703 0.00 0.00 0.00 0.00
05/08/26 3:53:28 PM 32 5.0 14.0 65 33 76.9 86.8 29.906 7.26 2.8 696 0.00 0.00 0.00 0.00
05/08/26 3:54:35 PM 35 5.0 14.0 65 33 76.9 86.8 29.903 7.26 2.7 689 0.00 0.00 0.00 0.00
05/08/26 3:55:28 PM 34 4.0 14.0 65 33 76.9 86.8 29.904 7.26 2.7 689 0.00 0.00 0.00 0.00
05/08/26 3:56:17 PM 36 4.0 14.0 65 33 76.9 86.7 29.905 7.26 2.7 689 0.00 0.00 0.00 0.00
05/08/26 3:57:31 PM 38 5.0 14.0 65 33 76.9 86.7 29.904 7.26 2.7 684 0.00 0.00 0.00 0.00
05/08/26 3:58:20 PM 38 9.0 14.0 65 34 77.0 86.7 29.907 7.26 2.7 684 0.00 0.00 0.00 0.00
05/08/26 3:59:31 PM 37 6.0 14.0 65 32 76.9 86.7 29.904 7.26 2.6 679 0.00 0.00 0.00 0.00
05/08/26 4:00:23 PM 32 10.0 14.0 65 33 77.0 86.7 29.906 7.26 2.6 668 0.00 0.00 0.00 0.00
05/08/26 4:01:34 PM 32 5.0 14.0 65 34 77.0 86.7 29.904 7.26 2.6 666 0.00 0.00 0.00 0.00
05/08/26 4:02:26 PM 34 5.0 14.0 65 34 77.0 86.7 29.904 7.26 2.5 664 0.00 0.00 0.00 0.00
05/08/26 4:03:19 PM 35 3.0 14.0 65 34 77.0 86.7 29.903 7.26 2.5 664 0.00 0.00 0.00 0.00
05/08/26 4:04:26 PM 34 2.0 14.0 65 35 77.0 86.7 29.903 7.26 2.5 666 0.00 0.00 0.00 0.00
05/08/26 4:05:19 PM 35 3.0 14.0 65 35 77.0 86.7 29.902 7.26 2.5 654 0.00 0.00 0.00 0.00
05/08/26 4:06:32 PM 35 4.0 14.0 65 36 77.0 86.8 29.903 7.26 2.5 652 0.00 0.00 0.00 0.00
05/08/26 4:07:22 PM 35 6.0 14.0 65 36 77.0 86.9 29.903 7.26 2.4 650 0.00 0.00 0.00 0.00
05/08/26 4:08:35 PM 37 10.0 14.0 65 34 77.1 86.9 29.901 7.26 2.4 647 0.00 0.00 0.00 0.00
05/08/26 4:09:28 PM 32 8.0 14.0 65 35 77.1 86.8 29.903 7.26 2.4 645 0.00 0.00 0.00 0.00
05/08/26 4:10:35 PM 36 6.0 14.0 65 35 77.0 86.7 29.902 7.26 2.4 642 0.00 0.00 0.00 0.00
05/08/26 4:11:28 PM 36 5.0 14.0 65 34 77.0 86.6 29.904 7.26 2.3 638 0.00 0.00 0.00 0.00
05/08/26 4:12:20 PM 35 7.0 14.0 65 34 77.0 86.4 29.902 7.26 2.3 638 0.00 0.00 0.00 0.00
05/08/26 4:13:31 PM 32 6.0 14.0 65 34 77.0 86.3 29.899 7.26 2.3 633 0.00 0.00 0.00 0.00
05/08/26 4:14:23 PM 34 6.0 14.0 65 34 77.1 86.2 29.901 7.26 2.3 628 0.00 0.00 0.00 0.00
05/08/26 4:15:34 PM 35 10.0 14.0 65 34 77.1 86.2 29.902 7.26 2.2 628 0.00 0.00 0.00 0.00
05/08/26 4:16:23 PM 35 5.0 14.0 65 34 77.0 86.1 29.903 7.26 2.2 622 0.00 0.00 0.00 0.00
05/08/26 4:17:34 PM 31 4.0 14.0 65 33 77.1 86.0 29.900 7.26 2.2 622 0.00 0.00 0.00 0.00
05/08/26 4:18:27 PM 35 6.0 14.0 65 34 77.1 86.0 29.901 7.26 2.2 619 0.00 0.00 0.00 0.00
05/08/26 4:19:19 PM 34 5.0 14.0 65 34 77.1 85.9 29.902 7.26 2.2 613 0.00 0.00 0.00 0.00
05/08/26 4:20:27 PM 32 8.0 14.0 65 34 77.0 85.9 29.902 7.26 2.1 608 0.00 0.00 0.00 0.00
05/08/26 4:21:19 PM 37 5.0 14.0 65 34 77.0 85.8 29.898 7.26 2.1 606 0.00 0.00 0.00 0.00
05/08/26 4:22:33 PM 36 2.0 14.0 65 34 77.0 85.8 29.898 7.26 2.1 605 0.00 0.00 0.00 0.00
05/08/26 4:23:28 PM 35 7.0 14.0 65 34 77.0 85.8 29.902 7.26 2.1 599 0.00 0.00 0.00 0.00
05/08/26 4:24:18 PM 35 12.0 14.0 65 34 77.0 85.8 29.899 7.26 2.1 599 0.00 0.00 0.00 0.00
05/08/26 4:25:28 PM 32 3.0 14.0 65 35 77.0 85.8 29.899 7.26 2.1 598 0.00 0.00 0.00 0.00
05/08/26 4:26:18 PM 38 9.0 14.0 65 35 77.0 85.7 29.898 7.26 2.0 591 0.00 0.00 0.00 0.00
05/08/26 4:27:31 PM 31 5.0 14.0 65 35 77.0 85.7 29.897 7.26 2.0 585 0.00 0.00 0.00 0.00
05/08/26 4:28:24 PM 35 5.0 14.0 65 35 76.9 85.7 29.897 7.26 2.0 582 0.00 0.00 0.00 0.00
05/08/26 4:29:34 PM 37 3.0 14.0 65 34 77.0 85.6 29.897 7.26 1.9 580 0.00 0.00 0.00 0.00
05/08/26 4:30:27 PM 32 9.0 14.0 65 34 77.0 85.6 29.897 7.26 1.9 580 0.00 0.00 0.00 0.00
05/08/26 4:31:34 PM 35 5.0 14.0 65 35 77.0 85.6 29.894 7.26 1.9 580 0.00 0.00 0.00 0.00
05/08/26 4:32:27 PM 36 5.0 14.0 65 36 77.0 85.6 29.897 7.26 1.9 570 0.00 0.00 0.00 0.00
05/08/26 4:33:19 PM 37 10.0 14.0 65 37 77.0 85.6 29.895 7.26 1.9 566 0.00 0.00 0.00 0.00
05/08/26 4:34:30 PM 37 5.0 14.0 65 37 77.0 85.7 29.896 7.26 1.8 564 0.00 0.00 0.00 0.00
05/08/26 4:35:23 PM 38 7.0 14.0 65 37 77.1 85.7 29.894 7.26 1.8 561 0.00 0.00 0.00 0.00
05/08/26 4:36:27 PM 32 5.0 14.0 65 36 77.1 85.6 29.895 7.26 1.8 559 0.00 0.00 0.00 0.00
05/08/26 4:37:20 PM 34 9.0 14.0 65 36 77.1 85.6 29.897 7.26 1.8 552 0.00 0.00 0.00 0.00
05/08/26 4:38:33 PM 36 5.0 14.0 65 37 77.1 85.6 29.896 7.26 1.7 547 0.00 0.00 0.00 0.00
05/08/26 4:39:26 PM 31 6.0 14.0 65 36 77.2 85.5 29.898 7.26 1.7 543 0.00 0.00 0.00 0.00
05/08/26 4:40:18 PM 34 8.0 14.0 65 35 77.1 85.5 29.897 7.26 1.7 540 0.00 0.00 0.00 0.00
05/08/26 4:41:29 PM 31 6.0 14.0 65 35 77.1 85.5 29.897 7.26 1.7 538 0.00 0.00 0.00 0.00
05/08/26 4:42:16 PM 32 6.0 14.0 65 35 77.1 85.5 29.897 7.26 1.7 538 0.00 0.00 0.00 0.00
05/08/26 4:43:29 PM 35 6.0 14.0 65 36 77.1 85.4 29.897 7.26 1.6 533 0.00 0.00 0.00 0.00
05/08/26 4:44:22 PM 34 6.0 14.0 65 36 77.1 85.4 29.897 7.26 1.6 527 0.00 0.00 0.00 0.00
05/08/26 4:45:56 PM 38 4.0 14.0 65 35 77.1 85.3 29.898 7.26 1.6 522 0.00 0.00 0.00 0.00
05/08/26 4:46:25 PM 35 9.0 14.0 65 36 77.1 85.3 29.896 7.26 1.6 522 0.00 0.00 0.00 0.00
05/08/26 4:47:17 PM 37 3.0 14.0 65 36 77.1 85.3 29.896 7.26 1.6 520 0.00 0.00 0.00 0.00
05/08/26 4:48:25 PM 32 8.0 14.0 65 36 77.1 85.2 29.897 7.26 1.5 517 0.00 0.00 0.00 0.00
05/08/26 4:49:18 PM 34 5.0 14.0 65 35 77.1 85.2 29.896 7.26 1.5 512 0.00 0.00 0.00 0.00
05/08/26 4:50:29 PM 36 5.0 14.0 65 35 77.1 85.1 29.899 7.26 1.5 504 0.00 0.00 0.00 0.00
05/08/26 4:51:21 PM 31 3.0 14.0 65 35 77.1 85.1 29.896 7.26 1.5 506 0.00 0.00 0.00 0.00
05/08/26 4:52:35 PM 38 5.0 14.0 65 34 77.0 85.0 29.896 7.26 1.5 504 0.00 0.00 0.00 0.00
05/08/26 4:53:24 PM 30 10.0 14.0 65 35 77.1 85.0 29.895 7.26 1.5 501 0.00 0.00 0.00 0.00
05/08/26 4:54:35 PM 32 3.0 14.0 65 36 77.0 85.0 29.895 7.26 1.4 496 0.00 0.00 0.00 0.00
05/08/26 4:55:27 PM 35 6.0 14.0 65 36 77.0 85.0 29.894 7.26 1.4 496 0.00 0.00 0.00 0.00
05/08/26 4:56:17 PM 34 6.0 14.0 65 35 77.0 84.9 29.895 7.26 1.4 492 0.00 0.00 0.00 0.00
05/08/26 4:57:31 PM 36 5.0 14.0 65 36 77.0 84.9 29.895 7.26 1.4 483 0.00 0.00 0.00 0.00
05/08/26 4:58:17 PM 36 9.0 14.0 65 36 77.0 84.9 29.897 7.26 1.4 483 0.00 0.00 0.00 0.00
05/08/26 4:59:28 PM 32 8.0 14.0 65 36 77.0 84.9 29.894 7.26 1.3 478 0.00 0.00 0.00 0.00
05/08/26 5:00:44 PM 34 4.0 14.0 65 36 77.0 84.9 29.896 7.26 1.3 478 0.00 0.00 0.00 0.00
05/08/26 5:01:34 PM 34 4.0 14.0 65 36 77.0 84.9 29.897 7.26 1.3 478 0.00 0.00 0.00 0.00
05/08/26 5:02:23 PM 34 4.0 14.0 65 36 76.9 84.9 29.895 7.26 1.3 478 0.00 0.00 0.00 0.00
05/08/26 5:03:16 PM 34 4.0 14.0 65 36 77.0 84.9 29.896 7.26 1.3 478 0.00 0.00 0.00 0.00
05/08/26 5:04:24 PM 34 4.0 14.0 65 36 77.0 84.9 29.896 7.26 1.3 478 0.00 0.00 0.00 0.00
05/08/26 5:06:40 PM 34 4.0 14.0 65 36 77.2 84.3 29.899 7.26 1.3 478 0.00 0.00 0.00 0.00
05/08/26 5:07:33 PM 37 4.0 14.0 65 36 77.2 84.2 29.898 7.26 1.2 452 0.00 0.00 0.00 0.00
05/08/26 5:08:25 PM 34 6.0 14.0 65 36 77.1 84.1 29.897 7.26 1.2 450 0.00 0.00 0.00 0.00
05/08/26 5:09:36 PM 36 2.0 14.0 65 36 77.1 84.1 29.896 7.26 1.2 443 0.00 0.00 0.00 0.00
05/08/26 5:10:25 PM 38 2.0 14.0 65 36 77.1 84.1 29.894 7.26 1.2 443 0.00 0.00 0.00 0.00
05/08/26 5:11:36 PM 35 5.0 14.0 65 37 77.1 84.1 29.895 7.26 1.2 439 0.00 0.00 0.00 0.00
05/08/26 5:12:29 PM 36 7.0 14.0 65 35 77.1 84.2 29.896 7.26 1.1 438 0.00 0.00 0.00 0.00
05/08/26 5:13:18 PM 32 5.0 14.0 65 35 77.0 84.2 29.893 7.26 1.1 438 0.00 0.00 0.00 0.00
05/08/26 5:14:32 PM 35 5.0 14.0 65 36 77.1 84.2 29.895 7.26 1.1 427 0.00 0.00 0.00 0.00
05/08/26 5:15:24 PM 38 5.0 14.0 65 36 77.0 84.2 29.896 7.26 1.1 422 0.00 0.00 0.00 0.00
05/08/26 5:16:32 PM 38 5.0 14.0 65 37 77.0 84.2 29.894 7.26 1.1 418 0.00 0.00 0.00 0.00
05/08/26 5:17:25 PM 38 6.0 14.0 65 38 77.0 84.2 29.892 7.26 1.0 415 0.00 0.00 0.00 0.00
05/08/26 5:18:36 PM 34 6.0 14.0 65 38 77.0 84.2 29.895 7.26 1.0 415 0.00 0.00 0.00 0.00
05/08/26 5:19:28 PM 34 5.0 14.0 65 38 77.0 84.1 29.894 7.26 1.0 415 0.00 0.00 0.00 0.00
05/08/26 5:20:21 PM 34 5.0 14.0 65 38 77.0 84.1 29.894 7.26 1.0 406 0.00 0.00 0.00 0.00
05/08/26 5:21:28 PM 37 5.0 14.0 65 37 77.0 84.1 29.893 7.26 1.0 404 0.00 0.00 0.00 0.00
05/08/26 5:22:21 PM 36 7.0 14.0 65 38 76.9 84.1 29.894 7.26 1.0 399 0.00 0.00 0.00 0.00
05/08/26 5:23:31 PM 37 5.0 14.0 65 38 76.9 84.1 29.893 7.26 0.9 397 0.00 0.00 0.00 0.00
05/08/26 5:24:24 PM 36 7.0 14.0 65 38 76.9 84.1 29.893 7.26 0.9 396 0.00 0.00 0.00 0.00
05/08/26 5:25:16 PM 35 5.0 14.0 65 38 76.9 84.0 29.892 7.26 0.9 392 0.00 0.00 0.00 0.00
05/08/26 5:26:24 PM 31 8.0 14.0 65 38 76.9 84.0 29.895 7.26 0.9 390 0.00 0.00 0.00 0.00
05/08/26 5:27:16 PM 38 5.0 14.0 65 38 76.9 84.0 29.895 7.26 0.9 385 0.00 0.00 0.00 0.00
05/08/26 5:28:30 PM 34 4.0 14.0 65 38 76.9 83.9 29.895 7.26 0.9 378 0.00 0.00 0.00 0.00
05/08/26 5:29:23 PM 36 3.0 14.0 65 38 76.9 83.9 29.893 7.26 0.9 371 0.00 0.00 0.00 0.00
05/08/26 5:30:36 PM 34 1.0 14.0 65 38 76.9 83.9 29.893 7.26 0.8 369 0.00 0.00 0.00 0.00
05/08/26 5:31:29 PM 32 5.0 14.0 65 39 76.9 83.9 29.893 7.26 0.8 367 0.00 0.00 0.00 0.00
05/08/26 5:32:15 PM 35 7.0 14.0 65 38 76.9 83.9 29.891 7.26 0.8 366 0.00 0.00 0.00 0.00
05/08/26 5:33:29 PM 35 6.0 14.0 65 37 76.9 83.9 29.892 7.26 0.8 362 0.00 0.00 0.00 0.00
05/08/26 5:34:19 PM 35 7.0 14.0 65 38 76.9 83.9 29.893 7.26 0.8 357 0.00 0.00 0.00 0.00
05/08/26 5:35:32 PM 34 5.0 14.0 65 38 76.9 83.8 29.893 7.26 0.8 352 0.00 0.00 0.00 0.00
05/08/26 5:36:25 PM 35 5.0 14.0 65 38 76.9 83.7 29.894 7.26 0.7 346 0.00 0.00 0.00 0.00
05/08/26 5:37:32 PM 36 4.0 14.0 65 38 76.9 83.6 29.893 7.26 0.7 343 0.00 0.00 0.00 0.00
05/08/26 5:38:25 PM 32 6.0 14.0 65 39 76.8 83.5 29.892 7.26 0.7 341 0.00 0.00 0.00 0.00
05/08/26 5:39:35 PM 32 3.0 14.0 65 38 76.9 83.5 29.893 7.26 0.7 336 0.00 0.00 0.00 0.00
05/08/26 5:40:28 PM 35 4.0 14.0 65 38 76.9 83.4 29.893 7.26 0.7 336 0.00 0.00 0.00 0.00
05/08/26 5:41:17 PM 36 3.0 14.0 65 39 76.9 83.4 29.892 7.26 0.7 330 0.00 0.00 0.00 0.00
05/08/26 5:42:28 PM 32 3.0 14.0 65 39 76.9 83.4 29.893 7.26 0.7 323 0.00 0.00 0.00 0.00
05/08/26 5:43:17 PM 34 3.0 14.0 65 39 76.9 83.4 29.893 7.26 0.7 320 0.00 0.00 0.00 0.00
05/08/26 5:44:31 PM 35 7.0 14.0 65 40 76.9 83.4 29.894 7.26 0.6 316 0.00 0.00 0.00 0.00
05/08/26 5:45:27 PM 35 9.0 14.0 65 40 76.8 83.4 29.892 7.26 0.6 316 0.00 0.00 0.00 0.00
05/08/26 5:46:16 PM 35 9.0 14.0 65 40 76.8 83.3 29.894 7.26 0.6 311 0.00 0.00 0.00 0.00
05/08/26 5:47:30 PM 32 5.0 14.0 65 39 76.8 83.3 29.892 7.26 0.6 306 0.00 0.00 0.00 0.00
05/08/26 5:48:37 PM 35 6.0 14.0 65 39 76.8 83.2 29.892 7.26 0.6 304 0.00 0.00 0.00 0.00
05/08/26 5:49:27 PM 36 3.0 14.0 65 39 76.8 83.1 29.892 7.26 0.6 302 0.00 0.00 0.00 0.00
05/08/26 5:50:19 PM 31 5.0 14.0 65 40 76.8 83.0 29.890 7.26 0.6 299 0.00 0.00 0.00 0.00
05/08/26 5:51:33 PM 36 10.0 14.0 65 40 76.8 83.0 29.890 7.26 0.6 295 0.00 0.00 0.00 0.00
05/08/26 5:52:26 PM 32 9.0 14.0 65 40 76.8 82.9 29.891 7.26 0.5 290 0.00 0.00 0.00 0.00
05/08/26 5:53:33 PM 31 6.0 14.0 65 41 76.8 82.8 29.891 7.26 0.5 285 0.00 0.00 0.00 0.00
05/08/26 5:54:23 PM 34 8.0 14.0 65 41 76.8 82.7 29.889 7.26 0.5 283 0.00 0.00 0.00 0.00
05/08/26 5:55:16 PM 32 5.0 14.0 65 41 76.8 82.7 29.890 7.26 0.5 279 0.00 0.00 0.00 0.00
05/08/26 5:56:26 PM 35 6.0 14.0 65 41 76.8 82.5 29.887 7.26 0.5 274 0.00 0.00 0.00 0.00
05/08/26 5:57:19 PM 34 5.0 14.0 65 40 76.8 82.5 29.891 7.26 0.5 274 0.00 0.00 0.00 0.00
05/08/26 5:58:29 PM 32 5.0 14.0 65 41 76.8 82.4 29.891 7.26 0.5 269 0.00 0.00 0.00 0.00
05/08/26 5:59:19 PM 35 6.0 14.0 65 41 76.8 82.3 29.891 7.26 0.5 265 0.00 0.00 0.00 0.00
05/08/26 6:00:33 PM 36 5.0 14.0 65 41 76.7 82.3 29.891 7.26 0.5 262 0.00 0.00 0.00 0.00
05/08/26 6:01:22 PM 37 5.0 14.0 65 42 76.7 82.2 29.888 7.26 0.0 258 0.00 0.00 0.00 0.00
05/08/26 6:02:36 PM 38 2.0 14.0 65 42 76.7 82.2 29.891 7.26 0.0 255 0.00 0.00 0.00 0.00
05/08/26 6:03:28 PM 32 4.0 14.0 65 41 76.7 82.2 29.889 7.26 0.0 250 0.00 0.00 0.00 0.00
05/08/26 6:04:36 PM 36 2.0 14.0 65 42 76.7 82.2 29.891 7.26 0.0 246 0.00 0.00 0.00 0.00
05/08/26 6:05:28 PM 31 6.0 14.0 65 42 76.7 82.2 29.891 7.26 0.0 244 0.00 0.00 0.00 0.00
05/08/26 6:06:21 PM 35 5.0 14.0 65 42 76.7 82.2 29.891 7.26 0.0 244 0.00 0.00 0.00 0.00
05/08/26 6:07:32 PM 35 4.0 14.0 65 42 76.7 82.2 29.891 7.26 0.0 237 0.00 0.00 0.00 0.00
05/08/26 6:08:24 PM 35 3.0 14.0 65 43 76.7 82.2 29.891 7.26 0.0 237 0.00 0.00 0.00 0.00
05/08/26 6:09:29 PM 36 3.0 14.0 65 43 76.7 82.2 29.893 7.26 0.0 229 0.00 0.00 0.00 0.00
05/08/26 6:10:22 PM 36 2.0 14.0 65 43 76.7 82.2 29.892 7.26 0.0 225 0.00 0.00 0.00 0.00
05/08/26 6:11:35 PM 36 1.0 14.0 65 42 76.7 82.2 29.890 7.26 0.0 218 0.00 0.00 0.00 0.00
05/08/26 6:12:25 PM 35 0.0 14.0 65 42 76.7 82.1 29.889 7.26 0.0 214 0.00 0.00 0.00 0.00
05/08/26 6:13:18 PM 37 2.0 14.0 65 42 76.7 82.1 29.891 7.26 0.0 211 0.00 0.00 0.00 0.00
05/08/26 6:14:25 PM 36 5.0 14.0 65 43 76.7 82.1 29.891 7.26 0.0 207 0.00 0.00 0.00 0.00
05/08/26 6:15:21 PM 37 4.0 14.0 65 42 76.7 82.1 29.891 7.26 0.0 204 0.00 0.00 0.00 0.00
05/08/26 6:16:32 PM 36 5.0 14.0 65 42 76.7 82.2 29.891 7.26 0.0 200 0.00 0.00 0.00 0.00
05/08/26 6:17:21 PM 36 7.0 14.0 65 42 76.6 82.1 29.891 7.26 0.0 200 0.00 0.00 0.00 0.00
05/08/26 6:18:35 PM 36 2.0 14.0 65 42 76.7 82.0 29.891 7.26 0.0 195 0.00 0.00 0.00 0.00
05/08/26 6:19:24 PM 35 5.0 14.0 65 42 76.6 82.0 29.891 7.26 0.0 192 0.00 0.00 0.00 0.00
05/08/26 6:20:32 PM 37 4.0 14.0 65 43 76.6 81.9 29.891 7.26 0.0 188 0.00 0.00 0.00 0.00
05/08/26 6:21:24 PM 35 4.0 14.0 65 43 76.6 81.8 29.891 7.26 0.0 185 0.00 0.00 0.00 0.00
05/08/26 6:22:17 PM 38 4.0 14.0 65 43 76.6 81.8 29.893 7.26 0.0 179 0.00 0.00 0.00 0.00
05/08/26 6:23:31 PM 32 6.0 14.0 65 43 76.5 81.7 29.891 7.26 0.0 176 0.00 0.00 0.00 0.00
05/08/26 6:24:23 PM 35 4.0 14.0 65 43 76.5 81.7 29.890 7.26 0.0 171 0.00 0.00 0.00 0.00
05/08/26 6:25:31 PM 35 3.0 14.0 65 43 76.5 81.6 29.893 7.26 0.0 163 0.00 0.00 0.00 0.00
05/08/26 6:26:24 PM 32 1.0 14.0 65 44 76.6 81.6 29.894 7.26 0.0 163 0.00 0.00 0.00 0.00
05/08/26 6:27:34 PM 36 5.0 14.0 65 44 76.5 81.6 29.894 7.26 0.0 156 0.00 0.00 0.00 0.00
05/08/26 6:28:27 PM 36 4.0 14.0 65 44 76.5 81.6 29.892 7.26 0.0 153 0.00 0.00 0.00 0.00
05/08/26 6:29:20 PM 35 3.0 14.0 65 44 76.5 81.5 29.892 7.26 0.0 149 0.00 0.00 0.00 0.00
05/08/26 6:30:48 PM 38 9.0 14.0 65 44 76.5 81.5 29.893 7.26 0.0 146 0.00 0.00 0.00 0.00
05/08/26 6:31:20 PM 37 4.0 14.0 65 43 76.5 81.5 29.895 7.26 0.0 142 0.00 0.00 0.00 0.00
05/08/26 6:32:33 PM 36 2.0 14.0 65 44 76.6 81.5 29.894 7.26 0.0 141 0.00 0.00 0.00 0.00
05/08/26 6:33:26 PM 36 5.0 14.0 65 44 76.5 81.4 29.890 7.26 0.0 141 0.00 0.00 0.00 0.00
05/08/26 6:34:15 PM 36 4.0 14.0 65 44 76.5 81.3 29.893 7.26 0.0 132 0.00 0.00 0.00 0.00
05/08/26 6:35:29 PM 38 3.0 14.0 65 44 76.5 81.2 29.893 7.26 0.0 128 0.00 0.00 0.00 0.00
05/08/26 6:36:16 PM 38 3.0 14.0 65 44 76.5 81.2 29.896 7.26 0.0 125 0.00 0.00 0.00 0.00
05/08/26 6:37:29 PM 36 3.0 14.0 65 44 76.5 81.1 29.894 7.26 0.0 121 0.00 0.00 0.00 0.00
05/08/26 6:38:22 PM 38 5.0 14.0 65 44 76.5 81.1 29.891 7.26 0.0 121 0.00 0.00 0.00 0.00
05/08/26 6:39:36 PM 34 4.0 14.0 65 44 76.5 81.0 29.893 7.26 0.0 97 0.00 0.00 0.00 0.00
05/08/26 6:40:28 PM 37 6.0 14.0 65 44 76.5 80.9 29.892 7.26 0.0 97 0.00 0.00 0.00 0.00
05/08/26 6:41:21 PM 35 5.0 14.0 65 44 76.5 80.9 29.893 7.26 0.0 76 0.00 0.00 0.00 0.00
05/08/26 6:42:28 PM 34 2.0 14.0 65 44 76.4 80.8 29.894 7.26 0.0 53 0.00 0.00 0.00 0.00
05/08/26 6:43:18 PM 36 5.0 14.0 65 44 76.5 80.7 29.896 7.26 0.0 53 0.00 0.00 0.00 0.00
05/08/26 6:44:31 PM 36 5.0 14.0 65 45 76.4 80.6 29.894 7.26 0.0 46 0.00 0.00 0.00 0.00
05/08/26 6:45:24 PM 38 4.0 14.0 65 45 76.5 80.6 29.893 7.26 0.0 51 0.00 0.00 0.00 0.00
05/08/26 6:46:35 PM 34 6.0 14.0 65 45 76.5 80.5 29.896 7.26 0.0 53 0.00 0.00 0.00 0.00
05/08/26 6:47:25 PM 39 4.0 14.0 65 45 76.4 80.4 29.898 7.26 0.0 51 0.00 0.00 0.00 0.00
05/08/26 6:48:35 PM 38 6.0 14.0 65 45 76.4 80.3 29.898 7.26 0.0 46 0.00 0.00 0.00 0.00
05/08/26 6:49:28 PM 36 2.0 14.0 65 45 76.4 80.3 29.894 7.26 0.0 44 0.00 0.00 0.00 0.00
05/08/26 6:50:20 PM 38 3.0 14.0 65 45 76.4 80.2 29.896 7.26 0.0 42 0.00 0.00 0.00 0.00
05/08/26 6:51:31 PM 32 5.0 14.0 65 46 76.4 80.1 29.896 7.26 0.0 42 0.00 0.00 0.00 0.00
05/08/26 6:52:21 PM 35 3.0 14.0 65 46 76.4 80.1 29.897 7.26 0.0 37 0.00 0.00 0.00 0.00
05/08/26 6:53:32 PM 38 5.0 14.0 65 46 76.4 80.0 29.896 7.26 0.0 35 0.00 0.00 0.00 0.00
05/08/26 6:54:24 PM 34 4.0 14.0 65 46 76.4 79.9 29.896 7.26 0.0 33 0.00 0.00 0.00 0.00
05/08/26 6:55:35 PM 35 6.0 14.0 65 47 76.3 79.8 29.899 7.26 0.0 33 0.00 0.00 0.00 0.00
05/08/26 6:56:28 PM 36 4.0 14.0 65 47 76.3 79.7 29.898 7.26 0.0 33 0.00 0.00 0.00 0.00
05/08/26 6:57:20 PM 38 3.0 14.0 65 47 76.3 79.6 29.898 7.26 0.0 33 0.00 0.00 0.00 0.00
05/08/26 6:58:28 PM 32 3.0 14.0 65 47 76.3 79.5 29.897 7.26 0.0 33 0.00 0.00 0.00 0.00
05/08/26 6:59:21 PM 38 5.0 14.0 65 47 76.3 79.5 29.896 7.26 0.0 32 0.00 0.00 0.00 0.00
05/08/26 7:00:35 PM 38 4.0 14.0 65 47 76.2 79.4 29.899 7.26 0.0 32 0.00 0.00 0.00 0.00
05/08/26 7:01:24 PM 34 3.0 14.0 65 47 76.3 79.3 29.899 7.26 0.0 30 0.00 0.00 0.00 0.00
05/08/26 7:02:17 PM 38 9.0 14.0 65 47 76.3 79.3 29.898 7.26 0.0 30 0.00 0.00 0.00 0.00
05/08/26 7:03:24 PM 36 4.0 14.0 65 47 76.2 79.2 29.898 7.26 0.0 30 0.00 0.00 0.00 0.00
05/08/26 7:04:17 PM 35 3.0 14.0 65 48 76.2 79.1 29.895 7.26 0.0 28 0.00 0.00 0.00 0.00
05/08/26 7:05:28 PM 38 2.0 14.0 65 48 76.2 79.0 29.899 7.26 0.0 28 0.00 0.00 0.00 0.00
05/08/26 7:06:21 PM 34 10.0 14.0 65 48 76.2 79.0 29.897 7.26 0.0 26 0.00 0.00 0.00 0.00
05/08/26 7:07:34 PM 38 4.0 14.0 65 48 76.2 78.9 29.897 7.26 0.0 26 0.00 0.00 0.00 0.00
05/08/26 7:08:21 PM 38 4.0 14.0 65 48 76.2 78.8 29.900 7.26 0.0 25 0.00 0.00 0.00 0.00
05/08/26 7:09:31 PM 38 3.0 14.0 65 48 76.2 78.7 29.898 7.26 0.0 25 0.00 0.00 0.00 0.00
05/08/26 7:10:24 PM 36 3.0 14.0 65 48 76.2 78.7 29.901 7.26 0.0 25 0.00 0.00 0.00 0.00
05/08/26 7:11:35 PM 32 0.0 14.0 65 48 76.2 78.6 29.899 7.26 0.0 23 0.00 0.00 0.00 0.00
05/08/26 7:12:27 PM 32 2.0 14.0 65 48 76.2 78.6 29.898 7.26 0.0 23 0.00 0.00 0.00 0.00
05/08/26 7:13:20 PM 36 0.0 14.0 65 48 76.2 78.6 29.899 7.26 0.0 23 0.00 0.00 0.00 0.00
05/08/26 7:14:27 PM 35 0.0 14.0 65 49 76.2 78.5 29.898 7.26 0.0 21 0.00 0.00 0.00 0.00
05/08/26 7:15:20 PM 34 0.0 14.0 65 49 76.1 78.5 29.898 7.26 0.0 19 0.00 0.00 0.00 0.00
05/08/26 7:16:31 PM 36 4.0 14.0 65 49 76.1 78.5 29.899 7.26 0.0 18 0.00 0.00 0.00 0.00
05/08/26 7:17:23 PM 35 2.0 14.0 65 49 76.1 78.4 29.901 7.26 0.0 18 0.00 0.00 0.00 0.00
05/08/26 7:18:37 PM 38 4.0 14.0 65 49 76.1 78.4 29.901 7.26 0.0 18 0.00 0.00 0.00 0.00
05/08/26 7:19:21 PM 36 4.0 14.0 65 49 76.1 78.3 29.902 7.26 0.0 16 0.00 0.00 0.00 0.00
05/08/26 7:20:35 PM 34 6.0 14.0 65 49 76.1 78.2 29.900 7.26 0.0 14 0.00 0.00 0.00 0.00
05/08/26 7:21:27 PM 32 4.0 14.0 65 49 76.0 78.1 29.902 7.26 0.0 14 0.00 0.00 0.00 0.00
05/08/26 7:22:17 PM 34 4.0 14.0 65 49 76.0 78.1 29.902 7.26 0.0 12 0.00 0.00 0.00 0.00
05/08/26 7:23:31 PM 38 2.0 14.0 65 50 76.1 78.0 29.904 7.26 0.0 12 0.00 0.00 0.00 0.00
05/08/26 7:24:17 PM 36 2.0 14.0 65 50 76.0 78.0 29.902 7.26 0.0 11 0.00 0.00 0.00 0.00
05/08/26 7:25:31 PM 34 1.0 14.0 65 50 76.0 77.9 29.904 7.26 0.0 11 0.00 0.00 0.00 0.00
05/08/26 7:26:21 PM 35 2.0 14.0 65 50 76.0 77.9 29.903 7.26 0.0 11 0.00 0.00 0.00 0.00
05/08/26 7:27:35 PM 36 0.0 14.0 65 50 76.0 77.8 29.904 7.26 0.0 9 0.00 0.00 0.00 0.00
05/08/26 7:28:27 PM 38 0.0 14.0 65 50 76.0 77.8 29.904 7.26 0.0 9 0.00 0.00 0.00 0.00
05/08/26 7:29:20 PM 35 1.0 14.0 65 50 75.9 77.7 29.903 7.26 0.0 9 0.00 0.00 0.00 0.00
05/08/26 7:30:27 PM 35 0.0 14.0 65 50 76.0 77.7 29.904 7.26 0.0 7 0.00 0.00 0.00 0.00
05/08/26 7:31:17 PM 36 2.0 14.0 65 50 75.9 77.7 29.903 7.26 0.0 7 0.00 0.00 0.00 0.00
05/08/26 7:32:31 PM 38 2.0 14.0 65 50 75.9 77.6 29.906 7.26 0.0 7 0.00 0.00 0.00 0.00
05/08/26 7:33:23 PM 38 3.0 14.0 65 50 75.9 77.5 29.905 7.26 0.0 7 0.00 0.00 0.00 0.00
05/08/26 7:34:34 PM 36 2.0 14.0 65 51 75.9 77.4 29.905 7.26 0.0 5 0.00 0.00 0.00 0.00
05/08/26 7:35:21 PM 35 1.0 14.0 65 51 75.9 77.4 29.905 7.26 0.0 5 0.00 0.00 0.00 0.00
05/08/26 7:36:34 PM 38 3.0 14.0 65 51 75.9 77.3 29.908 7.26 0.0 5 0.00 0.00 0.00 0.00
05/08/26 7:37:27 PM 34 5.0 14.0 65 51 75.9 77.2 29.906 7.26 0.0 5 0.00 0.00 0.00 0.00
05/08/26 7:38:17 PM 35 3.0 14.0 65 51 75.9 77.1 29.908 7.26 0.0 5 0.00 0.00 0.00 0.00
05/08/26 7:39:30 PM 38 1.0 14.0 65 52 75.9 77.0 29.907 7.26 0.0 0 0.00 0.00 0.00 0.00
05/08/26 7:40:17 PM 37 0.0 14.0 65 52 75.8 77.0 29.907 7.26 0.0 0 0.00 0.00 0.00 0.00
05/08/26 7:41:31 PM 38 4.0 14.0 65 52 75.7 76.9 29.908 7.26 0.0 0 0.00 0.00 0.00 0.00
05/08/26 7:42:20 PM 34 3.0 14.0 65 52 75.7 76.9 29.908 7.26 0.0 0 0.00 0.00 0.00 0.00
05/08/26 7:43:34 PM 38 4.0 14.0 65 52 75.6 76.8 29.910 7.26 0.0 0 0.00 0.00 0.00 0.00
05/08/26 7:44:23 PM 34 2.0 14.0 65 52 75.6 76.7 29.910 7.26 0.0 0 0.00 0.00 0.00 0.00
05/08/26 7:45:19 PM 38 1.0 14.0 65 52 75.6 76.7 29.906 7.26 0.0 0 0.00 0.00 0.00 0.00
05/08/26 7:46:27 PM 36 2.0 14.0 65 52 75.6 76.6 29.911 7.26 0.0 0 0.00 0.00 0.00 0.00
05/08/26 7:47:19 PM 38 2.0 14.0 65 53 75.6 76.6 29.910 7.26 0.0 0 0.00 0.00 0.00 0.00
05/08/26 7:48:30 PM 38 2.0 14.0 65 53 75.6 76.5 29.908 7.26 0.0 0 0.00 0.00 0.00 0.00
05/08/26 7:49:26 PM 37 1.0 14.0 65 53 75.5 76.4 29.905 7.26 0.0 0 0.00 0.00 0.00 0.00
05/08/26 7:50:16 PM 35 2.0 14.0 65 53 75.5 76.4 29.912 7.26 0.0 0 0.00 0.00 0.00 0.00
05/08/26 7:51:23 PM 38 2.0 14.0 65 53 75.5 76.3 29.912 7.26 0.0 0 0.00 0.00 0.00 0.00
05/08/26 7:52:37 PM 38 2.0 14.0 65 53 75.5 76.2 29.907 7.26 0.0 0 0.00 0.00 0.00 0.00
05/08/26 7:53:30 PM 37 1.0 14.0 65 53 75.5 76.2 29.910 7.26 0.0 0 0.00 0.00 0.00 0.00
05/08/26 7:54:22 PM 38 2.0 14.0 65 53 75.5 76.1 29.912 7.26 0.0 0 0.00 0.00 0.00 0.00
05/08/26 7:55:33 PM 38 2.0 14.0 65 53 75.5 76.1 29.913 7.26 0.0 0 0.00 0.00 0.00 0.00
05/08/26 7:56:23 PM 36 1.0 14.0 65 54 75.5 76.0 29.911 7.26 0.0 0 0.00 0.00 0.00 0.00
05/08/26 7:57:33 PM 38 1.0 14.0 65 55 75.5 75.9 29.912 7.26 0.0 0 0.00 0.00 0.00 0.00
05/08/26 7:58:26 PM 32 2.0 14.0 65 55 75.4 75.8 29.912 7.26 0.0 0 0.00 0.00 0.00 0.00
05/08/26 7:59:19 PM 36 2.0 14.0 65 55 75.4 75.7 29.912 7.26 0.0 0 0.00 0.00 0.00 0.00
05/08/26 8:00:32 PM 32 0.0 14.0 65 55 75.4 75.6 29.912 7.26 0.0 0 0.00 0.00 0.00 0.00
05/08/26 8:01:22 PM 38 0.0 14.0 65 56 75.4 75.6 29.912 7.26 0.0 0 0.00 0.00 0.00 0.00
05/08/26 8:02:30 PM 38 0.0 14.0 65 56 75.4 75.5 29.911 7.26 0.0 0 0.00 0.00 0.00 0.00
05/08/26 8:03:23 PM 36 0.0 14.0 65 56 75.4 75.5 29.913 7.26 0.0 0 0.00 0.00 0.00 0.00
05/08/26 8:04:33 PM 37 1.0 14.0 65 56 75.4 75.4 29.914 7.26 0.0 0 0.00 0.00 0.00 0.00
05/08/26 8:05:23 PM 34 2.0 14.0 65 56 75.4 75.3 29.914 7.26 0.0 0 0.00 0.00 0.00 0.00
05/08/26 8:06:37 PM 37 3.0 14.0 65 56 75.4 75.2 29.914 7.26 0.0 0 0.00 0.00 0.00 0.00
05/08/26 8:07:24 PM 32 3.0 14.0 65 56 75.4 75.2 29.915 7.26 0.0 0 0.00 0.00 0.00 0.00
05/08/26 8:08:16 PM 36 2.0 14.0 65 56 75.4 75.1 29.916 7.26 0.0 0 0.00 0.00 0.00 0.00
05/08/26 8:09:30 PM 39 4.0 14.0 65 56 75.3 75.0 29.916 7.26 0.0 0 0.00 0.00 0.00 0.00
05/08/26 8:10:23 PM 36 2.0 14.0 65 56 75.3 74.9 29.916 7.26 0.0 0 0.00 0.00 0.00 0.00
05/08/26 8:11:34 PM 38 2.0 14.0 65 56 75.3 74.8 29.916 7.26 0.0 0 0.00 0.00 0.00 0.00
05/08/26 8:12:24 PM 38 1.0 14.0 65 56 75.3 74.8 29.915 7.26 0.0 0 0.00 0.00 0.00 0.00
05/08/26 8:13:34 PM 39 2.0 14.0 65 56 75.3 74.6 29.917 7.26 0.0 0 0.00 0.00 0.00 0.00
05/08/26 8:14:27 PM 38 1.0 14.0 65 56 75.3 74.6 29.917 7.26 0.0 0 0.00 0.00 0.00 0.00
05/08/26 8:15:20 PM 39 1.0 14.0 65 56 75.3 74.5 29.917 7.26 0.0 0 0.00 0.00 0.00 0.00
05/08/26 8:16:31 PM 38 3.0 14.0 65 56 75.3 74.5 29.917 7.26 0.0 0 0.00 0.00 0.00 0.00
05/08/26 8:17:23 PM 38 2.0 14.0 65 56 75.2 74.4 29.917 7.26 0.0 0 0.00 0.00 0.00 0.00
05/08/26 8:18:31 PM 32 2.0 14.0 65 56 75.2 74.3 29.918 7.26 0.0 0 0.00 0.00 0.00 0.00
05/08/26 8:19:24 PM 32 2.0 14.0 65 57 75.2 74.2 29.918 7.26 0.0 0 0.00 0.00 0.00 0.00
05/08/26 8:20:34 PM 35 3.0 14.0 65 57 75.2 74.1 29.917 7.26 0.0 0 0.00 0.00 0.00 0.00
05/08/26 8:21:27 PM 39 2.0 14.0 65 57 75.2 74.1 29.918 7.26 0.0 0 0.00 0.00 0.00 0.00
05/08/26 8:22:17 PM 38 2.0 14.0 65 57 75.2 74.0 29.921 7.26 0.0 0 0.00 0.00 0.00 0.00
05/08/26 8:23:25 PM 38 2.0 14.0 65 57 75.2 73.9 29.917 7.26 0.0 0 0.00 0.00 0.00 0.00
05/08/26 8:24:17 PM 36 2.0 14.0 65 58 75.1 73.9 29.916 7.26 0.0 0 0.00 0.00 0.00 0.00
05/08/26 8:25:28 PM 38 3.0 14.0 65 58 75.1 73.8 29.918 7.26 0.0 0 0.00 0.00 0.00 0.00
05/08/26 8:26:21 PM 37 3.0 14.0 65 58 75.1 73.7 29.920 7.26 0.0 0 0.00 0.00 0.00 0.00
05/08/26 8:27:35 PM 38 2.0 14.0 65 58 75.1 73.6 29.917 7.26 0.0 0 0.00 0.00 0.00 0.00
05/08/26 8:28:21 PM 39 2.0 14.0 65 58 75.1 73.6 29.919 7.26 0.0 0 0.00 0.00 0.00 0.00
05/08/26 8:29:32 PM 32 2.0 14.0 65 58 75.1 73.5 29.920 7.26 0.0 0 0.00 0.00 0.00 0.00
05/08/26 8:30:28 PM 38 2.0 14.0 65 58 75.0 73.4 29.918 7.26 0.0 0 0.00 0.00 0.00 0.00
05/08/26 8:31:18 PM 32 2.0 14.0 65 58 75.0 73.4 29.920 7.26 0.0 0 0.00 0.00 0.00 0.00
05/08/26 8:32:32 PM 39 2.0 14.0 65 58 75.0 73.3 29.921 7.26 0.0 0 0.00 0.00 0.00 0.00
05/08/26 8:33:21 PM 35 2.0 14.0 65 58 75.0 73.3 29.920 7.26 0.0 0 0.00 0.00 0.00 0.00
05/08/26 8:34:32 PM 38 2.0 14.0 65 58 74.9 73.3 29.917 7.26 0.0 0 0.00 0.00 0.00 0.00
05/08/26 8:35:22 PM 38 3.0 14.0 65 58 75.0 73.2 29.920 7.26 0.0 0 0.00 0.00 0.00 0.00
05/08/26 8:36:36 PM 35 2.0 14.0 65 58 74.9 73.1 29.921 7.26 0.0 0 0.00 0.00 0.00 0.00
05/08/26 8:37:25 PM 38 2.0 14.0 65 59 74.9 73.1 29.922 7.26 0.0 0 0.00 0.00 0.00 0.00
05/08/26 8:38:18 PM 35 1.0 14.0 65 59 74.9 73.1 29.920 7.26 0.0 0 0.00 0.00 0.00 0.00
05/08/26 8:39:26 PM 34 1.0 14.0 65 59 74.9 73.0 29.922 7.26 0.0 0 0.00 0.00 0.00 0.00
05/08/26 8:40:18 PM 38 0.0 14.0 65 59 74.9 73.0 29.922 7.26 0.0 0 0.00 0.00 0.00 0.00
05/08/26 8:41:29 PM 32 0.0 14.0 65 59 74.8 72.9 29.921 7.26 0.0 0 0.00 0.00 0.00 0.00
05/08/26 8:42:22 PM 36 0.0 14.0 65 59 74.8 72.9 29.924 7.26 0.0 0 0.00 0.00 0.00 0.00
05/08/26 8:43:33 PM 35 0.0 14.0 65 59 74.7 72.8 29.920 7.26 0.0 0 0.00 0.00 0.00 0.00
05/08/26 8:44:22 PM 35 0.0 14.0 65 59 74.8 72.8 29.924 7.26 0.0 0 0.00 0.00 0.00 0.00
05/08/26 8:45:36 PM 38 0.0 14.0 65 59 74.7 72.7 29.922 7.26 0.0 0 0.00 0.00 0.00 0.00
05/08/26 8:46:26 PM 36 0.0 14.0 65 59 74.7 72.7 29.922 7.26 0.0 0 0.00 0.00 0.00 0.00
05/08/26 8:47:18 PM 38 0.0 14.0 65 59 74.7 72.7 29.921 7.26 0.0 0 0.00 0.00 0.00 0.00
05/08/26 8:48:32 PM 34 0.0 14.0 65 59 74.7 72.6 29.920 7.26 0.0 0 0.00 0.00 0.00 0.00
05/08/26 8:49:25 PM 38 0.0 14.0 65 59 74.7 72.6 29.920 7.26 0.0 0 0.00 0.00 0.00 0.00
05/08/26 8:50:33 PM 36 0.0 14.0 65 59 74.7 72.5 29.921 7.26 0.0 0 0.00 0.00 0.00 0.00
05/08/26 8:51:22 PM 34 0.0 14.0 65 60 74.6 72.5 29.921 7.26 0.0 0 0.00 0.00 0.00 0.00
05/08/26 8:52:15 PM 38 0.0 14.0 65 60 74.6 72.4 29.921 7.26 0.0 0 0.00 0.00 0.00 0.00
05/08/26 8:53:29 PM 32 0.0 14.0 65 60 74.6 72.3 29.922 7.26 0.0 0 0.00 0.00 0.00 0.00
05/08/26 8:54:21 PM 36 0.0 14.0 65 60 74.6 72.2 29.920 7.26 0.0 0 0.00 0.00 0.00 0.00
05/08/26 8:55:29 PM 34 0.0 14.0 65 60 74.5 72.1 29.924 7.26 0.0 0 0.00 0.00 0.00 0.00
05/08/26 8:56:19 PM 34 0.0 14.0 65 60 74.4 72.0 29.920 7.26 0.0 0 0.00 0.00 0.00 0.00
05/08/26 8:57:33 PM 36 0.0 14.0 65 60 74.4 71.9 29.922 7.26 0.0 0 0.00 0.00 0.00 0.00
05/08/26 8:58:25 PM 37 0.0 14.0 65 60 74.4 71.8 29.923 7.26 0.0 0 0.00 0.00 0.00 0.00
05/08/26 8:59:18 PM 38 0.0 14.0 65 61 74.4 71.8 29.923 7.26 0.0 0 0.00 0.00 0.00 0.00
05/08/26 9:00:26 PM 34 0.0 14.0 65 61 74.3 71.7 29.922 7.26 0.0 0 0.00 0.00 0.00 0.00
05/08/26 9:01:19 PM 34 0.0 14.0 65 61 74.3 71.6 29.920 7.26 0.0 0 0.00 0.00 0.00 0.00
05/08/26 9:02:29 PM 38 0.0 14.0 65 61 74.3 71.6 29.921 7.26 0.0 0 0.00 0.00 0.00 0.00
05/08/26 9:03:22 PM 36 0.0 14.0 65 61 74.3 71.6 29.923 7.26 0.0 0 0.00 0.00 0.00 0.00
05/08/26 9:04:33 PM 38 0.0 14.0 65 61 74.2 71.5 29.922 7.26 0.0 0 0.00 0.00 0.00 0.00
05/08/26 9:05:26 PM 32 0.0 14.0 65 61 74.2 71.5 29.924 7.26 0.0 0 0.00 0.00 0.00 0.00
05/08/26 9:06:34 PM 31 0.0 14.0 65 61 74.1 71.5 29.923 7.26 0.0 0 0.00 0.00 0.00 0.00
05/08/26 9:07:26 PM 32 0.0 14.0 65 60 74.2 71.4 29.924 7.26 0.0 0 0.00 0.00 0.00 0.00
05/08/26 9:08:16 PM 35 0.0 14.0 65 61 74.1 71.3 29.924 7.26 0.0 0 0.00 0.00 0.00 0.00
05/08/26 9:09:27 PM 38 0.0 14.0 65 61 74.0 71.3 29.926 7.26 0.0 0 0.00 0.00 0.00 0.00
05/08/26 9:10:20 PM 37 0.0 14.0 65 61 74.0 71.2 29.923 7.26 0.0 0 0.00 0.00 0.00 0.00
05/08/26 9:11:27 PM 38 0.0 14.0 65 61 74.0 71.2 29.926 7.26 0.0 0 0.00 0.00 0.00 0.00
05/08/26 9:12:20 PM 37 0.0 14.0 65 61 74.0 71.2 29.926 7.26 0.0 0 0.00 0.00 0.00 0.00
05/08/26 9:13:31 PM 32 0.0 14.0 65 61 74.0 71.1 29.925 7.26 0.0 0 0.00 0.00 0.00 0.00
05/08/26 9:14:23 PM 38 0.0 14.0 65 61 73.9 71.1 29.925 7.26 0.0 0 0.00 0.00 0.00 0.00
05/08/26 9:15:19 PM 36 0.0 14.0 65 61 73.9 71.0 29.927 7.26 0.0 0 0.00 0.00 0.00 0.00
05/08/26 9:16:27 PM 38 0.0 14.0 65 62 73.9 70.9 29.928 7.26 0.0 0 0.00 0.00 0.00 0.00
05/08/26 9:17:17 PM 37 0.0 14.0 65 62 73.9 70.9 29.931 7.26 0.0 0 0.00 0.00 0.00 0.00
05/08/26 9:18:30 PM 31 0.0 14.0 65 62 73.9 70.8 29.930 7.26 0.0 0 0.00 0.00 0.00 0.00
05/08/26 9:19:23 PM 35 0.0 14.0 65 62 73.9 70.8 29.927 7.26 0.0 0 0.00 0.00 0.00 0.00
05/08/26 9:20:34 PM 34 0.0 14.0 65 62 73.8 70.8 29.926 7.26 0.0 0 0.00 0.00 0.00 0.00
05/08/26 9:21:26 PM 38 0.0 14.0 65 62 73.8 70.7 29.926 7.26 0.0 0 0.00 0.00 0.00 0.00
05/08/26 9:22:34 PM 38 0.0 14.0 65 62 73.8 70.6 29.928 7.26 0.0 0 0.00 0.00 0.00 0.00
05/08/26 9:23:27 PM 38 0.0 14.0 65 62 73.8 70.6 29.929 7.26 0.0 0 0.00 0.00 0.00 0.00
05/08/26 9:24:17 PM 34 0.0 14.0 65 62 73.8 70.5 29.928 7.26 0.0 0 0.00 0.00 0.00 0.00
05/08/26 9:25:28 PM 32 0.0 14.0 65 63 73.7 70.5 29.930 7.26 0.0 0 0.00 0.00 0.00 0.00
05/08/26 9:26:21 PM 34 0.0 14.0 65 63 73.7 70.4 29.933 7.26 0.0 0 0.00 0.00 0.00 0.00
05/08/26 9:27:28 PM 38 0.0 14.0 65 63 73.7 70.4 29.934 7.26 0.0 0 0.00 0.00 0.00 0.00
05/08/26 9:28:21 PM 36 0.0 14.0 65 62 73.7 70.3 29.933 7.26 0.0 0 0.00 0.00 0.00 0.00
05/08/26 9:29:35 PM 36 0.0 14.0 65 63 73.6 70.2 29.934 7.26 0.0 0 0.00 0.00 0.00 0.00
05/08/26 9:30:49 PM 37 0.0 14.0 65 63 73.6 70.2 29.936 7.26 0.0 0 0.00 0.00 0.00 0.00
05/08/26 9:31:18 PM 32 0.0 14.0 65 63 73.6 70.1 29.933 7.26 0.0 0 0.00 0.00 0.00 0.00
05/08/26 9:32:31 PM 35 0.0 14.0 65 63 73.6 70.0 29.934 7.26 0.0 0 0.00 0.00 0.00 0.00
05/08/26 9:33:18 PM 38 0.0 14.0 65 63 73.5 70.0 29.934 7.26 0.0 0 0.00 0.00 0.00 0.00
05/08/26 9:34:32 PM 36 0.0 14.0 65 63 73.5 69.9 29.935 7.26 0.0 0 0.00 0.00 0.00 0.00
05/08/26 9:35:25 PM 37 0.0 14.0 65 63 73.5 69.8 29.938 7.26 0.0 0 0.00 0.00 0.00 0.00
05/08/26 9:36:36 PM 38 0.0 14.0 65 63 73.5 69.7 29.937 7.26 0.0 0 0.00 0.00 0.00 0.00
05/08/26 9:37:29 PM 32 0.0 14.0 65 63 73.4 69.6 29.937 7.26 0.0 0 0.00 0.00 0.00 0.00
05/08/26 9:38:36 PM 35 0.0 14.0 65 64 73.4 69.5 29.938 7.26 0.0 0 0.00 0.00 0.00 0.00
05/08/26 9:39:26 PM 40 0.0 14.0 65 64 73.4 69.4 29.938 7.26 0.0 0 0.00 0.00 0.00 0.00
05/08/26 9:40:19 PM 38 0.0 14.0 65 64 73.3 69.4 29.940 7.26 0.0 0 0.00 0.00 0.00 0.00
05/08/26 9:41:33 PM 37 0.0 14.0 65 64 73.3 69.3 29.939 7.26 0.0 0 0.00 0.00 0.00 0.00
05/08/26 9:42:22 PM 31 0.0 14.0 65 64 73.2 69.2 29.939 7.26 0.0 0 0.00 0.00 0.00 0.00
05/08/26 9:43:33 PM 34 0.0 14.0 65 64 73.2 69.1 29.941 7.26 0.0 0 0.00 0.00 0.00 0.00
05/08/26 9:44:23 PM 38 0.0 14.0 65 64 73.2 69.0 29.940 7.26 0.0 0 0.00 0.00 0.00 0.00
05/08/26 9:45:37 PM 34 0.0 14.0 65 65 73.1 68.9 29.940 7.26 0.0 0 0.00 0.00 0.00 0.00
05/08/26 9:46:30 PM 38 0.0 14.0 65 65 73.1 68.8 29.940 7.26 0.0 0 0.00 0.00 0.00 0.00
05/08/26 9:47:19 PM 37 0.0 14.0 65 65 73.1 68.8 29.940 7.26 0.0 0 0.00 0.00 0.00 0.00
05/08/26 9:48:33 PM 38 0.0 14.0 65 65 73.1 68.7 29.940 7.26 0.0 0 0.00 0.00 0.00 0.00
05/08/26 9:49:20 PM 38 0.0 14.0 65 65 73.0 68.6 29.943 7.26 0.0 0 0.00 0.00 0.00 0.00
05/08/26 9:50:31 PM 35 0.0 14.0 65 65 73.0 68.5 29.941 7.26 0.0 0 0.00 0.00 0.00 0.00
05/08/26 9:51:23 PM 38 0.0 14.0 65 65 72.9 68.5 29.941 7.26 0.0 0 0.00 0.00 0.00 0.00
05/08/26 9:52:34 PM 38 0.0 14.0 65 65 72.9 68.4 29.942 7.26 0.0 0 0.00 0.00 0.00 0.00
05/08/26 9:53:27 PM 36 0.0 14.0 65 65 72.8 68.3 29.943 7.26 0.0 0 0.00 0.00 0.00 0.00
05/08/26 9:54:35 PM 36 0.0 14.0 65 65 72.8 68.3 29.943 7.26 0.0 0 0.00 0.00 0.00 0.00
05/08/26 9:55:27 PM 34 0.0 14.0 65 66 72.8 68.2 29.946 7.26 0.0 0 0.00 0.00 0.00 0.00
05/08/26 9:56:20 PM 38 0.0 14.0 65 66 72.8 68.2 29.942 7.26 0.0 0 0.00 0.00 0.00 0.00
05/08/26 9:57:31 PM 34 0.0 14.0 65 66 72.8 68.1 29.945 7.26 0.0 0 0.00 0.00 0.00 0.00
05/08/26 9:58:24 PM 38 0.0 14.0 65 66 72.8 68.1 29.945 7.26 0.0 0 0.00 0.00 0.00 0.00
05/08/26 9:59:32 PM 36 0.0 14.0 65 66 72.8 68.0 29.946 7.26 0.0 0 0.00 0.00 0.00 0.00
05/08/26 10:00:27 PM 34 0.0 14.0 65 66 72.7 68.0 29.945 7.26 0.0 0 0.00 0.00 0.00 0.00
05/08/26 10:01:17 PM 38 0.0 14.0 65 67 72.7 68.0 29.950 7.26 0.0 0 0.00 0.00 0.00 0.00
05/08/26 10:02:28 PM 35 0.0 14.0 65 67 72.8 67.9 29.949 7.26 0.0 0 0.00 0.00 0.00 0.00
05/08/26 10:03:21 PM 38 0.0 14.0 65 67 72.7 67.9 29.948 7.26 0.0 0 0.00 0.00 0.00 0.00
05/08/26 10:04:32 PM 34 0.0 14.0 65 67 72.6 67.8 29.948 7.26 0.0 0 0.00 0.00 0.00 0.00
05/08/26 10:05:19 PM 37 0.0 14.0 65 67 72.6 67.7 29.950 7.26 0.0 0 0.00 0.00 0.00 0.00
05/08/26 10:06:32 PM 35 0.0 14.0 65 67 72.6 67.7 29.950 7.26 0.0 0 0.00 0.00 0.00 0.00
05/08/26 10:07:25 PM 35 0.0 14.0 65 67 72.6 67.6 29.950 7.26 0.0 0 0.00 0.00 0.00 0.00
05/08/26 10:08:18 PM 38 0.0 14.0 65 68 72.6 67.6 29.949 7.26 0.0 0 0.00 0.00 0.00 0.00
05/08/26 10:09:29 PM 34 0.0 14.0 65 68 72.6 67.5 29.950 7.26 0.0 0 0.00 0.00 0.00 0.00
05/08/26 10:10:18 PM 34 0.0 14.0 65 68 72.6 67.5 29.950 7.26 0.0 0 0.00 0.00 0.00 0.00
05/08/26 10:11:30 PM 36 0.0 14.0 65 67 72.6 67.4 29.950 7.26 0.0 0 0.00 0.00 0.00 0.00
05/08/26 10:12:22 PM 32 0.0 14.0 65 67 72.6 67.4 29.949 7.26 0.0 0 0.00 0.00 0.00 0.00
05/08/26 10:13:33 PM 34 0.0 14.0 65 68 72.7 67.4 29.951 7.26 0.0 0 0.00 0.00 0.00 0.00
05/08/26 10:14:26 PM 35 0.0 14.0 65 68 72.6 67.3 29.950 7.26 0.0 0 0.00 0.00 0.00 0.00
05/08/26 10:15:19 PM 38 0.0 14.0 65 68 72.7 67.3 29.951 7.26 0.0 0 0.00 0.00 0.00 0.00
05/08/26 10:16:26 PM 38 0.0 14.0 65 68 72.6 67.2 29.950 7.26 0.0 0 0.00 0.00 0.00 0.00
05/08/26 10:17:16 PM 37 0.0 14.0 65 68 72.6 67.2 29.953 7.26 0.0 0 0.00 0.00 0.00 0.00
05/08/26 10:18:27 PM 36 0.0 14.0 65 68 72.7 67.1 29.951 7.26 0.0 0 0.00 0.00 0.00 0.00
05/08/26 10:19:20 PM 37 0.0 14.0 65 68 72.7 67.1 29.952 7.26 0.0 0 0.00 0.00 0.00 0.00
05/08/26 10:20:34 PM 38 0.0 14.0 65 69 72.7 67.0 29.952 7.26 0.0 0 0.00 0.00 0.00 0.00
05/08/26 10:21:21 PM 39 0.0 14.0 65 69 72.7 67.0 29.954 7.26 0.0 0 0.00 0.00 0.00 0.00
05/08/26 10:22:31 PM 34 0.0 14.0 65 69 72.7 66.9 29.953 7.26 0.0 0 0.00 0.00 0.00 0.00
05/08/26 10:23:24 PM 38 0.0 14.0 65 69 72.7 66.9 29.953 7.26 0.0 0 0.00 0.00 0.00 0.00
05/08/26 10:24:35 PM 35 0.0 14.0 65 69 72.7 66.8 29.953 7.26 0.0 0 0.00 0.00 0.00 0.00
05/08/26 10:25:28 PM 32 0.0 14.0 65 69 72.8 66.8 29.953 7.26 0.0 0 0.00 0.00 0.00 0.00
05/08/26 10:26:18 PM 39 0.0 14.0 65 69 72.8 66.7 29.954 7.26 0.0 0 0.00 0.00 0.00 0.00
05/08/26 10:27:28 PM 39 0.0 14.0 65 69 72.8 66.7 29.953 7.26 0.0 0 0.00 0.00 0.00 0.00
05/08/26 10:28:18 PM 38 0.0 14.0 65 69 72.8 66.7 29.952 7.26 0.0 0 0.00 0.00 0.00 0.00
05/08/26 10:29:32 PM 38 0.0 14.0 65 70 72.8 66.6 29.951 7.26 0.0 0 0.00 0.00 0.00 0.00
05/08/26 10:30:25 PM 37 0.0 14.0 65 70 72.8 66.5 29.951 7.26 0.0 0 0.00 0.00 0.00 0.00
05/08/26 10:31:33 PM 38 0.0 14.0 65 70 72.8 66.5 29.952 7.26 0.0 0 0.00 0.00 0.00 0.00
05/08/26 10:32:22 PM 38 0.0 14.0 65 70 72.8 66.5 29.953 7.26 0.0 0 0.00 0.00 0.00 0.00
05/08/26 10:33:36 PM 38 0.0 14.0 65 70 72.8 66.4 29.951 7.26 0.0 0 0.00 0.00 0.00 0.00
05/08/26 10:34:26 PM 40 0.0 14.0 65 70 72.8 66.3 29.951 7.26 0.0 0 0.00 0.00 0.00 0.00
05/08/26 10:35:19 PM 38 0.0 14.0 65 70 72.8 66.3 29.953 7.26 0.0 0 0.00 0.00 0.00 0.00
05/08/26 10:36:30 PM 36 0.0 14.0 65 70 72.8 66.3 29.951 7.26 0.0 0 0.00 0.00 0.00 0.00
05/08/26 10:37:19 PM 38 0.0 14.0 65 70 72.8 66.2 29.951 7.26 0.0 0 0.00 0.00 0.00 0.00
05/08/26 10:38:30 PM 34 0.0 14.0 65 70 72.8 66.1 29.954 7.26 0.0 0 0.00 0.00 0.00 0.00
05/08/26 10:39:23 PM 39 0.0 14.0 65 70 72.8 66.1 29.951 7.26 0.0 0 0.00 0.00 0.00 0.00
05/08/26 10:40:34 PM 35 0.0 14.0 65 70 72.8 66.1 29.952 7.26 0.0 0 0.00 0.00 0.00 0.00
05/08/26 10:41:27 PM 39 3.0 14.0 65 70 72.9 66.0 29.951 7.26 0.0 0 0.00 0.00 0.00 0.00
05/08/26 10:42:34 PM 36 3.0 14.0 65 71 72.9 65.9 29.952 7.26 0.0 0 0.00 0.00 0.00 0.00
05/08/26 10:43:27 PM 32 4.0 14.0 65 71 72.9 65.9 29.952 7.26 0.0 0 0.00 0.00 0.00 0.00
05/08/26 10:44:20 PM 39 4.0 14.0 65 72 72.9 65.8 29.952 7.26 0.0 0 0.00 0.00 0.00 0.00
05/08/26 10:45:34 PM 38 3.0 14.0 65 72 72.8 65.8 29.951 7.26 0.0 0 0.00 0.00 0.00 0.00
05/08/26 10:46:23 PM 40 3.0 14.0 65 72 72.8 65.8 29.953 7.26 0.0 0 0.00 0.00 0.00 0.00
05/08/26 10:47:31 PM 38 0.0 14.0 65 72 72.9 65.7 29.950 7.26 0.0 0 0.00 0.00 0.00 0.00
05/08/26 10:48:24 PM 31 0.0 14.0 65 72 72.9 65.7 29.951 7.26 0.0 0 0.00 0.00 0.00 0.00

University Police wind advisory reference

For campus closure information please call the campus Emergency Hotline at (909) 537-5999

© All rights reserved. Unauthorized duplication or distribution is prohibited

Never base important decisions on this or any weather information obtained from the Internet

California State University, San Bernardino
5500 University Parkway, San Bernardino, CA. 92407
Phone: (909) 537-5108, Email: Weather Webmaster
Last Updated: